<?xml version="1.0" encoding="UTF-8" standalone="no" ?>
<gpx xmlns="http://www.topografix.com/GPX/1/1" xmlns:xsi="http://www.w3.org/2001/XMLSchema-instance" xsi:schemaLocation="http://www.topografix.com/GPX/1/1 http://www.topografix.com/GPX/1/1/gpx.xsd" version="1.1" creator="VisuGPX - https://www.visugpx.com">
  <metadata>
    <name>grande verte 2012</name>
    <desc><![CDATA[Grande verte 2012]]></desc>
  </metadata>
  <trk>
    <name><![CDATA[24-JUIN-12 21:04:21]]></name>
    <trkseg>
      <trkpt lat="45.64457" lon="5.98362">
        <ele>1258.02</ele>
        <time>2012-06-24T06:58:23Z</time>
      </trkpt>
      <trkpt lat="45.64456" lon="5.98364">
        <ele>1261.39</ele>
        <time>2012-06-24T06:58:25Z</time>
      </trkpt>
      <trkpt lat="45.64455" lon="5.98365">
        <ele>1264.75</ele>
        <time>2012-06-24T06:58:27Z</time>
      </trkpt>
      <trkpt lat="45.64454" lon="5.98367">
        <ele>1268.12</ele>
        <time>2012-06-24T06:58:29Z</time>
      </trkpt>
      <trkpt lat="45.64453" lon="5.98368">
        <ele>1271.96</ele>
        <time>2012-06-24T06:58:32Z</time>
      </trkpt>
      <trkpt lat="45.64451" lon="5.9837">
        <ele>1275.81</ele>
        <time>2012-06-24T06:58:35Z</time>
      </trkpt>
      <trkpt lat="45.64451" lon="5.98371">
        <ele>1275.81</ele>
        <time>2012-06-24T06:58:36Z</time>
      </trkpt>
      <trkpt lat="45.64451" lon="5.98372">
        <ele>1279.17</ele>
        <time>2012-06-24T06:58:39Z</time>
      </trkpt>
      <trkpt lat="45.6445" lon="5.98373">
        <ele>1282.54</ele>
        <time>2012-06-24T06:58:42Z</time>
      </trkpt>
      <trkpt lat="45.64449" lon="5.98373">
        <ele>1286.38</ele>
        <time>2012-06-24T06:58:45Z</time>
      </trkpt>
      <trkpt lat="45.64448" lon="5.98376">
        <ele>1289.75</ele>
        <time>2012-06-24T06:58:49Z</time>
      </trkpt>
      <trkpt lat="45.64448" lon="5.98378">
        <ele>1293.11</ele>
        <time>2012-06-24T06:58:53Z</time>
      </trkpt>
      <trkpt lat="45.64447" lon="5.98379">
        <ele>1296.48</ele>
        <time>2012-06-24T06:58:58Z</time>
      </trkpt>
      <trkpt lat="45.64447" lon="5.98379">
        <ele>1297.44</ele>
        <time>2012-06-24T06:58:59Z</time>
      </trkpt>
      <trkpt lat="45.6445" lon="5.98391">
        <ele>1300.8</ele>
        <time>2012-06-24T06:59:05Z</time>
      </trkpt>
      <trkpt lat="45.6445" lon="5.98397">
        <ele>1301.28</ele>
        <time>2012-06-24T06:59:07Z</time>
      </trkpt>
      <trkpt lat="45.64458" lon="5.98415">
        <ele>1304.17</ele>
        <time>2012-06-24T06:59:14Z</time>
      </trkpt>
      <trkpt lat="45.64471" lon="5.98405">
        <ele>1308.01</ele>
        <time>2012-06-24T06:59:24Z</time>
      </trkpt>
      <trkpt lat="45.6448" lon="5.98382">
        <ele>1311.38</ele>
        <time>2012-06-24T06:59:37Z</time>
      </trkpt>
      <trkpt lat="45.64482" lon="5.98379">
        <ele>1311.38</ele>
        <time>2012-06-24T06:59:39Z</time>
      </trkpt>
      <trkpt lat="45.64486" lon="5.98369">
        <ele>1313.3</ele>
        <time>2012-06-24T06:59:54Z</time>
      </trkpt>
      <trkpt lat="45.64486" lon="5.98369">
        <ele>1314.74</ele>
        <time>2012-06-24T07:00:27Z</time>
      </trkpt>
      <trkpt lat="45.64486" lon="5.98368">
        <ele>1314.74</ele>
        <time>2012-06-24T07:00:53Z</time>
      </trkpt>
      <trkpt lat="45.6449" lon="5.98359">
        <ele>1314.74</ele>
        <time>2012-06-24T07:00:58Z</time>
      </trkpt>
      <trkpt lat="45.64495" lon="5.98349">
        <ele>1314.74</ele>
        <time>2012-06-24T07:01:14Z</time>
      </trkpt>
      <trkpt lat="45.64495" lon="5.98348">
        <ele>1315.22</ele>
        <time>2012-06-24T07:01:37Z</time>
      </trkpt>
      <trkpt lat="45.64495" lon="5.98348">
        <ele>1315.22</ele>
        <time>2012-06-24T07:02:03Z</time>
      </trkpt>
      <trkpt lat="45.64495" lon="5.98348">
        <ele>1315.7</ele>
        <time>2012-06-24T07:02:30Z</time>
      </trkpt>
      <trkpt lat="45.64501" lon="5.98333">
        <ele>1315.7</ele>
        <time>2012-06-24T07:02:35Z</time>
      </trkpt>
      <trkpt lat="45.64523" lon="5.98273">
        <ele>1318.59</ele>
        <time>2012-06-24T07:02:49Z</time>
      </trkpt>
      <trkpt lat="45.64536" lon="5.98209">
        <ele>1321.95</ele>
        <time>2012-06-24T07:03:02Z</time>
      </trkpt>
      <trkpt lat="45.64544" lon="5.98138">
        <ele>1325.31</ele>
        <time>2012-06-24T07:03:16Z</time>
      </trkpt>
      <trkpt lat="45.64561" lon="5.98078">
        <ele>1328.2</ele>
        <time>2012-06-24T07:03:30Z</time>
      </trkpt>
      <trkpt lat="45.64588" lon="5.98095">
        <ele>1330.6</ele>
        <time>2012-06-24T07:03:40Z</time>
      </trkpt>
      <trkpt lat="45.64621" lon="5.98142">
        <ele>1333.49</ele>
        <time>2012-06-24T07:03:53Z</time>
      </trkpt>
      <trkpt lat="45.64664" lon="5.9814">
        <ele>1336.85</ele>
        <time>2012-06-24T07:04:05Z</time>
      </trkpt>
      <trkpt lat="45.64707" lon="5.98128">
        <ele>1339.73</ele>
        <time>2012-06-24T07:04:19Z</time>
      </trkpt>
      <trkpt lat="45.64746" lon="5.98116">
        <ele>1343.1</ele>
        <time>2012-06-24T07:04:32Z</time>
      </trkpt>
      <trkpt lat="45.64793" lon="5.98106">
        <ele>1345.5</ele>
        <time>2012-06-24T07:04:47Z</time>
      </trkpt>
      <trkpt lat="45.648" lon="5.98108">
        <ele>1345.98</ele>
        <time>2012-06-24T07:04:49Z</time>
      </trkpt>
      <trkpt lat="45.64811" lon="5.98117">
        <ele>1345.5</ele>
        <time>2012-06-24T07:04:52Z</time>
      </trkpt>
      <trkpt lat="45.64815" lon="5.98122">
        <ele>1345.5</ele>
        <time>2012-06-24T07:04:53Z</time>
      </trkpt>
      <trkpt lat="45.64823" lon="5.98133">
        <ele>1345.5</ele>
        <time>2012-06-24T07:04:55Z</time>
      </trkpt>
      <trkpt lat="45.64826" lon="5.98139">
        <ele>1345.5</ele>
        <time>2012-06-24T07:04:56Z</time>
      </trkpt>
      <trkpt lat="45.6483" lon="5.98146">
        <ele>1345.02</ele>
        <time>2012-06-24T07:04:57Z</time>
      </trkpt>
      <trkpt lat="45.64833" lon="5.98154">
        <ele>1345.02</ele>
        <time>2012-06-24T07:04:58Z</time>
      </trkpt>
      <trkpt lat="45.64836" lon="5.98163">
        <ele>1344.06</ele>
        <time>2012-06-24T07:04:59Z</time>
      </trkpt>
      <trkpt lat="45.64839" lon="5.98173">
        <ele>1344.06</ele>
        <time>2012-06-24T07:05:00Z</time>
      </trkpt>
      <trkpt lat="45.64851" lon="5.98216">
        <ele>1342.14</ele>
        <time>2012-06-24T07:05:04Z</time>
      </trkpt>
      <trkpt lat="45.64856" lon="5.98226">
        <ele>1340.7</ele>
        <time>2012-06-24T07:05:05Z</time>
      </trkpt>
      <trkpt lat="45.64862" lon="5.98236">
        <ele>1340.7</ele>
        <time>2012-06-24T07:05:06Z</time>
      </trkpt>
      <trkpt lat="45.64879" lon="5.98262">
        <ele>1341.18</ele>
        <time>2012-06-24T07:05:09Z</time>
      </trkpt>
      <trkpt lat="45.64894" lon="5.98287">
        <ele>1339.73</ele>
        <time>2012-06-24T07:05:12Z</time>
      </trkpt>
      <trkpt lat="45.64897" lon="5.98296">
        <ele>1339.73</ele>
        <time>2012-06-24T07:05:13Z</time>
      </trkpt>
      <trkpt lat="45.649" lon="5.98305">
        <ele>1340.22</ele>
        <time>2012-06-24T07:05:14Z</time>
      </trkpt>
      <trkpt lat="45.64906" lon="5.98331">
        <ele>1338.77</ele>
        <time>2012-06-24T07:05:17Z</time>
      </trkpt>
      <trkpt lat="45.64909" lon="5.98339">
        <ele>1338.29</ele>
        <time>2012-06-24T07:05:18Z</time>
      </trkpt>
      <trkpt lat="45.64911" lon="5.98348">
        <ele>1338.77</ele>
        <time>2012-06-24T07:05:19Z</time>
      </trkpt>
      <trkpt lat="45.64915" lon="5.98356">
        <ele>1337.33</ele>
        <time>2012-06-24T07:05:20Z</time>
      </trkpt>
      <trkpt lat="45.64919" lon="5.98364">
        <ele>1337.33</ele>
        <time>2012-06-24T07:05:21Z</time>
      </trkpt>
      <trkpt lat="45.64927" lon="5.98379">
        <ele>1335.89</ele>
        <time>2012-06-24T07:05:23Z</time>
      </trkpt>
      <trkpt lat="45.64945" lon="5.98408">
        <ele>1334.93</ele>
        <time>2012-06-24T07:05:27Z</time>
      </trkpt>
      <trkpt lat="45.64948" lon="5.98416">
        <ele>1334.45</ele>
        <time>2012-06-24T07:05:28Z</time>
      </trkpt>
      <trkpt lat="45.6495" lon="5.98423">
        <ele>1334.93</ele>
        <time>2012-06-24T07:05:29Z</time>
      </trkpt>
      <trkpt lat="45.64953" lon="5.98429">
        <ele>1334.45</ele>
        <time>2012-06-24T07:05:30Z</time>
      </trkpt>
      <trkpt lat="45.64956" lon="5.98435">
        <ele>1333.49</ele>
        <time>2012-06-24T07:05:31Z</time>
      </trkpt>
      <trkpt lat="45.64959" lon="5.9844">
        <ele>1333.01</ele>
        <time>2012-06-24T07:05:32Z</time>
      </trkpt>
      <trkpt lat="45.64972" lon="5.98459">
        <ele>1333.49</ele>
        <time>2012-06-24T07:05:36Z</time>
      </trkpt>
      <trkpt lat="45.64975" lon="5.98463">
        <ele>1333.01</ele>
        <time>2012-06-24T07:05:37Z</time>
      </trkpt>
      <trkpt lat="45.65011" lon="5.98504">
        <ele>1332.04</ele>
        <time>2012-06-24T07:05:48Z</time>
      </trkpt>
      <trkpt lat="45.65015" lon="5.98504">
        <ele>1332.52</ele>
        <time>2012-06-24T07:05:49Z</time>
      </trkpt>
      <trkpt lat="45.65019" lon="5.98504">
        <ele>1332.52</ele>
        <time>2012-06-24T07:05:50Z</time>
      </trkpt>
      <trkpt lat="45.65023" lon="5.98502">
        <ele>1332.04</ele>
        <time>2012-06-24T07:05:51Z</time>
      </trkpt>
      <trkpt lat="45.65027" lon="5.98501">
        <ele>1332.04</ele>
        <time>2012-06-24T07:05:52Z</time>
      </trkpt>
      <trkpt lat="45.65049" lon="5.98507">
        <ele>1333.49</ele>
        <time>2012-06-24T07:05:58Z</time>
      </trkpt>
      <trkpt lat="45.65052" lon="5.9851">
        <ele>1333.49</ele>
        <time>2012-06-24T07:05:59Z</time>
      </trkpt>
      <trkpt lat="45.65056" lon="5.98515">
        <ele>1332.52</ele>
        <time>2012-06-24T07:06:00Z</time>
      </trkpt>
      <trkpt lat="45.65059" lon="5.9852">
        <ele>1332.52</ele>
        <time>2012-06-24T07:06:01Z</time>
      </trkpt>
      <trkpt lat="45.65061" lon="5.98525">
        <ele>1333.01</ele>
        <time>2012-06-24T07:06:02Z</time>
      </trkpt>
      <trkpt lat="45.65093" lon="5.98589">
        <ele>1334.93</ele>
        <time>2012-06-24T07:06:17Z</time>
      </trkpt>
      <trkpt lat="45.65096" lon="5.98593">
        <ele>1335.41</ele>
        <time>2012-06-24T07:06:18Z</time>
      </trkpt>
      <trkpt lat="45.65099" lon="5.98597">
        <ele>1334.93</ele>
        <time>2012-06-24T07:06:19Z</time>
      </trkpt>
      <trkpt lat="45.6511" lon="5.98609">
        <ele>1334.45</ele>
        <time>2012-06-24T07:06:22Z</time>
      </trkpt>
      <trkpt lat="45.65115" lon="5.98613">
        <ele>1333.49</ele>
        <time>2012-06-24T07:06:23Z</time>
      </trkpt>
      <trkpt lat="45.65121" lon="5.98616">
        <ele>1333.97</ele>
        <time>2012-06-24T07:06:24Z</time>
      </trkpt>
      <trkpt lat="45.65142" lon="5.98627">
        <ele>1332.52</ele>
        <time>2012-06-24T07:06:28Z</time>
      </trkpt>
      <trkpt lat="45.65152" lon="5.98636">
        <ele>1332.52</ele>
        <time>2012-06-24T07:06:30Z</time>
      </trkpt>
      <trkpt lat="45.65156" lon="5.98641">
        <ele>1333.49</ele>
        <time>2012-06-24T07:06:31Z</time>
      </trkpt>
      <trkpt lat="45.65159" lon="5.98646">
        <ele>1333.49</ele>
        <time>2012-06-24T07:06:32Z</time>
      </trkpt>
      <trkpt lat="45.65173" lon="5.98672">
        <ele>1332.04</ele>
        <time>2012-06-24T07:06:36Z</time>
      </trkpt>
      <trkpt lat="45.65176" lon="5.9868">
        <ele>1332.04</ele>
        <time>2012-06-24T07:06:37Z</time>
      </trkpt>
      <trkpt lat="45.65182" lon="5.98704">
        <ele>1331.56</ele>
        <time>2012-06-24T07:06:40Z</time>
      </trkpt>
      <trkpt lat="45.65185" lon="5.98732">
        <ele>1331.56</ele>
        <time>2012-06-24T07:06:44Z</time>
      </trkpt>
      <trkpt lat="45.65187" lon="5.98745">
        <ele>1330.6</ele>
        <time>2012-06-24T07:06:46Z</time>
      </trkpt>
      <trkpt lat="45.65191" lon="5.98774">
        <ele>1330.12</ele>
        <time>2012-06-24T07:06:50Z</time>
      </trkpt>
      <trkpt lat="45.65194" lon="5.98781">
        <ele>1330.12</ele>
        <time>2012-06-24T07:06:51Z</time>
      </trkpt>
      <trkpt lat="45.65197" lon="5.98787">
        <ele>1329.16</ele>
        <time>2012-06-24T07:06:52Z</time>
      </trkpt>
      <trkpt lat="45.65201" lon="5.98792">
        <ele>1329.16</ele>
        <time>2012-06-24T07:06:53Z</time>
      </trkpt>
      <trkpt lat="45.65206" lon="5.98797">
        <ele>1329.64</ele>
        <time>2012-06-24T07:06:54Z</time>
      </trkpt>
      <trkpt lat="45.65225" lon="5.98818">
        <ele>1329.16</ele>
        <time>2012-06-24T07:06:58Z</time>
      </trkpt>
      <trkpt lat="45.65227" lon="5.98824">
        <ele>1329.16</ele>
        <time>2012-06-24T07:06:59Z</time>
      </trkpt>
      <trkpt lat="45.65228" lon="5.98831">
        <ele>1329.16</ele>
        <time>2012-06-24T07:07:00Z</time>
      </trkpt>
      <trkpt lat="45.65229" lon="5.98838">
        <ele>1329.64</ele>
        <time>2012-06-24T07:07:01Z</time>
      </trkpt>
      <trkpt lat="45.65229" lon="5.98845">
        <ele>1329.16</ele>
        <time>2012-06-24T07:07:02Z</time>
      </trkpt>
      <trkpt lat="45.65228" lon="5.98852">
        <ele>1329.16</ele>
        <time>2012-06-24T07:07:03Z</time>
      </trkpt>
      <trkpt lat="45.65228" lon="5.98859">
        <ele>1329.16</ele>
        <time>2012-06-24T07:07:04Z</time>
      </trkpt>
      <trkpt lat="45.65226" lon="5.98873">
        <ele>1329.64</ele>
        <time>2012-06-24T07:07:06Z</time>
      </trkpt>
      <trkpt lat="45.65218" lon="5.98933">
        <ele>1329.64</ele>
        <time>2012-06-24T07:07:16Z</time>
      </trkpt>
      <trkpt lat="45.65221" lon="5.98938">
        <ele>1329.64</ele>
        <time>2012-06-24T07:07:17Z</time>
      </trkpt>
      <trkpt lat="45.65224" lon="5.98941">
        <ele>1329.64</ele>
        <time>2012-06-24T07:07:18Z</time>
      </trkpt>
      <trkpt lat="45.65228" lon="5.98943">
        <ele>1330.6</ele>
        <time>2012-06-24T07:07:19Z</time>
      </trkpt>
      <trkpt lat="45.65231" lon="5.98946">
        <ele>1330.6</ele>
        <time>2012-06-24T07:07:20Z</time>
      </trkpt>
      <trkpt lat="45.65234" lon="5.98949">
        <ele>1331.08</ele>
        <time>2012-06-24T07:07:21Z</time>
      </trkpt>
      <trkpt lat="45.65267" lon="5.98999">
        <ele>1331.56</ele>
        <time>2012-06-24T07:07:33Z</time>
      </trkpt>
      <trkpt lat="45.65269" lon="5.99007">
        <ele>1331.08</ele>
        <time>2012-06-24T07:07:34Z</time>
      </trkpt>
      <trkpt lat="45.65292" lon="5.99061">
        <ele>1331.08</ele>
        <time>2012-06-24T07:07:41Z</time>
      </trkpt>
      <trkpt lat="45.653" lon="5.99072">
        <ele>1331.08</ele>
        <time>2012-06-24T07:07:43Z</time>
      </trkpt>
      <trkpt lat="45.65303" lon="5.99077">
        <ele>1331.56</ele>
        <time>2012-06-24T07:07:44Z</time>
      </trkpt>
      <trkpt lat="45.65337" lon="5.99104">
        <ele>1333.97</ele>
        <time>2012-06-24T07:07:55Z</time>
      </trkpt>
      <trkpt lat="45.65358" lon="5.99132">
        <ele>1336.85</ele>
        <time>2012-06-24T07:08:06Z</time>
      </trkpt>
      <trkpt lat="45.65371" lon="5.99201">
        <ele>1339.25</ele>
        <time>2012-06-24T07:08:23Z</time>
      </trkpt>
      <trkpt lat="45.65376" lon="5.99248">
        <ele>1340.7</ele>
        <time>2012-06-24T07:08:35Z</time>
      </trkpt>
      <trkpt lat="45.65379" lon="5.99266">
        <ele>1343.1</ele>
        <time>2012-06-24T07:08:41Z</time>
      </trkpt>
      <trkpt lat="45.65378" lon="5.99269">
        <ele>1343.1</ele>
        <time>2012-06-24T07:08:42Z</time>
      </trkpt>
      <trkpt lat="45.65378" lon="5.99273">
        <ele>1343.58</ele>
        <time>2012-06-24T07:08:43Z</time>
      </trkpt>
      <trkpt lat="45.65378" lon="5.99276">
        <ele>1344.06</ele>
        <time>2012-06-24T07:08:44Z</time>
      </trkpt>
      <trkpt lat="45.65378" lon="5.9928">
        <ele>1344.06</ele>
        <time>2012-06-24T07:08:45Z</time>
      </trkpt>
      <trkpt lat="45.65378" lon="5.99283">
        <ele>1344.06</ele>
        <time>2012-06-24T07:08:46Z</time>
      </trkpt>
      <trkpt lat="45.65378" lon="5.99287">
        <ele>1344.54</ele>
        <time>2012-06-24T07:08:47Z</time>
      </trkpt>
      <trkpt lat="45.65385" lon="5.99347">
        <ele>1345.5</ele>
        <time>2012-06-24T07:09:04Z</time>
      </trkpt>
      <trkpt lat="45.65379" lon="5.99377">
        <ele>1348.39</ele>
        <time>2012-06-24T07:09:16Z</time>
      </trkpt>
      <trkpt lat="45.65356" lon="5.99407">
        <ele>1350.31</ele>
        <time>2012-06-24T07:09:30Z</time>
      </trkpt>
      <trkpt lat="45.65332" lon="5.99412">
        <ele>1351.27</ele>
        <time>2012-06-24T07:09:40Z</time>
      </trkpt>
      <trkpt lat="45.6531" lon="5.99456">
        <ele>1350.31</ele>
        <time>2012-06-24T07:09:52Z</time>
      </trkpt>
      <trkpt lat="45.65269" lon="5.99485">
        <ele>1350.31</ele>
        <time>2012-06-24T07:10:05Z</time>
      </trkpt>
      <trkpt lat="45.65247" lon="5.9949">
        <ele>1350.79</ele>
        <time>2012-06-24T07:10:10Z</time>
      </trkpt>
      <trkpt lat="45.65242" lon="5.99492">
        <ele>1350.31</ele>
        <time>2012-06-24T07:10:11Z</time>
      </trkpt>
      <trkpt lat="45.652" lon="5.99517">
        <ele>1348.87</ele>
        <time>2012-06-24T07:10:20Z</time>
      </trkpt>
      <trkpt lat="45.65196" lon="5.99519">
        <ele>1349.35</ele>
        <time>2012-06-24T07:10:21Z</time>
      </trkpt>
      <trkpt lat="45.65191" lon="5.99521">
        <ele>1348.87</ele>
        <time>2012-06-24T07:10:22Z</time>
      </trkpt>
      <trkpt lat="45.65172" lon="5.99526">
        <ele>1346.46</ele>
        <time>2012-06-24T07:10:25Z</time>
      </trkpt>
      <trkpt lat="45.65166" lon="5.9953">
        <ele>1345.98</ele>
        <time>2012-06-24T07:10:26Z</time>
      </trkpt>
      <trkpt lat="45.6516" lon="5.99536">
        <ele>1345.5</ele>
        <time>2012-06-24T07:10:27Z</time>
      </trkpt>
      <trkpt lat="45.65149" lon="5.99547">
        <ele>1344.54</ele>
        <time>2012-06-24T07:10:29Z</time>
      </trkpt>
      <trkpt lat="45.65135" lon="5.99565">
        <ele>1343.1</ele>
        <time>2012-06-24T07:10:32Z</time>
      </trkpt>
      <trkpt lat="45.65121" lon="5.9958">
        <ele>1341.18</ele>
        <time>2012-06-24T07:10:35Z</time>
      </trkpt>
      <trkpt lat="45.65112" lon="5.99587">
        <ele>1340.7</ele>
        <time>2012-06-24T07:10:37Z</time>
      </trkpt>
      <trkpt lat="45.65107" lon="5.99588">
        <ele>1340.7</ele>
        <time>2012-06-24T07:10:38Z</time>
      </trkpt>
      <trkpt lat="45.65096" lon="5.99591">
        <ele>1337.81</ele>
        <time>2012-06-24T07:10:40Z</time>
      </trkpt>
      <trkpt lat="45.65091" lon="5.99593">
        <ele>1337.33</ele>
        <time>2012-06-24T07:10:41Z</time>
      </trkpt>
      <trkpt lat="45.65086" lon="5.99595">
        <ele>1336.85</ele>
        <time>2012-06-24T07:10:42Z</time>
      </trkpt>
      <trkpt lat="45.65074" lon="5.99599">
        <ele>1334.93</ele>
        <time>2012-06-24T07:10:45Z</time>
      </trkpt>
      <trkpt lat="45.6507" lon="5.99597">
        <ele>1334.45</ele>
        <time>2012-06-24T07:10:46Z</time>
      </trkpt>
      <trkpt lat="45.65067" lon="5.99595">
        <ele>1333.49</ele>
        <time>2012-06-24T07:10:47Z</time>
      </trkpt>
      <trkpt lat="45.65064" lon="5.99592">
        <ele>1333.01</ele>
        <time>2012-06-24T07:10:48Z</time>
      </trkpt>
      <trkpt lat="45.65061" lon="5.9959">
        <ele>1331.56</ele>
        <time>2012-06-24T07:10:49Z</time>
      </trkpt>
      <trkpt lat="45.65057" lon="5.99586">
        <ele>1331.08</ele>
        <time>2012-06-24T07:10:50Z</time>
      </trkpt>
      <trkpt lat="45.65053" lon="5.99584">
        <ele>1331.08</ele>
        <time>2012-06-24T07:10:51Z</time>
      </trkpt>
      <trkpt lat="45.65048" lon="5.99582">
        <ele>1329.64</ele>
        <time>2012-06-24T07:10:52Z</time>
      </trkpt>
      <trkpt lat="45.65043" lon="5.99582">
        <ele>1329.64</ele>
        <time>2012-06-24T07:10:53Z</time>
      </trkpt>
      <trkpt lat="45.65038" lon="5.99583">
        <ele>1329.16</ele>
        <time>2012-06-24T07:10:54Z</time>
      </trkpt>
      <trkpt lat="45.65034" lon="5.99584">
        <ele>1328.68</ele>
        <time>2012-06-24T07:10:55Z</time>
      </trkpt>
      <trkpt lat="45.65019" lon="5.99585">
        <ele>1326.28</ele>
        <time>2012-06-24T07:10:58Z</time>
      </trkpt>
      <trkpt lat="45.65014" lon="5.99586">
        <ele>1325.31</ele>
        <time>2012-06-24T07:10:59Z</time>
      </trkpt>
      <trkpt lat="45.65009" lon="5.99586">
        <ele>1325.31</ele>
        <time>2012-06-24T07:11:00Z</time>
      </trkpt>
      <trkpt lat="45.64992" lon="5.99585">
        <ele>1321.95</ele>
        <time>2012-06-24T07:11:03Z</time>
      </trkpt>
      <trkpt lat="45.64988" lon="5.99585">
        <ele>1321.95</ele>
        <time>2012-06-24T07:11:04Z</time>
      </trkpt>
      <trkpt lat="45.6498" lon="5.99582">
        <ele>1320.03</ele>
        <time>2012-06-24T07:11:06Z</time>
      </trkpt>
      <trkpt lat="45.64955" lon="5.9957">
        <ele>1316.66</ele>
        <time>2012-06-24T07:11:11Z</time>
      </trkpt>
      <trkpt lat="45.64951" lon="5.9957">
        <ele>1315.7</ele>
        <time>2012-06-24T07:11:12Z</time>
      </trkpt>
      <trkpt lat="45.64946" lon="5.99569">
        <ele>1316.18</ele>
        <time>2012-06-24T07:11:13Z</time>
      </trkpt>
      <trkpt lat="45.64939" lon="5.99576">
        <ele>1315.7</ele>
        <time>2012-06-24T07:11:18Z</time>
      </trkpt>
      <trkpt lat="45.64938" lon="5.99578">
        <ele>1315.22</ele>
        <time>2012-06-24T07:11:19Z</time>
      </trkpt>
      <trkpt lat="45.64937" lon="5.99581">
        <ele>1314.74</ele>
        <time>2012-06-24T07:11:20Z</time>
      </trkpt>
      <trkpt lat="45.64935" lon="5.99584">
        <ele>1313.78</ele>
        <time>2012-06-24T07:11:21Z</time>
      </trkpt>
      <trkpt lat="45.64934" lon="5.99591">
        <ele>1313.78</ele>
        <time>2012-06-24T07:11:22Z</time>
      </trkpt>
      <trkpt lat="45.64933" lon="5.99598">
        <ele>1313.3</ele>
        <time>2012-06-24T07:11:23Z</time>
      </trkpt>
      <trkpt lat="45.64933" lon="5.99603">
        <ele>1313.3</ele>
        <time>2012-06-24T07:11:24Z</time>
      </trkpt>
      <trkpt lat="45.64931" lon="5.99613">
        <ele>1314.26</ele>
        <time>2012-06-24T07:11:26Z</time>
      </trkpt>
      <trkpt lat="45.64929" lon="5.99616">
        <ele>1313.78</ele>
        <time>2012-06-24T07:11:27Z</time>
      </trkpt>
      <trkpt lat="45.64927" lon="5.99619">
        <ele>1312.82</ele>
        <time>2012-06-24T07:11:28Z</time>
      </trkpt>
      <trkpt lat="45.64925" lon="5.99621">
        <ele>1312.34</ele>
        <time>2012-06-24T07:11:29Z</time>
      </trkpt>
      <trkpt lat="45.64914" lon="5.99636">
        <ele>1308.97</ele>
        <time>2012-06-24T07:11:34Z</time>
      </trkpt>
      <trkpt lat="45.64911" lon="5.99641">
        <ele>1308.01</ele>
        <time>2012-06-24T07:11:35Z</time>
      </trkpt>
      <trkpt lat="45.64908" lon="5.99647">
        <ele>1307.05</ele>
        <time>2012-06-24T07:11:36Z</time>
      </trkpt>
      <trkpt lat="45.64905" lon="5.99653">
        <ele>1306.57</ele>
        <time>2012-06-24T07:11:37Z</time>
      </trkpt>
      <trkpt lat="45.64897" lon="5.99664">
        <ele>1306.09</ele>
        <time>2012-06-24T07:11:39Z</time>
      </trkpt>
      <trkpt lat="45.64888" lon="5.99672">
        <ele>1306.09</ele>
        <time>2012-06-24T07:11:41Z</time>
      </trkpt>
      <trkpt lat="45.64884" lon="5.99676">
        <ele>1305.61</ele>
        <time>2012-06-24T07:11:42Z</time>
      </trkpt>
      <trkpt lat="45.6488" lon="5.99679">
        <ele>1304.65</ele>
        <time>2012-06-24T07:11:43Z</time>
      </trkpt>
      <trkpt lat="45.64876" lon="5.99683">
        <ele>1305.13</ele>
        <time>2012-06-24T07:11:44Z</time>
      </trkpt>
      <trkpt lat="45.64872" lon="5.99687">
        <ele>1304.65</ele>
        <time>2012-06-24T07:11:45Z</time>
      </trkpt>
      <trkpt lat="45.64868" lon="5.99691">
        <ele>1304.17</ele>
        <time>2012-06-24T07:11:46Z</time>
      </trkpt>
      <trkpt lat="45.64864" lon="5.99697">
        <ele>1304.65</ele>
        <time>2012-06-24T07:11:47Z</time>
      </trkpt>
      <trkpt lat="45.6486" lon="5.99703">
        <ele>1305.13</ele>
        <time>2012-06-24T07:11:48Z</time>
      </trkpt>
      <trkpt lat="45.64845" lon="5.99725">
        <ele>1304.17</ele>
        <time>2012-06-24T07:11:53Z</time>
      </trkpt>
      <trkpt lat="45.64843" lon="5.9973">
        <ele>1304.17</ele>
        <time>2012-06-24T07:11:54Z</time>
      </trkpt>
      <trkpt lat="45.64842" lon="5.99737">
        <ele>1303.2</ele>
        <time>2012-06-24T07:11:55Z</time>
      </trkpt>
      <trkpt lat="45.6484" lon="5.99743">
        <ele>1302.72</ele>
        <time>2012-06-24T07:11:56Z</time>
      </trkpt>
      <trkpt lat="45.64839" lon="5.99749">
        <ele>1302.24</ele>
        <time>2012-06-24T07:11:57Z</time>
      </trkpt>
      <trkpt lat="45.64837" lon="5.99754">
        <ele>1301.76</ele>
        <time>2012-06-24T07:11:58Z</time>
      </trkpt>
      <trkpt lat="45.64829" lon="5.99775">
        <ele>1298.88</ele>
        <time>2012-06-24T07:12:04Z</time>
      </trkpt>
      <trkpt lat="45.64824" lon="5.99784">
        <ele>1297.92</ele>
        <time>2012-06-24T07:12:07Z</time>
      </trkpt>
      <trkpt lat="45.64822" lon="5.99788">
        <ele>1297.92</ele>
        <time>2012-06-24T07:12:08Z</time>
      </trkpt>
      <trkpt lat="45.6482" lon="5.99792">
        <ele>1297.92</ele>
        <time>2012-06-24T07:12:09Z</time>
      </trkpt>
      <trkpt lat="45.64819" lon="5.99796">
        <ele>1297.44</ele>
        <time>2012-06-24T07:12:10Z</time>
      </trkpt>
      <trkpt lat="45.64819" lon="5.99801">
        <ele>1296.48</ele>
        <time>2012-06-24T07:12:11Z</time>
      </trkpt>
      <trkpt lat="45.64818" lon="5.99805">
        <ele>1296.48</ele>
        <time>2012-06-24T07:12:12Z</time>
      </trkpt>
      <trkpt lat="45.64815" lon="5.99824">
        <ele>1295.99</ele>
        <time>2012-06-24T07:12:17Z</time>
      </trkpt>
      <trkpt lat="45.64815" lon="5.99828">
        <ele>1295.03</ele>
        <time>2012-06-24T07:12:18Z</time>
      </trkpt>
      <trkpt lat="45.64813" lon="5.99837">
        <ele>1293.59</ele>
        <time>2012-06-24T07:12:22Z</time>
      </trkpt>
      <trkpt lat="45.64785" lon="5.9987">
        <ele>1290.23</ele>
        <time>2012-06-24T07:12:32Z</time>
      </trkpt>
      <trkpt lat="45.64785" lon="5.99876">
        <ele>1290.23</ele>
        <time>2012-06-24T07:12:33Z</time>
      </trkpt>
      <trkpt lat="45.64785" lon="5.99882">
        <ele>1289.75</ele>
        <time>2012-06-24T07:12:34Z</time>
      </trkpt>
      <trkpt lat="45.64785" lon="5.99887">
        <ele>1288.78</ele>
        <time>2012-06-24T07:12:35Z</time>
      </trkpt>
      <trkpt lat="45.64784" lon="5.99892">
        <ele>1289.75</ele>
        <time>2012-06-24T07:12:36Z</time>
      </trkpt>
      <trkpt lat="45.64784" lon="5.99897">
        <ele>1290.23</ele>
        <time>2012-06-24T07:12:37Z</time>
      </trkpt>
      <trkpt lat="45.64783" lon="5.99904">
        <ele>1289.27</ele>
        <time>2012-06-24T07:12:38Z</time>
      </trkpt>
      <trkpt lat="45.64784" lon="5.99909">
        <ele>1289.27</ele>
        <time>2012-06-24T07:12:39Z</time>
      </trkpt>
      <trkpt lat="45.64784" lon="5.99915">
        <ele>1289.27</ele>
        <time>2012-06-24T07:12:40Z</time>
      </trkpt>
      <trkpt lat="45.64784" lon="5.99925">
        <ele>1289.27</ele>
        <time>2012-06-24T07:12:42Z</time>
      </trkpt>
      <trkpt lat="45.64783" lon="5.99932">
        <ele>1287.82</ele>
        <time>2012-06-24T07:12:43Z</time>
      </trkpt>
      <trkpt lat="45.64783" lon="5.99937">
        <ele>1287.82</ele>
        <time>2012-06-24T07:12:44Z</time>
      </trkpt>
      <trkpt lat="45.64783" lon="5.99941">
        <ele>1287.34</ele>
        <time>2012-06-24T07:12:45Z</time>
      </trkpt>
      <trkpt lat="45.64783" lon="5.99946">
        <ele>1287.34</ele>
        <time>2012-06-24T07:12:46Z</time>
      </trkpt>
      <trkpt lat="45.64783" lon="5.99952">
        <ele>1287.34</ele>
        <time>2012-06-24T07:12:47Z</time>
      </trkpt>
      <trkpt lat="45.64785" lon="5.99958">
        <ele>1286.86</ele>
        <time>2012-06-24T07:12:48Z</time>
      </trkpt>
      <trkpt lat="45.64787" lon="5.99965">
        <ele>1287.34</ele>
        <time>2012-06-24T07:12:49Z</time>
      </trkpt>
      <trkpt lat="45.64791" lon="5.99998">
        <ele>1284.94</ele>
        <time>2012-06-24T07:12:55Z</time>
      </trkpt>
      <trkpt lat="45.64785" lon="6.00039">
        <ele>1282.54</ele>
        <time>2012-06-24T07:13:06Z</time>
      </trkpt>
      <trkpt lat="45.64784" lon="6.00053">
        <ele>1282.06</ele>
        <time>2012-06-24T07:13:11Z</time>
      </trkpt>
      <trkpt lat="45.64806" lon="6.00074">
        <ele>1284.94</ele>
        <time>2012-06-24T07:13:25Z</time>
      </trkpt>
      <trkpt lat="45.64837" lon="6.00079">
        <ele>1288.3</ele>
        <time>2012-06-24T07:13:39Z</time>
      </trkpt>
      <trkpt lat="45.64854" lon="6.00085">
        <ele>1290.23</ele>
        <time>2012-06-24T07:13:49Z</time>
      </trkpt>
      <trkpt lat="45.64843" lon="6.00116">
        <ele>1287.82</ele>
        <time>2012-06-24T07:14:03Z</time>
      </trkpt>
      <trkpt lat="45.6484" lon="6.0012">
        <ele>1287.82</ele>
        <time>2012-06-24T07:14:04Z</time>
      </trkpt>
      <trkpt lat="45.64831" lon="6.00156">
        <ele>1283.98</ele>
        <time>2012-06-24T07:14:12Z</time>
      </trkpt>
      <trkpt lat="45.64822" lon="6.00179">
        <ele>1280.13</ele>
        <time>2012-06-24T07:14:17Z</time>
      </trkpt>
      <trkpt lat="45.64821" lon="6.00185">
        <ele>1280.61</ele>
        <time>2012-06-24T07:14:18Z</time>
      </trkpt>
      <trkpt lat="45.6482" lon="6.00218">
        <ele>1277.25</ele>
        <time>2012-06-24T07:14:24Z</time>
      </trkpt>
      <trkpt lat="45.64818" lon="6.00229">
        <ele>1275.81</ele>
        <time>2012-06-24T07:14:26Z</time>
      </trkpt>
      <trkpt lat="45.64814" lon="6.00249">
        <ele>1272.44</ele>
        <time>2012-06-24T07:14:29Z</time>
      </trkpt>
      <trkpt lat="45.64812" lon="6.00304">
        <ele>1269.08</ele>
        <time>2012-06-24T07:14:37Z</time>
      </trkpt>
      <trkpt lat="45.64808" lon="6.00318">
        <ele>1264.75</ele>
        <time>2012-06-24T07:14:40Z</time>
      </trkpt>
      <trkpt lat="45.64796" lon="6.00329">
        <ele>1261.39</ele>
        <time>2012-06-24T07:14:43Z</time>
      </trkpt>
      <trkpt lat="45.64775" lon="6.00338">
        <ele>1258.5</ele>
        <time>2012-06-24T07:14:47Z</time>
      </trkpt>
      <trkpt lat="45.64764" lon="6.00343">
        <ele>1255.62</ele>
        <time>2012-06-24T07:14:50Z</time>
      </trkpt>
      <trkpt lat="45.6475" lon="6.00349">
        <ele>1254.18</ele>
        <time>2012-06-24T07:14:53Z</time>
      </trkpt>
      <trkpt lat="45.64741" lon="6.00366">
        <ele>1251.77</ele>
        <time>2012-06-24T07:14:56Z</time>
      </trkpt>
      <trkpt lat="45.64759" lon="6.00436">
        <ele>1249.37</ele>
        <time>2012-06-24T07:15:08Z</time>
      </trkpt>
      <trkpt lat="45.648" lon="6.00478">
        <ele>1250.33</ele>
        <time>2012-06-24T07:15:22Z</time>
      </trkpt>
      <trkpt lat="45.64816" lon="6.00498">
        <ele>1246.97</ele>
        <time>2012-06-24T07:15:29Z</time>
      </trkpt>
      <trkpt lat="45.64819" lon="6.00509">
        <ele>1246.49</ele>
        <time>2012-06-24T07:15:31Z</time>
      </trkpt>
      <trkpt lat="45.64829" lon="6.00556">
        <ele>1242.16</ele>
        <time>2012-06-24T07:15:39Z</time>
      </trkpt>
      <trkpt lat="45.64832" lon="6.00578">
        <ele>1239.28</ele>
        <time>2012-06-24T07:15:43Z</time>
      </trkpt>
      <trkpt lat="45.64846" lon="6.00592">
        <ele>1240.24</ele>
        <time>2012-06-24T07:15:55Z</time>
      </trkpt>
      <trkpt lat="45.64852" lon="6.00587">
        <ele>1241.2</ele>
        <time>2012-06-24T07:15:59Z</time>
      </trkpt>
      <trkpt lat="45.64872" lon="6.00566">
        <ele>1243.12</ele>
        <time>2012-06-24T07:16:12Z</time>
      </trkpt>
      <trkpt lat="45.64896" lon="6.00549">
        <ele>1244.08</ele>
        <time>2012-06-24T07:16:26Z</time>
      </trkpt>
      <trkpt lat="45.6492" lon="6.0056">
        <ele>1245.04</ele>
        <time>2012-06-24T07:16:35Z</time>
      </trkpt>
      <trkpt lat="45.64922" lon="6.00563">
        <ele>1245.53</ele>
        <time>2012-06-24T07:16:37Z</time>
      </trkpt>
      <trkpt lat="45.64919" lon="6.00583">
        <ele>1246.01</ele>
        <time>2012-06-24T07:16:43Z</time>
      </trkpt>
      <trkpt lat="45.64927" lon="6.00643">
        <ele>1245.04</ele>
        <time>2012-06-24T07:16:55Z</time>
      </trkpt>
      <trkpt lat="45.64946" lon="6.00669">
        <ele>1244.56</ele>
        <time>2012-06-24T07:17:05Z</time>
      </trkpt>
      <trkpt lat="45.64979" lon="6.0072">
        <ele>1245.04</ele>
        <time>2012-06-24T07:17:20Z</time>
      </trkpt>
      <trkpt lat="45.65011" lon="6.00759">
        <ele>1246.01</ele>
        <time>2012-06-24T07:17:33Z</time>
      </trkpt>
      <trkpt lat="45.65039" lon="6.00807">
        <ele>1246.01</ele>
        <time>2012-06-24T07:17:46Z</time>
      </trkpt>
      <trkpt lat="45.65059" lon="6.00843">
        <ele>1246.01</ele>
        <time>2012-06-24T07:17:57Z</time>
      </trkpt>
      <trkpt lat="45.65082" lon="6.00877">
        <ele>1248.89</ele>
        <time>2012-06-24T07:18:09Z</time>
      </trkpt>
      <trkpt lat="45.651" lon="6.00927">
        <ele>1247.45</ele>
        <time>2012-06-24T07:18:21Z</time>
      </trkpt>
      <trkpt lat="45.65114" lon="6.00985">
        <ele>1248.89</ele>
        <time>2012-06-24T07:18:32Z</time>
      </trkpt>
      <trkpt lat="45.65097" lon="6.01014">
        <ele>1245.04</ele>
        <time>2012-06-24T07:18:38Z</time>
      </trkpt>
      <trkpt lat="45.65061" lon="6.01051">
        <ele>1241.68</ele>
        <time>2012-06-24T07:18:45Z</time>
      </trkpt>
      <trkpt lat="45.65052" lon="6.01062">
        <ele>1240.72</ele>
        <time>2012-06-24T07:18:47Z</time>
      </trkpt>
      <trkpt lat="45.65039" lon="6.01081">
        <ele>1237.35</ele>
        <time>2012-06-24T07:18:50Z</time>
      </trkpt>
      <trkpt lat="45.65033" lon="6.01095">
        <ele>1235.91</ele>
        <time>2012-06-24T07:18:52Z</time>
      </trkpt>
      <trkpt lat="45.65028" lon="6.0111">
        <ele>1233.51</ele>
        <time>2012-06-24T07:18:54Z</time>
      </trkpt>
      <trkpt lat="45.6502" lon="6.01126">
        <ele>1232.07</ele>
        <time>2012-06-24T07:18:56Z</time>
      </trkpt>
      <trkpt lat="45.65013" lon="6.01143">
        <ele>1230.14</ele>
        <time>2012-06-24T07:18:58Z</time>
      </trkpt>
      <trkpt lat="45.65" lon="6.01167">
        <ele>1225.82</ele>
        <time>2012-06-24T07:19:01Z</time>
      </trkpt>
      <trkpt lat="45.64997" lon="6.01173">
        <ele>1225.82</ele>
        <time>2012-06-24T07:19:02Z</time>
      </trkpt>
      <trkpt lat="45.65004" lon="6.01207">
        <ele>1224.38</ele>
        <time>2012-06-24T07:19:07Z</time>
      </trkpt>
      <trkpt lat="45.65013" lon="6.01216">
        <ele>1224.38</ele>
        <time>2012-06-24T07:19:09Z</time>
      </trkpt>
      <trkpt lat="45.65028" lon="6.0123">
        <ele>1224.86</ele>
        <time>2012-06-24T07:19:13Z</time>
      </trkpt>
      <trkpt lat="45.65033" lon="6.01267">
        <ele>1226.3</ele>
        <time>2012-06-24T07:19:20Z</time>
      </trkpt>
      <trkpt lat="45.65038" lon="6.01283">
        <ele>1225.82</ele>
        <time>2012-06-24T07:19:23Z</time>
      </trkpt>
      <trkpt lat="45.6504" lon="6.01289">
        <ele>1225.82</ele>
        <time>2012-06-24T07:19:24Z</time>
      </trkpt>
      <trkpt lat="45.65042" lon="6.01296">
        <ele>1224.38</ele>
        <time>2012-06-24T07:19:25Z</time>
      </trkpt>
      <trkpt lat="45.65044" lon="6.01304">
        <ele>1223.42</ele>
        <time>2012-06-24T07:19:26Z</time>
      </trkpt>
      <trkpt lat="45.65048" lon="6.01334">
        <ele>1222.45</ele>
        <time>2012-06-24T07:19:29Z</time>
      </trkpt>
      <trkpt lat="45.65054" lon="6.01355">
        <ele>1223.42</ele>
        <time>2012-06-24T07:19:32Z</time>
      </trkpt>
      <trkpt lat="45.6506" lon="6.01364">
        <ele>1223.42</ele>
        <time>2012-06-24T07:19:34Z</time>
      </trkpt>
      <trkpt lat="45.65064" lon="6.01368">
        <ele>1223.42</ele>
        <time>2012-06-24T07:19:35Z</time>
      </trkpt>
      <trkpt lat="45.65068" lon="6.01371">
        <ele>1222.93</ele>
        <time>2012-06-24T07:19:36Z</time>
      </trkpt>
      <trkpt lat="45.65072" lon="6.01375">
        <ele>1223.42</ele>
        <time>2012-06-24T07:19:37Z</time>
      </trkpt>
      <trkpt lat="45.65076" lon="6.01378">
        <ele>1223.9</ele>
        <time>2012-06-24T07:19:38Z</time>
      </trkpt>
      <trkpt lat="45.65099" lon="6.01401">
        <ele>1222.93</ele>
        <time>2012-06-24T07:19:44Z</time>
      </trkpt>
      <trkpt lat="45.65102" lon="6.01406">
        <ele>1223.9</ele>
        <time>2012-06-24T07:19:45Z</time>
      </trkpt>
      <trkpt lat="45.65105" lon="6.01411">
        <ele>1223.9</ele>
        <time>2012-06-24T07:19:46Z</time>
      </trkpt>
      <trkpt lat="45.65107" lon="6.01417">
        <ele>1223.42</ele>
        <time>2012-06-24T07:19:47Z</time>
      </trkpt>
      <trkpt lat="45.65109" lon="6.01422">
        <ele>1223.9</ele>
        <time>2012-06-24T07:19:48Z</time>
      </trkpt>
      <trkpt lat="45.65113" lon="6.01427">
        <ele>1223.9</ele>
        <time>2012-06-24T07:19:49Z</time>
      </trkpt>
      <trkpt lat="45.65117" lon="6.01432">
        <ele>1223.42</ele>
        <time>2012-06-24T07:19:50Z</time>
      </trkpt>
      <trkpt lat="45.65122" lon="6.01437">
        <ele>1222.93</ele>
        <time>2012-06-24T07:19:51Z</time>
      </trkpt>
      <trkpt lat="45.65127" lon="6.01442">
        <ele>1221.49</ele>
        <time>2012-06-24T07:19:52Z</time>
      </trkpt>
      <trkpt lat="45.65133" lon="6.01448">
        <ele>1221.49</ele>
        <time>2012-06-24T07:19:53Z</time>
      </trkpt>
      <trkpt lat="45.65139" lon="6.01455">
        <ele>1221.49</ele>
        <time>2012-06-24T07:19:54Z</time>
      </trkpt>
      <trkpt lat="45.65144" lon="6.01462">
        <ele>1221.01</ele>
        <time>2012-06-24T07:19:55Z</time>
      </trkpt>
      <trkpt lat="45.65147" lon="6.01469">
        <ele>1221.01</ele>
        <time>2012-06-24T07:19:56Z</time>
      </trkpt>
      <trkpt lat="45.65151" lon="6.01477">
        <ele>1221.01</ele>
        <time>2012-06-24T07:19:57Z</time>
      </trkpt>
      <trkpt lat="45.65155" lon="6.01483">
        <ele>1220.53</ele>
        <time>2012-06-24T07:19:58Z</time>
      </trkpt>
      <trkpt lat="45.6516" lon="6.01488">
        <ele>1220.53</ele>
        <time>2012-06-24T07:19:59Z</time>
      </trkpt>
      <trkpt lat="45.65165" lon="6.01492">
        <ele>1220.05</ele>
        <time>2012-06-24T07:20:00Z</time>
      </trkpt>
      <trkpt lat="45.65182" lon="6.01504">
        <ele>1219.09</ele>
        <time>2012-06-24T07:20:03Z</time>
      </trkpt>
      <trkpt lat="45.65188" lon="6.0151">
        <ele>1219.57</ele>
        <time>2012-06-24T07:20:04Z</time>
      </trkpt>
      <trkpt lat="45.65192" lon="6.01516">
        <ele>1218.13</ele>
        <time>2012-06-24T07:20:05Z</time>
      </trkpt>
      <trkpt lat="45.65199" lon="6.01531">
        <ele>1218.13</ele>
        <time>2012-06-24T07:20:07Z</time>
      </trkpt>
      <trkpt lat="45.65202" lon="6.01539">
        <ele>1218.13</ele>
        <time>2012-06-24T07:20:08Z</time>
      </trkpt>
      <trkpt lat="45.65205" lon="6.01548">
        <ele>1218.13</ele>
        <time>2012-06-24T07:20:09Z</time>
      </trkpt>
      <trkpt lat="45.65205" lon="6.01557">
        <ele>1218.61</ele>
        <time>2012-06-24T07:20:10Z</time>
      </trkpt>
      <trkpt lat="45.65205" lon="6.01566">
        <ele>1218.13</ele>
        <time>2012-06-24T07:20:11Z</time>
      </trkpt>
      <trkpt lat="45.65206" lon="6.01574">
        <ele>1218.13</ele>
        <time>2012-06-24T07:20:12Z</time>
      </trkpt>
      <trkpt lat="45.65206" lon="6.01583">
        <ele>1217.65</ele>
        <time>2012-06-24T07:20:13Z</time>
      </trkpt>
      <trkpt lat="45.65206" lon="6.01601">
        <ele>1217.65</ele>
        <time>2012-06-24T07:20:15Z</time>
      </trkpt>
      <trkpt lat="45.65208" lon="6.0161">
        <ele>1217.17</ele>
        <time>2012-06-24T07:20:16Z</time>
      </trkpt>
      <trkpt lat="45.65209" lon="6.01618">
        <ele>1216.69</ele>
        <time>2012-06-24T07:20:17Z</time>
      </trkpt>
      <trkpt lat="45.6521" lon="6.01625">
        <ele>1216.21</ele>
        <time>2012-06-24T07:20:18Z</time>
      </trkpt>
      <trkpt lat="45.6521" lon="6.01632">
        <ele>1216.21</ele>
        <time>2012-06-24T07:20:19Z</time>
      </trkpt>
      <trkpt lat="45.6521" lon="6.0164">
        <ele>1215.72</ele>
        <time>2012-06-24T07:20:20Z</time>
      </trkpt>
      <trkpt lat="45.65208" lon="6.01648">
        <ele>1214.76</ele>
        <time>2012-06-24T07:20:21Z</time>
      </trkpt>
      <trkpt lat="45.65207" lon="6.01656">
        <ele>1214.28</ele>
        <time>2012-06-24T07:20:22Z</time>
      </trkpt>
      <trkpt lat="45.65205" lon="6.01664">
        <ele>1213.32</ele>
        <time>2012-06-24T07:20:23Z</time>
      </trkpt>
      <trkpt lat="45.65204" lon="6.01672">
        <ele>1213.8</ele>
        <time>2012-06-24T07:20:24Z</time>
      </trkpt>
      <trkpt lat="45.65202" lon="6.0168">
        <ele>1213.32</ele>
        <time>2012-06-24T07:20:25Z</time>
      </trkpt>
      <trkpt lat="45.65197" lon="6.01696">
        <ele>1211.4</ele>
        <time>2012-06-24T07:20:27Z</time>
      </trkpt>
      <trkpt lat="45.65196" lon="6.01703">
        <ele>1210.92</ele>
        <time>2012-06-24T07:20:28Z</time>
      </trkpt>
      <trkpt lat="45.65196" lon="6.01709">
        <ele>1210.44</ele>
        <time>2012-06-24T07:20:29Z</time>
      </trkpt>
      <trkpt lat="45.65196" lon="6.01714">
        <ele>1210.44</ele>
        <time>2012-06-24T07:20:30Z</time>
      </trkpt>
      <trkpt lat="45.65197" lon="6.01719">
        <ele>1210.44</ele>
        <time>2012-06-24T07:20:31Z</time>
      </trkpt>
      <trkpt lat="45.65198" lon="6.01724">
        <ele>1209.96</ele>
        <time>2012-06-24T07:20:32Z</time>
      </trkpt>
      <trkpt lat="45.65199" lon="6.0173">
        <ele>1209</ele>
        <time>2012-06-24T07:20:33Z</time>
      </trkpt>
      <trkpt lat="45.65198" lon="6.01736">
        <ele>1209</ele>
        <time>2012-06-24T07:20:34Z</time>
      </trkpt>
      <trkpt lat="45.65196" lon="6.01742">
        <ele>1208.03</ele>
        <time>2012-06-24T07:20:35Z</time>
      </trkpt>
      <trkpt lat="45.65194" lon="6.01748">
        <ele>1207.07</ele>
        <time>2012-06-24T07:20:36Z</time>
      </trkpt>
      <trkpt lat="45.65192" lon="6.01754">
        <ele>1206.59</ele>
        <time>2012-06-24T07:20:37Z</time>
      </trkpt>
      <trkpt lat="45.65191" lon="6.0176">
        <ele>1206.11</ele>
        <time>2012-06-24T07:20:38Z</time>
      </trkpt>
      <trkpt lat="45.65191" lon="6.01767">
        <ele>1206.11</ele>
        <time>2012-06-24T07:20:39Z</time>
      </trkpt>
      <trkpt lat="45.65191" lon="6.01774">
        <ele>1205.63</ele>
        <time>2012-06-24T07:20:40Z</time>
      </trkpt>
      <trkpt lat="45.65193" lon="6.01783">
        <ele>1205.63</ele>
        <time>2012-06-24T07:20:41Z</time>
      </trkpt>
      <trkpt lat="45.65195" lon="6.01792">
        <ele>1205.15</ele>
        <time>2012-06-24T07:20:42Z</time>
      </trkpt>
      <trkpt lat="45.65197" lon="6.018">
        <ele>1204.19</ele>
        <time>2012-06-24T07:20:43Z</time>
      </trkpt>
      <trkpt lat="45.65199" lon="6.01807">
        <ele>1204.67</ele>
        <time>2012-06-24T07:20:44Z</time>
      </trkpt>
      <trkpt lat="45.652" lon="6.01814">
        <ele>1204.19</ele>
        <time>2012-06-24T07:20:45Z</time>
      </trkpt>
      <trkpt lat="45.652" lon="6.01821">
        <ele>1203.23</ele>
        <time>2012-06-24T07:20:46Z</time>
      </trkpt>
      <trkpt lat="45.65199" lon="6.01827">
        <ele>1202.75</ele>
        <time>2012-06-24T07:20:47Z</time>
      </trkpt>
      <trkpt lat="45.65197" lon="6.01835">
        <ele>1202.27</ele>
        <time>2012-06-24T07:20:48Z</time>
      </trkpt>
      <trkpt lat="45.65196" lon="6.01843">
        <ele>1202.27</ele>
        <time>2012-06-24T07:20:49Z</time>
      </trkpt>
      <trkpt lat="45.65197" lon="6.0185">
        <ele>1201.3</ele>
        <time>2012-06-24T07:20:50Z</time>
      </trkpt>
      <trkpt lat="45.65199" lon="6.01856">
        <ele>1202.27</ele>
        <time>2012-06-24T07:20:51Z</time>
      </trkpt>
      <trkpt lat="45.65202" lon="6.01863">
        <ele>1201.79</ele>
        <time>2012-06-24T07:20:52Z</time>
      </trkpt>
      <trkpt lat="45.65206" lon="6.01871">
        <ele>1201.3</ele>
        <time>2012-06-24T07:20:53Z</time>
      </trkpt>
      <trkpt lat="45.65208" lon="6.01879">
        <ele>1201.3</ele>
        <time>2012-06-24T07:20:54Z</time>
      </trkpt>
      <trkpt lat="45.65209" lon="6.01889">
        <ele>1199.86</ele>
        <time>2012-06-24T07:20:55Z</time>
      </trkpt>
      <trkpt lat="45.65211" lon="6.01898">
        <ele>1199.86</ele>
        <time>2012-06-24T07:20:56Z</time>
      </trkpt>
      <trkpt lat="45.65211" lon="6.01906">
        <ele>1198.9</ele>
        <time>2012-06-24T07:20:57Z</time>
      </trkpt>
      <trkpt lat="45.65212" lon="6.01914">
        <ele>1198.42</ele>
        <time>2012-06-24T07:20:58Z</time>
      </trkpt>
      <trkpt lat="45.65216" lon="6.01939">
        <ele>1196.98</ele>
        <time>2012-06-24T07:21:01Z</time>
      </trkpt>
      <trkpt lat="45.65218" lon="6.01946">
        <ele>1196.5</ele>
        <time>2012-06-24T07:21:02Z</time>
      </trkpt>
      <trkpt lat="45.6522" lon="6.01949">
        <ele>1196.5</ele>
        <time>2012-06-24T07:21:03Z</time>
      </trkpt>
      <trkpt lat="45.65223" lon="6.01951">
        <ele>1196.02</ele>
        <time>2012-06-24T07:21:04Z</time>
      </trkpt>
      <trkpt lat="45.65226" lon="6.01951">
        <ele>1196.5</ele>
        <time>2012-06-24T07:21:05Z</time>
      </trkpt>
      <trkpt lat="45.65229" lon="6.01951">
        <ele>1196.5</ele>
        <time>2012-06-24T07:21:06Z</time>
      </trkpt>
      <trkpt lat="45.65233" lon="6.0195">
        <ele>1197.46</ele>
        <time>2012-06-24T07:21:08Z</time>
      </trkpt>
      <trkpt lat="45.65236" lon="6.01951">
        <ele>1197.46</ele>
        <time>2012-06-24T07:21:09Z</time>
      </trkpt>
      <trkpt lat="45.65249" lon="6.01954">
        <ele>1199.38</ele>
        <time>2012-06-24T07:21:16Z</time>
      </trkpt>
      <trkpt lat="45.65281" lon="6.01963">
        <ele>1202.27</ele>
        <time>2012-06-24T07:21:31Z</time>
      </trkpt>
      <trkpt lat="45.65301" lon="6.01957">
        <ele>1205.63</ele>
        <time>2012-06-24T07:21:42Z</time>
      </trkpt>
      <trkpt lat="45.65306" lon="6.01954">
        <ele>1206.59</ele>
        <time>2012-06-24T07:21:51Z</time>
      </trkpt>
      <trkpt lat="45.65309" lon="6.01954">
        <ele>1206.59</ele>
        <time>2012-06-24T07:21:53Z</time>
      </trkpt>
      <trkpt lat="45.65319" lon="6.01955">
        <ele>1207.55</ele>
        <time>2012-06-24T07:22:00Z</time>
      </trkpt>
      <trkpt lat="45.65324" lon="6.01954">
        <ele>1208.51</ele>
        <time>2012-06-24T07:22:05Z</time>
      </trkpt>
      <trkpt lat="45.65344" lon="6.01968">
        <ele>1211.4</ele>
        <time>2012-06-24T07:22:20Z</time>
      </trkpt>
      <trkpt lat="45.65358" lon="6.02006">
        <ele>1210.44</ele>
        <time>2012-06-24T07:22:29Z</time>
      </trkpt>
      <trkpt lat="45.65365" lon="6.02032">
        <ele>1209.96</ele>
        <time>2012-06-24T07:22:33Z</time>
      </trkpt>
      <trkpt lat="45.65368" lon="6.02038">
        <ele>1209.48</ele>
        <time>2012-06-24T07:22:34Z</time>
      </trkpt>
      <trkpt lat="45.65372" lon="6.02044">
        <ele>1209</ele>
        <time>2012-06-24T07:22:35Z</time>
      </trkpt>
      <trkpt lat="45.65382" lon="6.02055">
        <ele>1207.55</ele>
        <time>2012-06-24T07:22:37Z</time>
      </trkpt>
      <trkpt lat="45.65388" lon="6.0206">
        <ele>1207.07</ele>
        <time>2012-06-24T07:22:38Z</time>
      </trkpt>
      <trkpt lat="45.65393" lon="6.02063">
        <ele>1208.03</ele>
        <time>2012-06-24T07:22:39Z</time>
      </trkpt>
      <trkpt lat="45.65398" lon="6.02065">
        <ele>1208.03</ele>
        <time>2012-06-24T07:22:40Z</time>
      </trkpt>
      <trkpt lat="45.65406" lon="6.0207">
        <ele>1209.48</ele>
        <time>2012-06-24T07:22:43Z</time>
      </trkpt>
      <trkpt lat="45.65415" lon="6.02071">
        <ele>1210.44</ele>
        <time>2012-06-24T07:22:48Z</time>
      </trkpt>
      <trkpt lat="45.65423" lon="6.02066">
        <ele>1211.88</ele>
        <time>2012-06-24T07:22:53Z</time>
      </trkpt>
      <trkpt lat="45.65426" lon="6.02065">
        <ele>1212.84</ele>
        <time>2012-06-24T07:22:55Z</time>
      </trkpt>
      <trkpt lat="45.65434" lon="6.02065">
        <ele>1213.8</ele>
        <time>2012-06-24T07:23:00Z</time>
      </trkpt>
      <trkpt lat="45.65458" lon="6.02079">
        <ele>1216.21</ele>
        <time>2012-06-24T07:23:16Z</time>
      </trkpt>
      <trkpt lat="45.65482" lon="6.02093">
        <ele>1219.09</ele>
        <time>2012-06-24T07:23:31Z</time>
      </trkpt>
      <trkpt lat="45.65483" lon="6.02094">
        <ele>1219.09</ele>
        <time>2012-06-24T07:23:32Z</time>
      </trkpt>
      <trkpt lat="45.6549" lon="6.02097">
        <ele>1220.05</ele>
        <time>2012-06-24T07:23:37Z</time>
      </trkpt>
      <trkpt lat="45.65498" lon="6.021">
        <ele>1221.01</ele>
        <time>2012-06-24T07:23:43Z</time>
      </trkpt>
      <trkpt lat="45.65521" lon="6.02112">
        <ele>1223.9</ele>
        <time>2012-06-24T07:23:58Z</time>
      </trkpt>
      <trkpt lat="45.65543" lon="6.02118">
        <ele>1225.82</ele>
        <time>2012-06-24T07:24:11Z</time>
      </trkpt>
      <trkpt lat="45.65552" lon="6.02122">
        <ele>1226.3</ele>
        <time>2012-06-24T07:24:16Z</time>
      </trkpt>
      <trkpt lat="45.65586" lon="6.0212">
        <ele>1226.78</ele>
        <time>2012-06-24T07:24:29Z</time>
      </trkpt>
      <trkpt lat="45.65636" lon="6.02132">
        <ele>1224.86</ele>
        <time>2012-06-24T07:24:43Z</time>
      </trkpt>
      <trkpt lat="45.65677" lon="6.02166">
        <ele>1227.74</ele>
        <time>2012-06-24T07:24:55Z</time>
      </trkpt>
      <trkpt lat="45.65705" lon="6.02179">
        <ele>1230.62</ele>
        <time>2012-06-24T07:25:07Z</time>
      </trkpt>
      <trkpt lat="45.65739" lon="6.02207">
        <ele>1232.07</ele>
        <time>2012-06-24T07:25:20Z</time>
      </trkpt>
      <trkpt lat="45.6578" lon="6.02242">
        <ele>1233.03</ele>
        <time>2012-06-24T07:25:33Z</time>
      </trkpt>
      <trkpt lat="45.65823" lon="6.02253">
        <ele>1233.51</ele>
        <time>2012-06-24T07:25:45Z</time>
      </trkpt>
      <trkpt lat="45.65841" lon="6.02263">
        <ele>1233.03</ele>
        <time>2012-06-24T07:25:50Z</time>
      </trkpt>
      <trkpt lat="45.65846" lon="6.02265">
        <ele>1233.03</ele>
        <time>2012-06-24T07:25:51Z</time>
      </trkpt>
      <trkpt lat="45.65887" lon="6.02289">
        <ele>1234.95</ele>
        <time>2012-06-24T07:26:04Z</time>
      </trkpt>
      <trkpt lat="45.65918" lon="6.02318">
        <ele>1237.35</ele>
        <time>2012-06-24T07:26:17Z</time>
      </trkpt>
      <trkpt lat="45.6597" lon="6.02355">
        <ele>1238.8</ele>
        <time>2012-06-24T07:26:32Z</time>
      </trkpt>
      <trkpt lat="45.66003" lon="6.02373">
        <ele>1240.72</ele>
        <time>2012-06-24T07:26:45Z</time>
      </trkpt>
      <trkpt lat="45.66049" lon="6.02402">
        <ele>1242.64</ele>
        <time>2012-06-24T07:26:59Z</time>
      </trkpt>
      <trkpt lat="45.66086" lon="6.02423">
        <ele>1244.56</ele>
        <time>2012-06-24T07:27:12Z</time>
      </trkpt>
      <trkpt lat="45.66123" lon="6.02441">
        <ele>1246.97</ele>
        <time>2012-06-24T07:27:27Z</time>
      </trkpt>
      <trkpt lat="45.66157" lon="6.02452">
        <ele>1249.85</ele>
        <time>2012-06-24T07:27:41Z</time>
      </trkpt>
      <trkpt lat="45.66186" lon="6.02465">
        <ele>1252.74</ele>
        <time>2012-06-24T07:27:55Z</time>
      </trkpt>
      <trkpt lat="45.66217" lon="6.02482">
        <ele>1256.1</ele>
        <time>2012-06-24T07:28:10Z</time>
      </trkpt>
      <trkpt lat="45.66245" lon="6.02504">
        <ele>1257.06</ele>
        <time>2012-06-24T07:28:24Z</time>
      </trkpt>
      <trkpt lat="45.66289" lon="6.02525">
        <ele>1257.06</ele>
        <time>2012-06-24T07:28:38Z</time>
      </trkpt>
      <trkpt lat="45.66328" lon="6.02542">
        <ele>1258.98</ele>
        <time>2012-06-24T07:28:51Z</time>
      </trkpt>
      <trkpt lat="45.66364" lon="6.02541">
        <ele>1260.43</ele>
        <time>2012-06-24T07:29:05Z</time>
      </trkpt>
      <trkpt lat="45.66394" lon="6.02542">
        <ele>1263.31</ele>
        <time>2012-06-24T07:29:18Z</time>
      </trkpt>
      <trkpt lat="45.66431" lon="6.02571">
        <ele>1265.71</ele>
        <time>2012-06-24T07:29:34Z</time>
      </trkpt>
      <trkpt lat="45.66481" lon="6.02594">
        <ele>1263.79</ele>
        <time>2012-06-24T07:29:48Z</time>
      </trkpt>
      <trkpt lat="45.66486" lon="6.02596">
        <ele>1263.79</ele>
        <time>2012-06-24T07:29:49Z</time>
      </trkpt>
      <trkpt lat="45.66495" lon="6.02601">
        <ele>1263.79</ele>
        <time>2012-06-24T07:29:51Z</time>
      </trkpt>
      <trkpt lat="45.66504" lon="6.02609">
        <ele>1263.79</ele>
        <time>2012-06-24T07:29:53Z</time>
      </trkpt>
      <trkpt lat="45.66522" lon="6.0263">
        <ele>1263.79</ele>
        <time>2012-06-24T07:29:58Z</time>
      </trkpt>
      <trkpt lat="45.66554" lon="6.02645">
        <ele>1263.79</ele>
        <time>2012-06-24T07:30:05Z</time>
      </trkpt>
      <trkpt lat="45.6657" lon="6.02659">
        <ele>1263.31</ele>
        <time>2012-06-24T07:30:09Z</time>
      </trkpt>
      <trkpt lat="45.66613" lon="6.02714">
        <ele>1263.31</ele>
        <time>2012-06-24T07:30:22Z</time>
      </trkpt>
      <trkpt lat="45.66618" lon="6.02717">
        <ele>1263.31</ele>
        <time>2012-06-24T07:30:23Z</time>
      </trkpt>
      <trkpt lat="45.66623" lon="6.0272">
        <ele>1263.31</ele>
        <time>2012-06-24T07:30:24Z</time>
      </trkpt>
      <trkpt lat="45.66628" lon="6.02723">
        <ele>1262.83</ele>
        <time>2012-06-24T07:30:25Z</time>
      </trkpt>
      <trkpt lat="45.66634" lon="6.02725">
        <ele>1262.83</ele>
        <time>2012-06-24T07:30:26Z</time>
      </trkpt>
      <trkpt lat="45.6664" lon="6.02727">
        <ele>1262.35</ele>
        <time>2012-06-24T07:30:27Z</time>
      </trkpt>
      <trkpt lat="45.66694" lon="6.02743">
        <ele>1262.83</ele>
        <time>2012-06-24T07:30:38Z</time>
      </trkpt>
      <trkpt lat="45.66714" lon="6.02754">
        <ele>1262.35</ele>
        <time>2012-06-24T07:30:42Z</time>
      </trkpt>
      <trkpt lat="45.66718" lon="6.02756">
        <ele>1263.31</ele>
        <time>2012-06-24T07:30:43Z</time>
      </trkpt>
      <trkpt lat="45.66736" lon="6.02768">
        <ele>1263.31</ele>
        <time>2012-06-24T07:30:47Z</time>
      </trkpt>
      <trkpt lat="45.66739" lon="6.02769">
        <ele>1263.31</ele>
        <time>2012-06-24T07:30:48Z</time>
      </trkpt>
      <trkpt lat="45.66743" lon="6.02769">
        <ele>1263.31</ele>
        <time>2012-06-24T07:30:49Z</time>
      </trkpt>
      <trkpt lat="45.66747" lon="6.02769">
        <ele>1263.79</ele>
        <time>2012-06-24T07:30:50Z</time>
      </trkpt>
      <trkpt lat="45.66752" lon="6.02767">
        <ele>1263.79</ele>
        <time>2012-06-24T07:30:51Z</time>
      </trkpt>
      <trkpt lat="45.66756" lon="6.02766">
        <ele>1263.79</ele>
        <time>2012-06-24T07:30:52Z</time>
      </trkpt>
      <trkpt lat="45.6676" lon="6.02763">
        <ele>1263.79</ele>
        <time>2012-06-24T07:30:53Z</time>
      </trkpt>
      <trkpt lat="45.66764" lon="6.02759">
        <ele>1263.31</ele>
        <time>2012-06-24T07:30:54Z</time>
      </trkpt>
      <trkpt lat="45.66768" lon="6.02755">
        <ele>1263.31</ele>
        <time>2012-06-24T07:30:55Z</time>
      </trkpt>
      <trkpt lat="45.66777" lon="6.02747">
        <ele>1263.31</ele>
        <time>2012-06-24T07:30:57Z</time>
      </trkpt>
      <trkpt lat="45.66782" lon="6.02745">
        <ele>1263.31</ele>
        <time>2012-06-24T07:30:58Z</time>
      </trkpt>
      <trkpt lat="45.66787" lon="6.02743">
        <ele>1263.31</ele>
        <time>2012-06-24T07:30:59Z</time>
      </trkpt>
      <trkpt lat="45.66792" lon="6.02742">
        <ele>1263.31</ele>
        <time>2012-06-24T07:31:00Z</time>
      </trkpt>
      <trkpt lat="45.66796" lon="6.02741">
        <ele>1263.31</ele>
        <time>2012-06-24T07:31:01Z</time>
      </trkpt>
      <trkpt lat="45.668" lon="6.02741">
        <ele>1263.31</ele>
        <time>2012-06-24T07:31:02Z</time>
      </trkpt>
      <trkpt lat="45.6681" lon="6.02743">
        <ele>1262.83</ele>
        <time>2012-06-24T07:31:04Z</time>
      </trkpt>
      <trkpt lat="45.66814" lon="6.02745">
        <ele>1263.31</ele>
        <time>2012-06-24T07:31:05Z</time>
      </trkpt>
      <trkpt lat="45.66823" lon="6.02749">
        <ele>1263.31</ele>
        <time>2012-06-24T07:31:07Z</time>
      </trkpt>
      <trkpt lat="45.66826" lon="6.02752">
        <ele>1262.83</ele>
        <time>2012-06-24T07:31:08Z</time>
      </trkpt>
      <trkpt lat="45.6683" lon="6.02754">
        <ele>1262.83</ele>
        <time>2012-06-24T07:31:09Z</time>
      </trkpt>
      <trkpt lat="45.66834" lon="6.02755">
        <ele>1262.83</ele>
        <time>2012-06-24T07:31:10Z</time>
      </trkpt>
      <trkpt lat="45.66837" lon="6.02757">
        <ele>1263.31</ele>
        <time>2012-06-24T07:31:11Z</time>
      </trkpt>
      <trkpt lat="45.66866" lon="6.02764">
        <ele>1265.71</ele>
        <time>2012-06-24T07:31:21Z</time>
      </trkpt>
      <trkpt lat="45.66896" lon="6.02765">
        <ele>1266.67</ele>
        <time>2012-06-24T07:31:31Z</time>
      </trkpt>
      <trkpt lat="45.66931" lon="6.02781">
        <ele>1267.16</ele>
        <time>2012-06-24T07:31:40Z</time>
      </trkpt>
      <trkpt lat="45.6695" lon="6.0279">
        <ele>1265.71</ele>
        <time>2012-06-24T07:31:44Z</time>
      </trkpt>
      <trkpt lat="45.66956" lon="6.02791">
        <ele>1265.71</ele>
        <time>2012-06-24T07:31:45Z</time>
      </trkpt>
      <trkpt lat="45.66975" lon="6.02792">
        <ele>1265.23</ele>
        <time>2012-06-24T07:31:48Z</time>
      </trkpt>
      <trkpt lat="45.66982" lon="6.02792">
        <ele>1264.27</ele>
        <time>2012-06-24T07:31:49Z</time>
      </trkpt>
      <trkpt lat="45.66988" lon="6.02793">
        <ele>1264.75</ele>
        <time>2012-06-24T07:31:50Z</time>
      </trkpt>
      <trkpt lat="45.66995" lon="6.02794">
        <ele>1265.23</ele>
        <time>2012-06-24T07:31:51Z</time>
      </trkpt>
      <trkpt lat="45.67001" lon="6.02796">
        <ele>1264.27</ele>
        <time>2012-06-24T07:31:52Z</time>
      </trkpt>
      <trkpt lat="45.6703" lon="6.02807">
        <ele>1263.79</ele>
        <time>2012-06-24T07:31:57Z</time>
      </trkpt>
      <trkpt lat="45.67037" lon="6.0281">
        <ele>1263.31</ele>
        <time>2012-06-24T07:31:58Z</time>
      </trkpt>
      <trkpt lat="45.67043" lon="6.02812">
        <ele>1263.31</ele>
        <time>2012-06-24T07:31:59Z</time>
      </trkpt>
      <trkpt lat="45.67083" lon="6.02834">
        <ele>1260.43</ele>
        <time>2012-06-24T07:32:05Z</time>
      </trkpt>
      <trkpt lat="45.67112" lon="6.0285">
        <ele>1256.58</ele>
        <time>2012-06-24T07:32:09Z</time>
      </trkpt>
      <trkpt lat="45.67119" lon="6.02856">
        <ele>1256.1</ele>
        <time>2012-06-24T07:32:10Z</time>
      </trkpt>
      <trkpt lat="45.67125" lon="6.02862">
        <ele>1255.62</ele>
        <time>2012-06-24T07:32:11Z</time>
      </trkpt>
      <trkpt lat="45.67132" lon="6.02868">
        <ele>1255.14</ele>
        <time>2012-06-24T07:32:12Z</time>
      </trkpt>
      <trkpt lat="45.67138" lon="6.02872">
        <ele>1255.62</ele>
        <time>2012-06-24T07:32:13Z</time>
      </trkpt>
      <trkpt lat="45.67144" lon="6.02875">
        <ele>1256.1</ele>
        <time>2012-06-24T07:32:14Z</time>
      </trkpt>
      <trkpt lat="45.67151" lon="6.02878">
        <ele>1256.1</ele>
        <time>2012-06-24T07:32:15Z</time>
      </trkpt>
      <trkpt lat="45.67156" lon="6.0288">
        <ele>1256.58</ele>
        <time>2012-06-24T07:32:16Z</time>
      </trkpt>
      <trkpt lat="45.67168" lon="6.02882">
        <ele>1257.54</ele>
        <time>2012-06-24T07:32:18Z</time>
      </trkpt>
      <trkpt lat="45.67207" lon="6.02897">
        <ele>1259.46</ele>
        <time>2012-06-24T07:32:28Z</time>
      </trkpt>
      <trkpt lat="45.67248" lon="6.02933">
        <ele>1262.35</ele>
        <time>2012-06-24T07:32:44Z</time>
      </trkpt>
      <trkpt lat="45.67291" lon="6.02933">
        <ele>1265.23</ele>
        <time>2012-06-24T07:32:59Z</time>
      </trkpt>
      <trkpt lat="45.67327" lon="6.02929">
        <ele>1268.12</ele>
        <time>2012-06-24T07:33:13Z</time>
      </trkpt>
      <trkpt lat="45.67363" lon="6.02925">
        <ele>1270.52</ele>
        <time>2012-06-24T07:33:26Z</time>
      </trkpt>
      <trkpt lat="45.67406" lon="6.0292">
        <ele>1272.92</ele>
        <time>2012-06-24T07:33:42Z</time>
      </trkpt>
      <trkpt lat="45.67433" lon="6.02939">
        <ele>1275.81</ele>
        <time>2012-06-24T07:33:53Z</time>
      </trkpt>
      <trkpt lat="45.67466" lon="6.02959">
        <ele>1278.21</ele>
        <time>2012-06-24T07:34:07Z</time>
      </trkpt>
      <trkpt lat="45.675" lon="6.02967">
        <ele>1281.09</ele>
        <time>2012-06-24T07:34:22Z</time>
      </trkpt>
      <trkpt lat="45.6753" lon="6.0297">
        <ele>1283.02</ele>
        <time>2012-06-24T07:34:35Z</time>
      </trkpt>
      <trkpt lat="45.67569" lon="6.02971">
        <ele>1286.38</ele>
        <time>2012-06-24T07:34:52Z</time>
      </trkpt>
      <trkpt lat="45.67605" lon="6.02974">
        <ele>1288.78</ele>
        <time>2012-06-24T07:35:09Z</time>
      </trkpt>
      <trkpt lat="45.6763" lon="6.02996">
        <ele>1292.15</ele>
        <time>2012-06-24T07:35:23Z</time>
      </trkpt>
      <trkpt lat="45.67658" lon="6.03028">
        <ele>1295.03</ele>
        <time>2012-06-24T07:35:39Z</time>
      </trkpt>
      <trkpt lat="45.67673" lon="6.03068">
        <ele>1296.96</ele>
        <time>2012-06-24T07:35:53Z</time>
      </trkpt>
      <trkpt lat="45.6769" lon="6.03116">
        <ele>1299.84</ele>
        <time>2012-06-24T07:36:10Z</time>
      </trkpt>
      <trkpt lat="45.67714" lon="6.03159">
        <ele>1302.24</ele>
        <time>2012-06-24T07:36:27Z</time>
      </trkpt>
      <trkpt lat="45.67739" lon="6.03176">
        <ele>1305.13</ele>
        <time>2012-06-24T07:36:40Z</time>
      </trkpt>
      <trkpt lat="45.6777" lon="6.0319">
        <ele>1307.05</ele>
        <time>2012-06-24T07:36:53Z</time>
      </trkpt>
      <trkpt lat="45.67776" lon="6.03238">
        <ele>1306.57</ele>
        <time>2012-06-24T07:37:04Z</time>
      </trkpt>
      <trkpt lat="45.67778" lon="6.03271">
        <ele>1306.09</ele>
        <time>2012-06-24T07:37:16Z</time>
      </trkpt>
      <trkpt lat="45.67777" lon="6.03269">
        <ele>1306.57</ele>
        <time>2012-06-24T07:37:18Z</time>
      </trkpt>
      <trkpt lat="45.67775" lon="6.03271">
        <ele>1306.09</ele>
        <time>2012-06-24T07:37:35Z</time>
      </trkpt>
      <trkpt lat="45.67775" lon="6.03271">
        <ele>1306.09</ele>
        <time>2012-06-24T07:38:04Z</time>
      </trkpt>
      <trkpt lat="45.67775" lon="6.03271">
        <ele>1306.09</ele>
        <time>2012-06-24T07:38:31Z</time>
      </trkpt>
      <trkpt lat="45.67775" lon="6.03271">
        <ele>1306.09</ele>
        <time>2012-06-24T07:39:12Z</time>
      </trkpt>
      <trkpt lat="45.67775" lon="6.03271">
        <ele>1307.05</ele>
        <time>2012-06-24T07:39:16Z</time>
      </trkpt>
      <trkpt lat="45.67776" lon="6.03277">
        <ele>1307.05</ele>
        <time>2012-06-24T07:39:18Z</time>
      </trkpt>
      <trkpt lat="45.67774" lon="6.03307">
        <ele>1306.57</ele>
        <time>2012-06-24T07:39:24Z</time>
      </trkpt>
      <trkpt lat="45.67775" lon="6.03315">
        <ele>1305.61</ele>
        <time>2012-06-24T07:39:25Z</time>
      </trkpt>
      <trkpt lat="45.67778" lon="6.03332">
        <ele>1304.17</ele>
        <time>2012-06-24T07:39:27Z</time>
      </trkpt>
      <trkpt lat="45.6778" lon="6.03341">
        <ele>1303.69</ele>
        <time>2012-06-24T07:39:28Z</time>
      </trkpt>
      <trkpt lat="45.67782" lon="6.0335">
        <ele>1303.2</ele>
        <time>2012-06-24T07:39:29Z</time>
      </trkpt>
      <trkpt lat="45.67787" lon="6.03376">
        <ele>1302.24</ele>
        <time>2012-06-24T07:39:32Z</time>
      </trkpt>
      <trkpt lat="45.6779" lon="6.03385">
        <ele>1302.24</ele>
        <time>2012-06-24T07:39:33Z</time>
      </trkpt>
      <trkpt lat="45.67791" lon="6.03394">
        <ele>1301.76</ele>
        <time>2012-06-24T07:39:34Z</time>
      </trkpt>
      <trkpt lat="45.67793" lon="6.03402">
        <ele>1301.76</ele>
        <time>2012-06-24T07:39:35Z</time>
      </trkpt>
      <trkpt lat="45.67796" lon="6.03409">
        <ele>1302.24</ele>
        <time>2012-06-24T07:39:36Z</time>
      </trkpt>
      <trkpt lat="45.67798" lon="6.03415">
        <ele>1302.24</ele>
        <time>2012-06-24T07:39:37Z</time>
      </trkpt>
      <trkpt lat="45.67801" lon="6.03421">
        <ele>1302.24</ele>
        <time>2012-06-24T07:39:38Z</time>
      </trkpt>
      <trkpt lat="45.67804" lon="6.03427">
        <ele>1301.76</ele>
        <time>2012-06-24T07:39:39Z</time>
      </trkpt>
      <trkpt lat="45.67808" lon="6.03431">
        <ele>1301.28</ele>
        <time>2012-06-24T07:39:40Z</time>
      </trkpt>
      <trkpt lat="45.67816" lon="6.03438">
        <ele>1302.24</ele>
        <time>2012-06-24T07:39:42Z</time>
      </trkpt>
      <trkpt lat="45.6782" lon="6.03441">
        <ele>1302.24</ele>
        <time>2012-06-24T07:39:43Z</time>
      </trkpt>
      <trkpt lat="45.67823" lon="6.03443">
        <ele>1302.24</ele>
        <time>2012-06-24T07:39:44Z</time>
      </trkpt>
      <trkpt lat="45.67827" lon="6.03444">
        <ele>1303.2</ele>
        <time>2012-06-24T07:39:45Z</time>
      </trkpt>
      <trkpt lat="45.67831" lon="6.03444">
        <ele>1302.72</ele>
        <time>2012-06-24T07:39:46Z</time>
      </trkpt>
      <trkpt lat="45.67835" lon="6.03444">
        <ele>1303.2</ele>
        <time>2012-06-24T07:39:47Z</time>
      </trkpt>
      <trkpt lat="45.67839" lon="6.03445">
        <ele>1302.72</ele>
        <time>2012-06-24T07:39:48Z</time>
      </trkpt>
      <trkpt lat="45.67844" lon="6.03448">
        <ele>1302.24</ele>
        <time>2012-06-24T07:39:49Z</time>
      </trkpt>
      <trkpt lat="45.67847" lon="6.03453">
        <ele>1302.24</ele>
        <time>2012-06-24T07:39:50Z</time>
      </trkpt>
      <trkpt lat="45.67851" lon="6.03458">
        <ele>1302.24</ele>
        <time>2012-06-24T07:39:51Z</time>
      </trkpt>
      <trkpt lat="45.67859" lon="6.03468">
        <ele>1301.28</ele>
        <time>2012-06-24T07:39:53Z</time>
      </trkpt>
      <trkpt lat="45.67864" lon="6.03472">
        <ele>1301.76</ele>
        <time>2012-06-24T07:39:54Z</time>
      </trkpt>
      <trkpt lat="45.67868" lon="6.03474">
        <ele>1301.76</ele>
        <time>2012-06-24T07:39:55Z</time>
      </trkpt>
      <trkpt lat="45.67872" lon="6.03473">
        <ele>1301.76</ele>
        <time>2012-06-24T07:39:56Z</time>
      </trkpt>
      <trkpt lat="45.67877" lon="6.0347">
        <ele>1301.28</ele>
        <time>2012-06-24T07:39:57Z</time>
      </trkpt>
      <trkpt lat="45.67881" lon="6.03466">
        <ele>1301.76</ele>
        <time>2012-06-24T07:39:58Z</time>
      </trkpt>
      <trkpt lat="45.67907" lon="6.03444">
        <ele>1304.65</ele>
        <time>2012-06-24T07:40:07Z</time>
      </trkpt>
      <trkpt lat="45.6793" lon="6.03426">
        <ele>1305.61</ele>
        <time>2012-06-24T07:40:16Z</time>
      </trkpt>
      <trkpt lat="45.67939" lon="6.03414">
        <ele>1304.17</ele>
        <time>2012-06-24T07:40:18Z</time>
      </trkpt>
      <trkpt lat="45.67959" lon="6.03386">
        <ele>1300.8</ele>
        <time>2012-06-24T07:40:22Z</time>
      </trkpt>
      <trkpt lat="45.67978" lon="6.03363">
        <ele>1300.32</ele>
        <time>2012-06-24T07:40:26Z</time>
      </trkpt>
      <trkpt lat="45.67983" lon="6.03359">
        <ele>1299.36</ele>
        <time>2012-06-24T07:40:27Z</time>
      </trkpt>
      <trkpt lat="45.67988" lon="6.03357">
        <ele>1300.32</ele>
        <time>2012-06-24T07:40:28Z</time>
      </trkpt>
      <trkpt lat="45.67993" lon="6.03356">
        <ele>1299.84</ele>
        <time>2012-06-24T07:40:29Z</time>
      </trkpt>
      <trkpt lat="45.67997" lon="6.03357">
        <ele>1299.84</ele>
        <time>2012-06-24T07:40:30Z</time>
      </trkpt>
      <trkpt lat="45.68002" lon="6.03359">
        <ele>1300.32</ele>
        <time>2012-06-24T07:40:31Z</time>
      </trkpt>
      <trkpt lat="45.68006" lon="6.03361">
        <ele>1300.32</ele>
        <time>2012-06-24T07:40:32Z</time>
      </trkpt>
      <trkpt lat="45.68015" lon="6.03365">
        <ele>1299.36</ele>
        <time>2012-06-24T07:40:34Z</time>
      </trkpt>
      <trkpt lat="45.68019" lon="6.03366">
        <ele>1299.84</ele>
        <time>2012-06-24T07:40:35Z</time>
      </trkpt>
      <trkpt lat="45.68031" lon="6.03366">
        <ele>1299.36</ele>
        <time>2012-06-24T07:40:38Z</time>
      </trkpt>
      <trkpt lat="45.68053" lon="6.03359">
        <ele>1299.36</ele>
        <time>2012-06-24T07:40:42Z</time>
      </trkpt>
      <trkpt lat="45.68058" lon="6.03356">
        <ele>1298.88</ele>
        <time>2012-06-24T07:40:43Z</time>
      </trkpt>
      <trkpt lat="45.68064" lon="6.03351">
        <ele>1298.88</ele>
        <time>2012-06-24T07:40:44Z</time>
      </trkpt>
      <trkpt lat="45.68068" lon="6.03345">
        <ele>1298.4</ele>
        <time>2012-06-24T07:40:45Z</time>
      </trkpt>
      <trkpt lat="45.68072" lon="6.03339">
        <ele>1298.4</ele>
        <time>2012-06-24T07:40:46Z</time>
      </trkpt>
      <trkpt lat="45.68076" lon="6.03332">
        <ele>1298.4</ele>
        <time>2012-06-24T07:40:47Z</time>
      </trkpt>
      <trkpt lat="45.68078" lon="6.03325">
        <ele>1297.92</ele>
        <time>2012-06-24T07:40:48Z</time>
      </trkpt>
      <trkpt lat="45.68081" lon="6.03317">
        <ele>1297.44</ele>
        <time>2012-06-24T07:40:49Z</time>
      </trkpt>
      <trkpt lat="45.68083" lon="6.0331">
        <ele>1296.96</ele>
        <time>2012-06-24T07:40:50Z</time>
      </trkpt>
      <trkpt lat="45.68086" lon="6.03304">
        <ele>1297.44</ele>
        <time>2012-06-24T07:40:51Z</time>
      </trkpt>
      <trkpt lat="45.68089" lon="6.03298">
        <ele>1297.44</ele>
        <time>2012-06-24T07:40:52Z</time>
      </trkpt>
      <trkpt lat="45.68093" lon="6.03293">
        <ele>1297.44</ele>
        <time>2012-06-24T07:40:53Z</time>
      </trkpt>
      <trkpt lat="45.68097" lon="6.03289">
        <ele>1297.44</ele>
        <time>2012-06-24T07:40:54Z</time>
      </trkpt>
      <trkpt lat="45.68102" lon="6.03286">
        <ele>1297.92</ele>
        <time>2012-06-24T07:40:55Z</time>
      </trkpt>
      <trkpt lat="45.68106" lon="6.03284">
        <ele>1298.4</ele>
        <time>2012-06-24T07:40:56Z</time>
      </trkpt>
      <trkpt lat="45.68111" lon="6.03283">
        <ele>1298.4</ele>
        <time>2012-06-24T07:40:57Z</time>
      </trkpt>
      <trkpt lat="45.68142" lon="6.03267">
        <ele>1300.8</ele>
        <time>2012-06-24T07:41:07Z</time>
      </trkpt>
      <trkpt lat="45.68181" lon="6.03254">
        <ele>1301.76</ele>
        <time>2012-06-24T07:41:18Z</time>
      </trkpt>
      <trkpt lat="45.68205" lon="6.03254">
        <ele>1301.28</ele>
        <time>2012-06-24T07:41:23Z</time>
      </trkpt>
      <trkpt lat="45.6821" lon="6.03255">
        <ele>1301.76</ele>
        <time>2012-06-24T07:41:24Z</time>
      </trkpt>
      <trkpt lat="45.68215" lon="6.03256">
        <ele>1301.76</ele>
        <time>2012-06-24T07:41:25Z</time>
      </trkpt>
      <trkpt lat="45.68219" lon="6.03258">
        <ele>1301.76</ele>
        <time>2012-06-24T07:41:26Z</time>
      </trkpt>
      <trkpt lat="45.68223" lon="6.03261">
        <ele>1302.24</ele>
        <time>2012-06-24T07:41:27Z</time>
      </trkpt>
      <trkpt lat="45.6823" lon="6.03274">
        <ele>1302.72</ele>
        <time>2012-06-24T07:41:30Z</time>
      </trkpt>
      <trkpt lat="45.68254" lon="6.03325">
        <ele>1306.09</ele>
        <time>2012-06-24T07:41:43Z</time>
      </trkpt>
      <trkpt lat="45.68298" lon="6.0335">
        <ele>1308.01</ele>
        <time>2012-06-24T07:41:57Z</time>
      </trkpt>
      <trkpt lat="45.68335" lon="6.03346">
        <ele>1309.93</ele>
        <time>2012-06-24T07:42:09Z</time>
      </trkpt>
      <trkpt lat="45.68365" lon="6.03357">
        <ele>1310.9</ele>
        <time>2012-06-24T07:42:20Z</time>
      </trkpt>
      <trkpt lat="45.68403" lon="6.03387">
        <ele>1313.3</ele>
        <time>2012-06-24T07:42:35Z</time>
      </trkpt>
      <trkpt lat="45.68435" lon="6.0339">
        <ele>1314.74</ele>
        <time>2012-06-24T07:42:47Z</time>
      </trkpt>
      <trkpt lat="45.68464" lon="6.03434">
        <ele>1314.74</ele>
        <time>2012-06-24T07:43:00Z</time>
      </trkpt>
      <trkpt lat="45.68485" lon="6.03479">
        <ele>1315.22</ele>
        <time>2012-06-24T07:43:13Z</time>
      </trkpt>
      <trkpt lat="45.68506" lon="6.03513">
        <ele>1316.18</ele>
        <time>2012-06-24T07:43:25Z</time>
      </trkpt>
      <trkpt lat="45.68522" lon="6.03562">
        <ele>1318.1</ele>
        <time>2012-06-24T07:43:39Z</time>
      </trkpt>
      <trkpt lat="45.68544" lon="6.0362">
        <ele>1319.07</ele>
        <time>2012-06-24T07:43:53Z</time>
      </trkpt>
      <trkpt lat="45.68547" lon="6.03626">
        <ele>1318.59</ele>
        <time>2012-06-24T07:43:54Z</time>
      </trkpt>
      <trkpt lat="45.68555" lon="6.03635">
        <ele>1318.1</ele>
        <time>2012-06-24T07:43:56Z</time>
      </trkpt>
      <trkpt lat="45.68563" lon="6.03643">
        <ele>1318.1</ele>
        <time>2012-06-24T07:43:58Z</time>
      </trkpt>
      <trkpt lat="45.68567" lon="6.03646">
        <ele>1317.62</ele>
        <time>2012-06-24T07:43:59Z</time>
      </trkpt>
      <trkpt lat="45.6858" lon="6.03651">
        <ele>1318.1</ele>
        <time>2012-06-24T07:44:02Z</time>
      </trkpt>
      <trkpt lat="45.68583" lon="6.03649">
        <ele>1318.1</ele>
        <time>2012-06-24T07:44:03Z</time>
      </trkpt>
      <trkpt lat="45.68587" lon="6.03645">
        <ele>1318.1</ele>
        <time>2012-06-24T07:44:04Z</time>
      </trkpt>
      <trkpt lat="45.6859" lon="6.0364">
        <ele>1318.1</ele>
        <time>2012-06-24T07:44:05Z</time>
      </trkpt>
      <trkpt lat="45.68593" lon="6.03634">
        <ele>1318.1</ele>
        <time>2012-06-24T07:44:06Z</time>
      </trkpt>
      <trkpt lat="45.68596" lon="6.03628">
        <ele>1318.1</ele>
        <time>2012-06-24T07:44:07Z</time>
      </trkpt>
      <trkpt lat="45.68605" lon="6.03609">
        <ele>1317.14</ele>
        <time>2012-06-24T07:44:10Z</time>
      </trkpt>
      <trkpt lat="45.68609" lon="6.03604">
        <ele>1317.62</ele>
        <time>2012-06-24T07:44:11Z</time>
      </trkpt>
      <trkpt lat="45.68621" lon="6.0359">
        <ele>1317.14</ele>
        <time>2012-06-24T07:44:14Z</time>
      </trkpt>
      <trkpt lat="45.68625" lon="6.03586">
        <ele>1318.59</ele>
        <time>2012-06-24T07:44:15Z</time>
      </trkpt>
      <trkpt lat="45.68629" lon="6.03583">
        <ele>1318.1</ele>
        <time>2012-06-24T07:44:16Z</time>
      </trkpt>
      <trkpt lat="45.68633" lon="6.03581">
        <ele>1318.1</ele>
        <time>2012-06-24T07:44:17Z</time>
      </trkpt>
      <trkpt lat="45.68637" lon="6.03579">
        <ele>1318.59</ele>
        <time>2012-06-24T07:44:18Z</time>
      </trkpt>
      <trkpt lat="45.68641" lon="6.03577">
        <ele>1318.1</ele>
        <time>2012-06-24T07:44:19Z</time>
      </trkpt>
      <trkpt lat="45.68645" lon="6.03576">
        <ele>1318.59</ele>
        <time>2012-06-24T07:44:20Z</time>
      </trkpt>
      <trkpt lat="45.68663" lon="6.03576">
        <ele>1318.59</ele>
        <time>2012-06-24T07:44:24Z</time>
      </trkpt>
      <trkpt lat="45.68671" lon="6.03578">
        <ele>1318.59</ele>
        <time>2012-06-24T07:44:26Z</time>
      </trkpt>
      <trkpt lat="45.68675" lon="6.03579">
        <ele>1319.07</ele>
        <time>2012-06-24T07:44:27Z</time>
      </trkpt>
      <trkpt lat="45.68679" lon="6.03578">
        <ele>1319.07</ele>
        <time>2012-06-24T07:44:28Z</time>
      </trkpt>
      <trkpt lat="45.68683" lon="6.03578">
        <ele>1319.07</ele>
        <time>2012-06-24T07:44:29Z</time>
      </trkpt>
      <trkpt lat="45.68687" lon="6.03578">
        <ele>1319.07</ele>
        <time>2012-06-24T07:44:30Z</time>
      </trkpt>
      <trkpt lat="45.68691" lon="6.03579">
        <ele>1319.07</ele>
        <time>2012-06-24T07:44:31Z</time>
      </trkpt>
      <trkpt lat="45.68695" lon="6.03599">
        <ele>1315.7</ele>
        <time>2012-06-24T07:44:36Z</time>
      </trkpt>
      <trkpt lat="45.68688" lon="6.03612">
        <ele>1314.26</ele>
        <time>2012-06-24T07:44:38Z</time>
      </trkpt>
      <trkpt lat="45.68683" lon="6.03617">
        <ele>1313.78</ele>
        <time>2012-06-24T07:44:39Z</time>
      </trkpt>
      <trkpt lat="45.68679" lon="6.0362">
        <ele>1313.3</ele>
        <time>2012-06-24T07:44:40Z</time>
      </trkpt>
      <trkpt lat="45.68675" lon="6.03621">
        <ele>1313.78</ele>
        <time>2012-06-24T07:44:41Z</time>
      </trkpt>
      <trkpt lat="45.68671" lon="6.03621">
        <ele>1313.78</ele>
        <time>2012-06-24T07:44:42Z</time>
      </trkpt>
      <trkpt lat="45.68668" lon="6.0362">
        <ele>1313.78</ele>
        <time>2012-06-24T07:44:43Z</time>
      </trkpt>
      <trkpt lat="45.68664" lon="6.03618">
        <ele>1313.78</ele>
        <time>2012-06-24T07:44:44Z</time>
      </trkpt>
      <trkpt lat="45.6866" lon="6.03617">
        <ele>1313.78</ele>
        <time>2012-06-24T07:44:45Z</time>
      </trkpt>
      <trkpt lat="45.68641" lon="6.03623">
        <ele>1314.26</ele>
        <time>2012-06-24T07:44:50Z</time>
      </trkpt>
      <trkpt lat="45.68636" lon="6.03627">
        <ele>1313.3</ele>
        <time>2012-06-24T07:44:51Z</time>
      </trkpt>
      <trkpt lat="45.6863" lon="6.03629">
        <ele>1312.34</ele>
        <time>2012-06-24T07:44:52Z</time>
      </trkpt>
      <trkpt lat="45.68625" lon="6.03631">
        <ele>1312.34</ele>
        <time>2012-06-24T07:44:53Z</time>
      </trkpt>
      <trkpt lat="45.68612" lon="6.03637">
        <ele>1312.82</ele>
        <time>2012-06-24T07:44:57Z</time>
      </trkpt>
      <trkpt lat="45.6861" lon="6.03639">
        <ele>1312.82</ele>
        <time>2012-06-24T07:44:58Z</time>
      </trkpt>
      <trkpt lat="45.68609" lon="6.03643">
        <ele>1312.82</ele>
        <time>2012-06-24T07:44:59Z</time>
      </trkpt>
      <trkpt lat="45.68607" lon="6.03647">
        <ele>1312.34</ele>
        <time>2012-06-24T07:45:00Z</time>
      </trkpt>
      <trkpt lat="45.68604" lon="6.03652">
        <ele>1311.86</ele>
        <time>2012-06-24T07:45:01Z</time>
      </trkpt>
      <trkpt lat="45.68602" lon="6.03657">
        <ele>1310.9</ele>
        <time>2012-06-24T07:45:02Z</time>
      </trkpt>
      <trkpt lat="45.686" lon="6.03663">
        <ele>1310.9</ele>
        <time>2012-06-24T07:45:03Z</time>
      </trkpt>
      <trkpt lat="45.68583" lon="6.03695">
        <ele>1308.97</ele>
        <time>2012-06-24T07:45:10Z</time>
      </trkpt>
      <trkpt lat="45.6858" lon="6.037">
        <ele>1308.49</ele>
        <time>2012-06-24T07:45:11Z</time>
      </trkpt>
      <trkpt lat="45.68572" lon="6.03709">
        <ele>1307.05</ele>
        <time>2012-06-24T07:45:13Z</time>
      </trkpt>
      <trkpt lat="45.68569" lon="6.03714">
        <ele>1306.09</ele>
        <time>2012-06-24T07:45:14Z</time>
      </trkpt>
      <trkpt lat="45.68566" lon="6.03719">
        <ele>1305.13</ele>
        <time>2012-06-24T07:45:15Z</time>
      </trkpt>
      <trkpt lat="45.68563" lon="6.03725">
        <ele>1304.17</ele>
        <time>2012-06-24T07:45:16Z</time>
      </trkpt>
      <trkpt lat="45.6856" lon="6.03731">
        <ele>1303.69</ele>
        <time>2012-06-24T07:45:17Z</time>
      </trkpt>
      <trkpt lat="45.68557" lon="6.03738">
        <ele>1303.69</ele>
        <time>2012-06-24T07:45:18Z</time>
      </trkpt>
      <trkpt lat="45.68554" lon="6.03743">
        <ele>1302.72</ele>
        <time>2012-06-24T07:45:19Z</time>
      </trkpt>
      <trkpt lat="45.68551" lon="6.03746">
        <ele>1302.24</ele>
        <time>2012-06-24T07:45:20Z</time>
      </trkpt>
      <trkpt lat="45.68547" lon="6.03748">
        <ele>1302.24</ele>
        <time>2012-06-24T07:45:21Z</time>
      </trkpt>
      <trkpt lat="45.68543" lon="6.0375">
        <ele>1301.28</ele>
        <time>2012-06-24T07:45:22Z</time>
      </trkpt>
      <trkpt lat="45.68533" lon="6.03754">
        <ele>1299.36</ele>
        <time>2012-06-24T07:45:24Z</time>
      </trkpt>
      <trkpt lat="45.68529" lon="6.03759">
        <ele>1298.4</ele>
        <time>2012-06-24T07:45:25Z</time>
      </trkpt>
      <trkpt lat="45.68522" lon="6.03771">
        <ele>1297.44</ele>
        <time>2012-06-24T07:45:27Z</time>
      </trkpt>
      <trkpt lat="45.68513" lon="6.0379">
        <ele>1295.03</ele>
        <time>2012-06-24T07:45:30Z</time>
      </trkpt>
      <trkpt lat="45.68511" lon="6.03811">
        <ele>1291.67</ele>
        <time>2012-06-24T07:45:33Z</time>
      </trkpt>
      <trkpt lat="45.68509" lon="6.03824">
        <ele>1289.75</ele>
        <time>2012-06-24T07:45:34Z</time>
      </trkpt>
      <trkpt lat="45.68508" lon="6.03831">
        <ele>1288.78</ele>
        <time>2012-06-24T07:45:35Z</time>
      </trkpt>
      <trkpt lat="45.68506" lon="6.03836">
        <ele>1288.3</ele>
        <time>2012-06-24T07:45:36Z</time>
      </trkpt>
      <trkpt lat="45.68498" lon="6.03839">
        <ele>1285.9</ele>
        <time>2012-06-24T07:45:39Z</time>
      </trkpt>
      <trkpt lat="45.68489" lon="6.03834">
        <ele>1281.57</ele>
        <time>2012-06-24T07:45:43Z</time>
      </trkpt>
      <trkpt lat="45.68481" lon="6.03831">
        <ele>1278.21</ele>
        <time>2012-06-24T07:45:46Z</time>
      </trkpt>
      <trkpt lat="45.68471" lon="6.03825">
        <ele>1276.29</ele>
        <time>2012-06-24T07:45:48Z</time>
      </trkpt>
      <trkpt lat="45.68465" lon="6.03821">
        <ele>1275.33</ele>
        <time>2012-06-24T07:45:49Z</time>
      </trkpt>
      <trkpt lat="45.6846" lon="6.03816">
        <ele>1273.88</ele>
        <time>2012-06-24T07:45:50Z</time>
      </trkpt>
      <trkpt lat="45.68447" lon="6.03809">
        <ele>1271.48</ele>
        <time>2012-06-24T07:45:52Z</time>
      </trkpt>
      <trkpt lat="45.68441" lon="6.03807">
        <ele>1270.04</ele>
        <time>2012-06-24T07:45:53Z</time>
      </trkpt>
      <trkpt lat="45.68427" lon="6.03808">
        <ele>1268.12</ele>
        <time>2012-06-24T07:45:56Z</time>
      </trkpt>
      <trkpt lat="45.68426" lon="6.0381">
        <ele>1267.16</ele>
        <time>2012-06-24T07:45:57Z</time>
      </trkpt>
      <trkpt lat="45.68425" lon="6.03812">
        <ele>1266.67</ele>
        <time>2012-06-24T07:45:58Z</time>
      </trkpt>
      <trkpt lat="45.68425" lon="6.03816">
        <ele>1266.19</ele>
        <time>2012-06-24T07:45:59Z</time>
      </trkpt>
      <trkpt lat="45.68424" lon="6.03821">
        <ele>1264.75</ele>
        <time>2012-06-24T07:46:00Z</time>
      </trkpt>
      <trkpt lat="45.68424" lon="6.03828">
        <ele>1263.31</ele>
        <time>2012-06-24T07:46:01Z</time>
      </trkpt>
      <trkpt lat="45.68424" lon="6.03837">
        <ele>1263.31</ele>
        <time>2012-06-24T07:46:02Z</time>
      </trkpt>
      <trkpt lat="45.68424" lon="6.03861">
        <ele>1260.91</ele>
        <time>2012-06-24T07:46:05Z</time>
      </trkpt>
      <trkpt lat="45.68425" lon="6.03879">
        <ele>1260.43</ele>
        <time>2012-06-24T07:46:07Z</time>
      </trkpt>
      <trkpt lat="45.68425" lon="6.03887">
        <ele>1260.43</ele>
        <time>2012-06-24T07:46:08Z</time>
      </trkpt>
      <trkpt lat="45.68425" lon="6.03913">
        <ele>1257.54</ele>
        <time>2012-06-24T07:46:11Z</time>
      </trkpt>
      <trkpt lat="45.68425" lon="6.0392">
        <ele>1257.06</ele>
        <time>2012-06-24T07:46:12Z</time>
      </trkpt>
      <trkpt lat="45.68425" lon="6.03928">
        <ele>1256.58</ele>
        <time>2012-06-24T07:46:13Z</time>
      </trkpt>
      <trkpt lat="45.68428" lon="6.03935">
        <ele>1256.58</ele>
        <time>2012-06-24T07:46:14Z</time>
      </trkpt>
      <trkpt lat="45.68431" lon="6.03942">
        <ele>1256.58</ele>
        <time>2012-06-24T07:46:15Z</time>
      </trkpt>
      <trkpt lat="45.68435" lon="6.03949">
        <ele>1256.1</ele>
        <time>2012-06-24T07:46:16Z</time>
      </trkpt>
      <trkpt lat="45.68439" lon="6.03956">
        <ele>1255.62</ele>
        <time>2012-06-24T07:46:17Z</time>
      </trkpt>
      <trkpt lat="45.68459" lon="6.03988">
        <ele>1254.66</ele>
        <time>2012-06-24T07:46:21Z</time>
      </trkpt>
      <trkpt lat="45.68493" lon="6.04045">
        <ele>1251.29</ele>
        <time>2012-06-24T07:46:27Z</time>
      </trkpt>
      <trkpt lat="45.68508" lon="6.04079">
        <ele>1247.93</ele>
        <time>2012-06-24T07:46:30Z</time>
      </trkpt>
      <trkpt lat="45.68527" lon="6.04128">
        <ele>1246.49</ele>
        <time>2012-06-24T07:46:34Z</time>
      </trkpt>
      <trkpt lat="45.68554" lon="6.04171">
        <ele>1243.12</ele>
        <time>2012-06-24T07:46:38Z</time>
      </trkpt>
      <trkpt lat="45.68562" lon="6.04181">
        <ele>1242.64</ele>
        <time>2012-06-24T07:46:39Z</time>
      </trkpt>
      <trkpt lat="45.68588" lon="6.04222">
        <ele>1239.28</ele>
        <time>2012-06-24T07:46:43Z</time>
      </trkpt>
      <trkpt lat="45.68597" lon="6.0424">
        <ele>1237.83</ele>
        <time>2012-06-24T07:46:45Z</time>
      </trkpt>
      <trkpt lat="45.68601" lon="6.0425">
        <ele>1237.35</ele>
        <time>2012-06-24T07:46:46Z</time>
      </trkpt>
      <trkpt lat="45.68613" lon="6.04281">
        <ele>1236.39</ele>
        <time>2012-06-24T07:46:49Z</time>
      </trkpt>
      <trkpt lat="45.68625" lon="6.04301">
        <ele>1234.47</ele>
        <time>2012-06-24T07:46:51Z</time>
      </trkpt>
      <trkpt lat="45.68632" lon="6.04309">
        <ele>1233.99</ele>
        <time>2012-06-24T07:46:52Z</time>
      </trkpt>
      <trkpt lat="45.6864" lon="6.04317">
        <ele>1233.51</ele>
        <time>2012-06-24T07:46:53Z</time>
      </trkpt>
      <trkpt lat="45.68647" lon="6.04323">
        <ele>1232.55</ele>
        <time>2012-06-24T07:46:54Z</time>
      </trkpt>
      <trkpt lat="45.68656" lon="6.04328">
        <ele>1231.11</ele>
        <time>2012-06-24T07:46:55Z</time>
      </trkpt>
      <trkpt lat="45.68693" lon="6.04357">
        <ele>1228.22</ele>
        <time>2012-06-24T07:47:00Z</time>
      </trkpt>
      <trkpt lat="45.68743" lon="6.04409">
        <ele>1224.38</ele>
        <time>2012-06-24T07:47:07Z</time>
      </trkpt>
      <trkpt lat="45.68786" lon="6.04448">
        <ele>1221.49</ele>
        <time>2012-06-24T07:47:12Z</time>
      </trkpt>
      <trkpt lat="45.68809" lon="6.0447">
        <ele>1219.57</ele>
        <time>2012-06-24T07:47:15Z</time>
      </trkpt>
      <trkpt lat="45.68839" lon="6.04497">
        <ele>1216.21</ele>
        <time>2012-06-24T07:47:19Z</time>
      </trkpt>
      <trkpt lat="45.68882" lon="6.0452">
        <ele>1212.84</ele>
        <time>2012-06-24T07:47:24Z</time>
      </trkpt>
      <trkpt lat="45.68908" lon="6.04536">
        <ele>1210.92</ele>
        <time>2012-06-24T07:47:27Z</time>
      </trkpt>
      <trkpt lat="45.68924" lon="6.0455">
        <ele>1209</ele>
        <time>2012-06-24T07:47:29Z</time>
      </trkpt>
      <trkpt lat="45.6893" lon="6.0456">
        <ele>1208.03</ele>
        <time>2012-06-24T07:47:30Z</time>
      </trkpt>
      <trkpt lat="45.68932" lon="6.04572">
        <ele>1207.55</ele>
        <time>2012-06-24T07:47:31Z</time>
      </trkpt>
      <trkpt lat="45.68931" lon="6.04585">
        <ele>1206.59</ele>
        <time>2012-06-24T07:47:32Z</time>
      </trkpt>
      <trkpt lat="45.68933" lon="6.04595">
        <ele>1206.59</ele>
        <time>2012-06-24T07:47:33Z</time>
      </trkpt>
      <trkpt lat="45.68935" lon="6.04605">
        <ele>1205.63</ele>
        <time>2012-06-24T07:47:34Z</time>
      </trkpt>
      <trkpt lat="45.68938" lon="6.04614">
        <ele>1205.63</ele>
        <time>2012-06-24T07:47:35Z</time>
      </trkpt>
      <trkpt lat="45.68942" lon="6.04622">
        <ele>1204.67</ele>
        <time>2012-06-24T07:47:36Z</time>
      </trkpt>
      <trkpt lat="45.68946" lon="6.04629">
        <ele>1204.67</ele>
        <time>2012-06-24T07:47:37Z</time>
      </trkpt>
      <trkpt lat="45.68951" lon="6.04634">
        <ele>1204.67</ele>
        <time>2012-06-24T07:47:38Z</time>
      </trkpt>
      <trkpt lat="45.68968" lon="6.04659">
        <ele>1206.59</ele>
        <time>2012-06-24T07:47:46Z</time>
      </trkpt>
      <trkpt lat="45.68975" lon="6.04663">
        <ele>1207.07</ele>
        <time>2012-06-24T07:47:50Z</time>
      </trkpt>
      <trkpt lat="45.68996" lon="6.0467">
        <ele>1209.48</ele>
        <time>2012-06-24T07:48:03Z</time>
      </trkpt>
      <trkpt lat="45.69026" lon="6.04666">
        <ele>1211.88</ele>
        <time>2012-06-24T07:48:17Z</time>
      </trkpt>
      <trkpt lat="45.69041" lon="6.0467">
        <ele>1213.32</ele>
        <time>2012-06-24T07:48:24Z</time>
      </trkpt>
      <trkpt lat="45.69042" lon="6.04671">
        <ele>1213.32</ele>
        <time>2012-06-24T07:48:25Z</time>
      </trkpt>
      <trkpt lat="45.69045" lon="6.04673">
        <ele>1213.32</ele>
        <time>2012-06-24T07:48:26Z</time>
      </trkpt>
      <trkpt lat="45.69047" lon="6.04674">
        <ele>1213.8</ele>
        <time>2012-06-24T07:48:27Z</time>
      </trkpt>
      <trkpt lat="45.69049" lon="6.04676">
        <ele>1213.8</ele>
        <time>2012-06-24T07:48:28Z</time>
      </trkpt>
      <trkpt lat="45.69077" lon="6.04692">
        <ele>1216.21</ele>
        <time>2012-06-24T07:48:41Z</time>
      </trkpt>
      <trkpt lat="45.69107" lon="6.0471">
        <ele>1217.65</ele>
        <time>2012-06-24T07:48:54Z</time>
      </trkpt>
      <trkpt lat="45.69133" lon="6.04721">
        <ele>1219.57</ele>
        <time>2012-06-24T07:49:06Z</time>
      </trkpt>
      <trkpt lat="45.69156" lon="6.04732">
        <ele>1221.49</ele>
        <time>2012-06-24T07:49:19Z</time>
      </trkpt>
      <trkpt lat="45.69182" lon="6.04724">
        <ele>1223.9</ele>
        <time>2012-06-24T07:49:33Z</time>
      </trkpt>
      <trkpt lat="45.69209" lon="6.04719">
        <ele>1225.82</ele>
        <time>2012-06-24T07:49:46Z</time>
      </trkpt>
      <trkpt lat="45.69237" lon="6.04733">
        <ele>1227.74</ele>
        <time>2012-06-24T07:50:01Z</time>
      </trkpt>
      <trkpt lat="45.69262" lon="6.04738">
        <ele>1230.14</ele>
        <time>2012-06-24T07:50:15Z</time>
      </trkpt>
      <trkpt lat="45.6929" lon="6.04714">
        <ele>1231.59</ele>
        <time>2012-06-24T07:50:30Z</time>
      </trkpt>
      <trkpt lat="45.69312" lon="6.04702">
        <ele>1233.51</ele>
        <time>2012-06-24T07:50:43Z</time>
      </trkpt>
      <trkpt lat="45.69328" lon="6.0467">
        <ele>1235.43</ele>
        <time>2012-06-24T07:50:57Z</time>
      </trkpt>
      <trkpt lat="45.69346" lon="6.04655">
        <ele>1237.83</ele>
        <time>2012-06-24T07:51:09Z</time>
      </trkpt>
      <trkpt lat="45.69347" lon="6.04655">
        <ele>1237.83</ele>
        <time>2012-06-24T07:51:10Z</time>
      </trkpt>
      <trkpt lat="45.69349" lon="6.04656">
        <ele>1237.83</ele>
        <time>2012-06-24T07:51:11Z</time>
      </trkpt>
      <trkpt lat="45.6935" lon="6.04657">
        <ele>1237.83</ele>
        <time>2012-06-24T07:51:12Z</time>
      </trkpt>
      <trkpt lat="45.69352" lon="6.04659">
        <ele>1238.32</ele>
        <time>2012-06-24T07:51:13Z</time>
      </trkpt>
      <trkpt lat="45.69354" lon="6.0466">
        <ele>1238.32</ele>
        <time>2012-06-24T07:51:14Z</time>
      </trkpt>
      <trkpt lat="45.69356" lon="6.04661">
        <ele>1238.32</ele>
        <time>2012-06-24T07:51:15Z</time>
      </trkpt>
      <trkpt lat="45.69379" lon="6.04677">
        <ele>1240.72</ele>
        <time>2012-06-24T07:51:30Z</time>
      </trkpt>
      <trkpt lat="45.69402" lon="6.04658">
        <ele>1242.64</ele>
        <time>2012-06-24T07:51:43Z</time>
      </trkpt>
      <trkpt lat="45.69422" lon="6.04639">
        <ele>1244.08</ele>
        <time>2012-06-24T07:51:56Z</time>
      </trkpt>
      <trkpt lat="45.6945" lon="6.04657">
        <ele>1246.49</ele>
        <time>2012-06-24T07:52:11Z</time>
      </trkpt>
      <trkpt lat="45.69476" lon="6.0469">
        <ele>1248.41</ele>
        <time>2012-06-24T07:52:26Z</time>
      </trkpt>
      <trkpt lat="45.69494" lon="6.04728">
        <ele>1249.85</ele>
        <time>2012-06-24T07:52:42Z</time>
      </trkpt>
      <trkpt lat="45.69511" lon="6.04747">
        <ele>1250.33</ele>
        <time>2012-06-24T07:52:56Z</time>
      </trkpt>
      <trkpt lat="45.69515" lon="6.04748">
        <ele>1252.74</ele>
        <time>2012-06-24T07:52:58Z</time>
      </trkpt>
      <trkpt lat="45.69532" lon="6.04739">
        <ele>1252.25</ele>
        <time>2012-06-24T07:53:07Z</time>
      </trkpt>
      <trkpt lat="45.69557" lon="6.04721">
        <ele>1254.66</ele>
        <time>2012-06-24T07:53:21Z</time>
      </trkpt>
      <trkpt lat="45.69583" lon="6.04716">
        <ele>1256.1</ele>
        <time>2012-06-24T07:53:33Z</time>
      </trkpt>
      <trkpt lat="45.69612" lon="6.04717">
        <ele>1258.5</ele>
        <time>2012-06-24T07:53:47Z</time>
      </trkpt>
      <trkpt lat="45.69635" lon="6.04705">
        <ele>1260.43</ele>
        <time>2012-06-24T07:53:59Z</time>
      </trkpt>
      <trkpt lat="45.69664" lon="6.04686">
        <ele>1261.87</ele>
        <time>2012-06-24T07:54:14Z</time>
      </trkpt>
      <trkpt lat="45.69695" lon="6.04676">
        <ele>1263.79</ele>
        <time>2012-06-24T07:54:28Z</time>
      </trkpt>
      <trkpt lat="45.69712" lon="6.04651">
        <ele>1265.23</ele>
        <time>2012-06-24T07:54:40Z</time>
      </trkpt>
      <trkpt lat="45.69687" lon="6.04642">
        <ele>1267.64</ele>
        <time>2012-06-24T07:54:53Z</time>
      </trkpt>
      <trkpt lat="45.69665" lon="6.04651">
        <ele>1270.04</ele>
        <time>2012-06-24T07:55:07Z</time>
      </trkpt>
      <trkpt lat="45.69639" lon="6.0465">
        <ele>1271.96</ele>
        <time>2012-06-24T07:55:22Z</time>
      </trkpt>
      <trkpt lat="45.69618" lon="6.04629">
        <ele>1274.36</ele>
        <time>2012-06-24T07:55:36Z</time>
      </trkpt>
      <trkpt lat="45.69593" lon="6.04613">
        <ele>1277.25</ele>
        <time>2012-06-24T07:55:52Z</time>
      </trkpt>
      <trkpt lat="45.69577" lon="6.04588">
        <ele>1278.69</ele>
        <time>2012-06-24T07:56:07Z</time>
      </trkpt>
      <trkpt lat="45.69568" lon="6.04546">
        <ele>1280.61</ele>
        <time>2012-06-24T07:56:24Z</time>
      </trkpt>
      <trkpt lat="45.69554" lon="6.04509">
        <ele>1283.5</ele>
        <time>2012-06-24T07:56:41Z</time>
      </trkpt>
      <trkpt lat="45.69556" lon="6.04467">
        <ele>1285.9</ele>
        <time>2012-06-24T07:56:57Z</time>
      </trkpt>
      <trkpt lat="45.69568" lon="6.04422">
        <ele>1287.82</ele>
        <time>2012-06-24T07:57:13Z</time>
      </trkpt>
      <trkpt lat="45.69588" lon="6.04376">
        <ele>1288.3</ele>
        <time>2012-06-24T07:57:25Z</time>
      </trkpt>
      <trkpt lat="45.69623" lon="6.04334">
        <ele>1288.78</ele>
        <time>2012-06-24T07:57:37Z</time>
      </trkpt>
      <trkpt lat="45.69652" lon="6.04295">
        <ele>1289.75</ele>
        <time>2012-06-24T07:57:49Z</time>
      </trkpt>
      <trkpt lat="45.69684" lon="6.0427">
        <ele>1289.27</ele>
        <time>2012-06-24T07:57:58Z</time>
      </trkpt>
      <trkpt lat="45.69697" lon="6.04259">
        <ele>1288.78</ele>
        <time>2012-06-24T07:58:01Z</time>
      </trkpt>
      <trkpt lat="45.69702" lon="6.04255">
        <ele>1289.27</ele>
        <time>2012-06-24T07:58:02Z</time>
      </trkpt>
      <trkpt lat="45.69706" lon="6.04251">
        <ele>1289.27</ele>
        <time>2012-06-24T07:58:03Z</time>
      </trkpt>
      <trkpt lat="45.6971" lon="6.04246">
        <ele>1289.27</ele>
        <time>2012-06-24T07:58:04Z</time>
      </trkpt>
      <trkpt lat="45.69713" lon="6.0424">
        <ele>1289.27</ele>
        <time>2012-06-24T07:58:05Z</time>
      </trkpt>
      <trkpt lat="45.69716" lon="6.04234">
        <ele>1288.3</ele>
        <time>2012-06-24T07:58:06Z</time>
      </trkpt>
      <trkpt lat="45.69718" lon="6.04228">
        <ele>1288.78</ele>
        <time>2012-06-24T07:58:07Z</time>
      </trkpt>
      <trkpt lat="45.69718" lon="6.04221">
        <ele>1288.3</ele>
        <time>2012-06-24T07:58:08Z</time>
      </trkpt>
      <trkpt lat="45.69717" lon="6.04214">
        <ele>1288.78</ele>
        <time>2012-06-24T07:58:09Z</time>
      </trkpt>
      <trkpt lat="45.69715" lon="6.04207">
        <ele>1289.27</ele>
        <time>2012-06-24T07:58:10Z</time>
      </trkpt>
      <trkpt lat="45.69712" lon="6.042">
        <ele>1288.78</ele>
        <time>2012-06-24T07:58:11Z</time>
      </trkpt>
      <trkpt lat="45.69709" lon="6.04194">
        <ele>1288.3</ele>
        <time>2012-06-24T07:58:12Z</time>
      </trkpt>
      <trkpt lat="45.69705" lon="6.04188">
        <ele>1288.3</ele>
        <time>2012-06-24T07:58:13Z</time>
      </trkpt>
      <trkpt lat="45.69701" lon="6.04184">
        <ele>1288.3</ele>
        <time>2012-06-24T07:58:14Z</time>
      </trkpt>
      <trkpt lat="45.69696" lon="6.0418">
        <ele>1288.3</ele>
        <time>2012-06-24T07:58:15Z</time>
      </trkpt>
      <trkpt lat="45.69681" lon="6.0417">
        <ele>1288.3</ele>
        <time>2012-06-24T07:58:18Z</time>
      </trkpt>
      <trkpt lat="45.69676" lon="6.04168">
        <ele>1287.82</ele>
        <time>2012-06-24T07:58:19Z</time>
      </trkpt>
      <trkpt lat="45.69671" lon="6.04167">
        <ele>1287.82</ele>
        <time>2012-06-24T07:58:20Z</time>
      </trkpt>
      <trkpt lat="45.69627" lon="6.04148">
        <ele>1289.75</ele>
        <time>2012-06-24T07:58:32Z</time>
      </trkpt>
      <trkpt lat="45.69597" lon="6.0413">
        <ele>1291.67</ele>
        <time>2012-06-24T07:58:44Z</time>
      </trkpt>
      <trkpt lat="45.69566" lon="6.04142">
        <ele>1293.59</ele>
        <time>2012-06-24T07:58:56Z</time>
      </trkpt>
      <trkpt lat="45.69542" lon="6.04176">
        <ele>1295.99</ele>
        <time>2012-06-24T07:59:09Z</time>
      </trkpt>
      <trkpt lat="45.69521" lon="6.04208">
        <ele>1297.92</ele>
        <time>2012-06-24T07:59:20Z</time>
      </trkpt>
      <trkpt lat="45.69497" lon="6.04182">
        <ele>1299.84</ele>
        <time>2012-06-24T07:59:31Z</time>
      </trkpt>
      <trkpt lat="45.69494" lon="6.04128">
        <ele>1301.28</ele>
        <time>2012-06-24T07:59:45Z</time>
      </trkpt>
      <trkpt lat="45.69479" lon="6.04079">
        <ele>1303.2</ele>
        <time>2012-06-24T08:00:00Z</time>
      </trkpt>
      <trkpt lat="45.69451" lon="6.04079">
        <ele>1303.69</ele>
        <time>2012-06-24T08:00:11Z</time>
      </trkpt>
      <trkpt lat="45.69417" lon="6.04096">
        <ele>1305.61</ele>
        <time>2012-06-24T08:00:25Z</time>
      </trkpt>
      <trkpt lat="45.69381" lon="6.0412">
        <ele>1308.01</ele>
        <time>2012-06-24T08:00:42Z</time>
      </trkpt>
      <trkpt lat="45.69344" lon="6.0412">
        <ele>1308.49</ele>
        <time>2012-06-24T08:00:56Z</time>
      </trkpt>
      <trkpt lat="45.69315" lon="6.04072">
        <ele>1309.45</ele>
        <time>2012-06-24T08:01:09Z</time>
      </trkpt>
      <trkpt lat="45.69285" lon="6.04017">
        <ele>1310.9</ele>
        <time>2012-06-24T08:01:24Z</time>
      </trkpt>
      <trkpt lat="45.69271" lon="6.03973">
        <ele>1312.82</ele>
        <time>2012-06-24T08:01:36Z</time>
      </trkpt>
      <trkpt lat="45.69243" lon="6.03939">
        <ele>1314.74</ele>
        <time>2012-06-24T08:01:51Z</time>
      </trkpt>
      <trkpt lat="45.69208" lon="6.03924">
        <ele>1316.18</ele>
        <time>2012-06-24T08:02:05Z</time>
      </trkpt>
      <trkpt lat="45.69173" lon="6.03907">
        <ele>1318.59</ele>
        <time>2012-06-24T08:02:19Z</time>
      </trkpt>
      <trkpt lat="45.69139" lon="6.03876">
        <ele>1319.07</ele>
        <time>2012-06-24T08:02:31Z</time>
      </trkpt>
      <trkpt lat="45.69124" lon="6.03865">
        <ele>1318.59</ele>
        <time>2012-06-24T08:02:35Z</time>
      </trkpt>
      <trkpt lat="45.6912" lon="6.03863">
        <ele>1318.59</ele>
        <time>2012-06-24T08:02:36Z</time>
      </trkpt>
      <trkpt lat="45.69079" lon="6.03856">
        <ele>1318.1</ele>
        <time>2012-06-24T08:02:45Z</time>
      </trkpt>
      <trkpt lat="45.69074" lon="6.03854">
        <ele>1318.1</ele>
        <time>2012-06-24T08:02:46Z</time>
      </trkpt>
      <trkpt lat="45.69065" lon="6.0385">
        <ele>1318.1</ele>
        <time>2012-06-24T08:02:48Z</time>
      </trkpt>
      <trkpt lat="45.69058" lon="6.03844">
        <ele>1318.1</ele>
        <time>2012-06-24T08:02:50Z</time>
      </trkpt>
      <trkpt lat="45.69046" lon="6.03826">
        <ele>1318.59</ele>
        <time>2012-06-24T08:02:54Z</time>
      </trkpt>
      <trkpt lat="45.69031" lon="6.03755">
        <ele>1320.03</ele>
        <time>2012-06-24T08:03:09Z</time>
      </trkpt>
      <trkpt lat="45.69013" lon="6.03689">
        <ele>1321.47</ele>
        <time>2012-06-24T08:03:24Z</time>
      </trkpt>
      <trkpt lat="45.68977" lon="6.03636">
        <ele>1323.39</ele>
        <time>2012-06-24T08:03:39Z</time>
      </trkpt>
      <trkpt lat="45.68945" lon="6.03656">
        <ele>1323.39</ele>
        <time>2012-06-24T08:03:49Z</time>
      </trkpt>
      <trkpt lat="45.68913" lon="6.03675">
        <ele>1322.43</ele>
        <time>2012-06-24T08:03:56Z</time>
      </trkpt>
      <trkpt lat="45.68908" lon="6.03678">
        <ele>1322.43</ele>
        <time>2012-06-24T08:03:57Z</time>
      </trkpt>
      <trkpt lat="45.68902" lon="6.0368">
        <ele>1322.43</ele>
        <time>2012-06-24T08:03:58Z</time>
      </trkpt>
      <trkpt lat="45.68896" lon="6.03681">
        <ele>1321.95</ele>
        <time>2012-06-24T08:03:59Z</time>
      </trkpt>
      <trkpt lat="45.68889" lon="6.03682">
        <ele>1321.95</ele>
        <time>2012-06-24T08:04:00Z</time>
      </trkpt>
      <trkpt lat="45.68883" lon="6.03682">
        <ele>1321.47</ele>
        <time>2012-06-24T08:04:01Z</time>
      </trkpt>
      <trkpt lat="45.68876" lon="6.0368">
        <ele>1321.47</ele>
        <time>2012-06-24T08:04:02Z</time>
      </trkpt>
      <trkpt lat="45.6887" lon="6.03676">
        <ele>1320.99</ele>
        <time>2012-06-24T08:04:03Z</time>
      </trkpt>
      <trkpt lat="45.68864" lon="6.03671">
        <ele>1320.99</ele>
        <time>2012-06-24T08:04:04Z</time>
      </trkpt>
      <trkpt lat="45.68859" lon="6.03664">
        <ele>1320.51</ele>
        <time>2012-06-24T08:04:05Z</time>
      </trkpt>
      <trkpt lat="45.68855" lon="6.03657">
        <ele>1320.99</ele>
        <time>2012-06-24T08:04:06Z</time>
      </trkpt>
      <trkpt lat="45.68834" lon="6.03623">
        <ele>1320.03</ele>
        <time>2012-06-24T08:04:11Z</time>
      </trkpt>
      <trkpt lat="45.68831" lon="6.03615">
        <ele>1320.03</ele>
        <time>2012-06-24T08:04:12Z</time>
      </trkpt>
      <trkpt lat="45.6883" lon="6.03606">
        <ele>1320.51</ele>
        <time>2012-06-24T08:04:13Z</time>
      </trkpt>
      <trkpt lat="45.68831" lon="6.03597">
        <ele>1320.03</ele>
        <time>2012-06-24T08:04:14Z</time>
      </trkpt>
      <trkpt lat="45.68831" lon="6.03589">
        <ele>1320.51</ele>
        <time>2012-06-24T08:04:15Z</time>
      </trkpt>
      <trkpt lat="45.68834" lon="6.03566">
        <ele>1320.51</ele>
        <time>2012-06-24T08:04:18Z</time>
      </trkpt>
      <trkpt lat="45.68835" lon="6.03514">
        <ele>1320.51</ele>
        <time>2012-06-24T08:04:25Z</time>
      </trkpt>
      <trkpt lat="45.68838" lon="6.03498">
        <ele>1320.51</ele>
        <time>2012-06-24T08:04:27Z</time>
      </trkpt>
      <trkpt lat="45.68838" lon="6.03491">
        <ele>1320.51</ele>
        <time>2012-06-24T08:04:28Z</time>
      </trkpt>
      <trkpt lat="45.68835" lon="6.03469">
        <ele>1320.03</ele>
        <time>2012-06-24T08:04:31Z</time>
      </trkpt>
      <trkpt lat="45.68834" lon="6.03462">
        <ele>1320.99</ele>
        <time>2012-06-24T08:04:32Z</time>
      </trkpt>
      <trkpt lat="45.68831" lon="6.03455">
        <ele>1320.51</ele>
        <time>2012-06-24T08:04:33Z</time>
      </trkpt>
      <trkpt lat="45.68827" lon="6.0345">
        <ele>1320.99</ele>
        <time>2012-06-24T08:04:34Z</time>
      </trkpt>
      <trkpt lat="45.68824" lon="6.03445">
        <ele>1320.03</ele>
        <time>2012-06-24T08:04:35Z</time>
      </trkpt>
      <trkpt lat="45.68821" lon="6.0344">
        <ele>1320.51</ele>
        <time>2012-06-24T08:04:36Z</time>
      </trkpt>
      <trkpt lat="45.68804" lon="6.03417">
        <ele>1320.99</ele>
        <time>2012-06-24T08:04:41Z</time>
      </trkpt>
      <trkpt lat="45.68801" lon="6.03412">
        <ele>1320.99</ele>
        <time>2012-06-24T08:04:42Z</time>
      </trkpt>
      <trkpt lat="45.68758" lon="6.03363">
        <ele>1321.95</ele>
        <time>2012-06-24T08:04:54Z</time>
      </trkpt>
      <trkpt lat="45.68754" lon="6.0336">
        <ele>1321.95</ele>
        <time>2012-06-24T08:04:55Z</time>
      </trkpt>
      <trkpt lat="45.68727" lon="6.03326">
        <ele>1324.83</ele>
        <time>2012-06-24T08:05:06Z</time>
      </trkpt>
      <trkpt lat="45.68693" lon="6.03293">
        <ele>1327.72</ele>
        <time>2012-06-24T08:05:20Z</time>
      </trkpt>
      <trkpt lat="45.68655" lon="6.03262">
        <ele>1329.64</ele>
        <time>2012-06-24T08:05:35Z</time>
      </trkpt>
      <trkpt lat="45.68614" lon="6.03242">
        <ele>1329.16</ele>
        <time>2012-06-24T08:05:48Z</time>
      </trkpt>
      <trkpt lat="45.68553" lon="6.03243">
        <ele>1328.2</ele>
        <time>2012-06-24T08:05:59Z</time>
      </trkpt>
      <trkpt lat="45.68539" lon="6.03243">
        <ele>1328.2</ele>
        <time>2012-06-24T08:06:01Z</time>
      </trkpt>
      <trkpt lat="45.68486" lon="6.0325">
        <ele>1326.28</ele>
        <time>2012-06-24T08:06:09Z</time>
      </trkpt>
      <trkpt lat="45.68481" lon="6.0325">
        <ele>1325.8</ele>
        <time>2012-06-24T08:06:10Z</time>
      </trkpt>
      <trkpt lat="45.68478" lon="6.03247">
        <ele>1325.8</ele>
        <time>2012-06-24T08:06:11Z</time>
      </trkpt>
      <trkpt lat="45.68476" lon="6.03243">
        <ele>1325.8</ele>
        <time>2012-06-24T08:06:12Z</time>
      </trkpt>
      <trkpt lat="45.68476" lon="6.03239">
        <ele>1326.28</ele>
        <time>2012-06-24T08:06:13Z</time>
      </trkpt>
      <trkpt lat="45.68476" lon="6.03235">
        <ele>1326.28</ele>
        <time>2012-06-24T08:06:14Z</time>
      </trkpt>
      <trkpt lat="45.68477" lon="6.03232">
        <ele>1326.28</ele>
        <time>2012-06-24T08:06:15Z</time>
      </trkpt>
      <trkpt lat="45.68479" lon="6.03229">
        <ele>1326.28</ele>
        <time>2012-06-24T08:06:16Z</time>
      </trkpt>
      <trkpt lat="45.68481" lon="6.03226">
        <ele>1327.24</ele>
        <time>2012-06-24T08:06:17Z</time>
      </trkpt>
      <trkpt lat="45.68482" lon="6.03224">
        <ele>1326.76</ele>
        <time>2012-06-24T08:06:18Z</time>
      </trkpt>
      <trkpt lat="45.68493" lon="6.03207">
        <ele>1327.72</ele>
        <time>2012-06-24T08:06:26Z</time>
      </trkpt>
      <trkpt lat="45.68488" lon="6.03145">
        <ele>1329.64</ele>
        <time>2012-06-24T08:06:39Z</time>
      </trkpt>
      <trkpt lat="45.68493" lon="6.03102">
        <ele>1331.56</ele>
        <time>2012-06-24T08:06:50Z</time>
      </trkpt>
      <trkpt lat="45.6849" lon="6.03062">
        <ele>1333.01</ele>
        <time>2012-06-24T08:07:01Z</time>
      </trkpt>
      <trkpt lat="45.6849" lon="6.03059">
        <ele>1332.52</ele>
        <time>2012-06-24T08:07:02Z</time>
      </trkpt>
      <trkpt lat="45.68489" lon="6.03055">
        <ele>1333.01</ele>
        <time>2012-06-24T08:07:03Z</time>
      </trkpt>
      <trkpt lat="45.68488" lon="6.03052">
        <ele>1333.01</ele>
        <time>2012-06-24T08:07:04Z</time>
      </trkpt>
      <trkpt lat="45.68488" lon="6.03048">
        <ele>1333.01</ele>
        <time>2012-06-24T08:07:05Z</time>
      </trkpt>
      <trkpt lat="45.68481" lon="6.03006">
        <ele>1334.45</ele>
        <time>2012-06-24T08:07:17Z</time>
      </trkpt>
      <trkpt lat="45.68462" lon="6.02968">
        <ele>1336.37</ele>
        <time>2012-06-24T08:07:31Z</time>
      </trkpt>
      <trkpt lat="45.6844" lon="6.02941">
        <ele>1337.81</ele>
        <time>2012-06-24T08:07:44Z</time>
      </trkpt>
      <trkpt lat="45.6844" lon="6.02885">
        <ele>1339.73</ele>
        <time>2012-06-24T08:07:59Z</time>
      </trkpt>
      <trkpt lat="45.68466" lon="6.02853">
        <ele>1341.66</ele>
        <time>2012-06-24T08:08:13Z</time>
      </trkpt>
      <trkpt lat="45.68487" lon="6.02818">
        <ele>1343.58</ele>
        <time>2012-06-24T08:08:26Z</time>
      </trkpt>
      <trkpt lat="45.68498" lon="6.02761">
        <ele>1344.54</ele>
        <time>2012-06-24T08:08:42Z</time>
      </trkpt>
      <trkpt lat="45.68502" lon="6.02711">
        <ele>1347.43</ele>
        <time>2012-06-24T08:08:57Z</time>
      </trkpt>
      <trkpt lat="45.685" lon="6.0266">
        <ele>1348.87</ele>
        <time>2012-06-24T08:09:12Z</time>
      </trkpt>
      <trkpt lat="45.68495" lon="6.02612">
        <ele>1350.79</ele>
        <time>2012-06-24T08:09:27Z</time>
      </trkpt>
      <trkpt lat="45.68493" lon="6.02556">
        <ele>1353.19</ele>
        <time>2012-06-24T08:09:43Z</time>
      </trkpt>
      <trkpt lat="45.68476" lon="6.02511">
        <ele>1355.12</ele>
        <time>2012-06-24T08:09:58Z</time>
      </trkpt>
      <trkpt lat="45.68438" lon="6.02488">
        <ele>1357.52</ele>
        <time>2012-06-24T08:10:15Z</time>
      </trkpt>
      <trkpt lat="45.68404" lon="6.02474">
        <ele>1358</ele>
        <time>2012-06-24T08:10:29Z</time>
      </trkpt>
      <trkpt lat="45.68373" lon="6.02455">
        <ele>1359.92</ele>
        <time>2012-06-24T08:10:43Z</time>
      </trkpt>
      <trkpt lat="45.68341" lon="6.02428">
        <ele>1361.84</ele>
        <time>2012-06-24T08:10:59Z</time>
      </trkpt>
      <trkpt lat="45.68302" lon="6.02405">
        <ele>1363.77</ele>
        <time>2012-06-24T08:11:15Z</time>
      </trkpt>
      <trkpt lat="45.68261" lon="6.02376">
        <ele>1365.21</ele>
        <time>2012-06-24T08:11:30Z</time>
      </trkpt>
      <trkpt lat="45.68224" lon="6.02311">
        <ele>1364.25</ele>
        <time>2012-06-24T08:11:45Z</time>
      </trkpt>
      <trkpt lat="45.68208" lon="6.02276">
        <ele>1364.25</ele>
        <time>2012-06-24T08:11:51Z</time>
      </trkpt>
      <trkpt lat="45.68154" lon="6.02208">
        <ele>1362.33</ele>
        <time>2012-06-24T08:12:03Z</time>
      </trkpt>
      <trkpt lat="45.68114" lon="6.02151">
        <ele>1360.4</ele>
        <time>2012-06-24T08:12:12Z</time>
      </trkpt>
      <trkpt lat="45.68109" lon="6.02146">
        <ele>1360.4</ele>
        <time>2012-06-24T08:12:13Z</time>
      </trkpt>
      <trkpt lat="45.68057" lon="6.02113">
        <ele>1358.96</ele>
        <time>2012-06-24T08:12:22Z</time>
      </trkpt>
      <trkpt lat="45.6805" lon="6.02108">
        <ele>1357.52</ele>
        <time>2012-06-24T08:12:23Z</time>
      </trkpt>
      <trkpt lat="45.68045" lon="6.02101">
        <ele>1358</ele>
        <time>2012-06-24T08:12:24Z</time>
      </trkpt>
      <trkpt lat="45.68041" lon="6.02094">
        <ele>1358</ele>
        <time>2012-06-24T08:12:25Z</time>
      </trkpt>
      <trkpt lat="45.68039" lon="6.02085">
        <ele>1357.04</ele>
        <time>2012-06-24T08:12:26Z</time>
      </trkpt>
      <trkpt lat="45.68036" lon="6.02078">
        <ele>1357.04</ele>
        <time>2012-06-24T08:12:27Z</time>
      </trkpt>
      <trkpt lat="45.68034" lon="6.02071">
        <ele>1356.56</ele>
        <time>2012-06-24T08:12:28Z</time>
      </trkpt>
      <trkpt lat="45.68028" lon="6.02064">
        <ele>1356.56</ele>
        <time>2012-06-24T08:12:30Z</time>
      </trkpt>
      <trkpt lat="45.68024" lon="6.02064">
        <ele>1356.08</ele>
        <time>2012-06-24T08:12:31Z</time>
      </trkpt>
      <trkpt lat="45.68022" lon="6.02066">
        <ele>1355.6</ele>
        <time>2012-06-24T08:12:32Z</time>
      </trkpt>
      <trkpt lat="45.68021" lon="6.0207">
        <ele>1356.56</ele>
        <time>2012-06-24T08:12:33Z</time>
      </trkpt>
      <trkpt lat="45.6802" lon="6.02074">
        <ele>1356.08</ele>
        <time>2012-06-24T08:12:34Z</time>
      </trkpt>
      <trkpt lat="45.6801" lon="6.0213">
        <ele>1359.44</ele>
        <time>2012-06-24T08:12:49Z</time>
      </trkpt>
      <trkpt lat="45.67999" lon="6.02168">
        <ele>1362.33</ele>
        <time>2012-06-24T08:13:01Z</time>
      </trkpt>
      <trkpt lat="45.67987" lon="6.02198">
        <ele>1363.77</ele>
        <time>2012-06-24T08:13:12Z</time>
      </trkpt>
      <trkpt lat="45.67979" lon="6.02199">
        <ele>1364.25</ele>
        <time>2012-06-24T08:13:16Z</time>
      </trkpt>
      <trkpt lat="45.67963" lon="6.02183">
        <ele>1367.13</ele>
        <time>2012-06-24T08:13:29Z</time>
      </trkpt>
      <trkpt lat="45.67959" lon="6.02155">
        <ele>1369.05</ele>
        <time>2012-06-24T08:13:42Z</time>
      </trkpt>
      <trkpt lat="45.67948" lon="6.02128">
        <ele>1370.5</ele>
        <time>2012-06-24T08:13:55Z</time>
      </trkpt>
      <trkpt lat="45.67927" lon="6.02095">
        <ele>1371.46</ele>
        <time>2012-06-24T08:14:09Z</time>
      </trkpt>
      <trkpt lat="45.67902" lon="6.02048">
        <ele>1372.42</ele>
        <time>2012-06-24T08:14:24Z</time>
      </trkpt>
      <trkpt lat="45.67892" lon="6.02005">
        <ele>1374.34</ele>
        <time>2012-06-24T08:14:37Z</time>
      </trkpt>
      <trkpt lat="45.67881" lon="6.01965">
        <ele>1370.98</ele>
        <time>2012-06-24T08:14:49Z</time>
      </trkpt>
      <trkpt lat="45.67888" lon="6.01941">
        <ele>1372.42</ele>
        <time>2012-06-24T08:14:55Z</time>
      </trkpt>
      <trkpt lat="45.67905" lon="6.01913">
        <ele>1374.82</ele>
        <time>2012-06-24T08:15:09Z</time>
      </trkpt>
      <trkpt lat="45.6792" lon="6.01885">
        <ele>1373.86</ele>
        <time>2012-06-24T08:15:21Z</time>
      </trkpt>
      <trkpt lat="45.6793" lon="6.01858">
        <ele>1370.5</ele>
        <time>2012-06-24T08:15:29Z</time>
      </trkpt>
      <trkpt lat="45.67935" lon="6.01848">
        <ele>1366.17</ele>
        <time>2012-06-24T08:15:32Z</time>
      </trkpt>
      <trkpt lat="45.67937" lon="6.0184">
        <ele>1365.21</ele>
        <time>2012-06-24T08:15:34Z</time>
      </trkpt>
      <trkpt lat="45.67937" lon="6.01821">
        <ele>1364.73</ele>
        <time>2012-06-24T08:15:38Z</time>
      </trkpt>
      <trkpt lat="45.67936" lon="6.01818">
        <ele>1364.73</ele>
        <time>2012-06-24T08:15:39Z</time>
      </trkpt>
      <trkpt lat="45.67936" lon="6.01814">
        <ele>1365.69</ele>
        <time>2012-06-24T08:15:40Z</time>
      </trkpt>
      <trkpt lat="45.6792" lon="6.01778">
        <ele>1367.13</ele>
        <time>2012-06-24T08:15:53Z</time>
      </trkpt>
      <trkpt lat="45.67884" lon="6.01747">
        <ele>1366.65</ele>
        <time>2012-06-24T08:16:06Z</time>
      </trkpt>
      <trkpt lat="45.67881" lon="6.01746">
        <ele>1367.13</ele>
        <time>2012-06-24T08:16:07Z</time>
      </trkpt>
      <trkpt lat="45.6785" lon="6.0173">
        <ele>1367.61</ele>
        <time>2012-06-24T08:16:16Z</time>
      </trkpt>
      <trkpt lat="45.67846" lon="6.01728">
        <ele>1367.13</ele>
        <time>2012-06-24T08:16:17Z</time>
      </trkpt>
      <trkpt lat="45.67842" lon="6.01726">
        <ele>1367.61</ele>
        <time>2012-06-24T08:16:18Z</time>
      </trkpt>
      <trkpt lat="45.67838" lon="6.01724">
        <ele>1367.61</ele>
        <time>2012-06-24T08:16:19Z</time>
      </trkpt>
      <trkpt lat="45.67834" lon="6.01722">
        <ele>1367.13</ele>
        <time>2012-06-24T08:16:20Z</time>
      </trkpt>
      <trkpt lat="45.67829" lon="6.01721">
        <ele>1367.13</ele>
        <time>2012-06-24T08:16:21Z</time>
      </trkpt>
      <trkpt lat="45.67769" lon="6.01702">
        <ele>1366.65</ele>
        <time>2012-06-24T08:16:33Z</time>
      </trkpt>
      <trkpt lat="45.67764" lon="6.01699">
        <ele>1367.13</ele>
        <time>2012-06-24T08:16:34Z</time>
      </trkpt>
      <trkpt lat="45.67747" lon="6.01683">
        <ele>1366.65</ele>
        <time>2012-06-24T08:16:38Z</time>
      </trkpt>
      <trkpt lat="45.67743" lon="6.01678">
        <ele>1366.17</ele>
        <time>2012-06-24T08:16:39Z</time>
      </trkpt>
      <trkpt lat="45.67741" lon="6.01671">
        <ele>1366.65</ele>
        <time>2012-06-24T08:16:40Z</time>
      </trkpt>
      <trkpt lat="45.67739" lon="6.01658">
        <ele>1365.21</ele>
        <time>2012-06-24T08:16:42Z</time>
      </trkpt>
      <trkpt lat="45.6774" lon="6.01653">
        <ele>1364.73</ele>
        <time>2012-06-24T08:16:43Z</time>
      </trkpt>
      <trkpt lat="45.67741" lon="6.01648">
        <ele>1363.77</ele>
        <time>2012-06-24T08:16:44Z</time>
      </trkpt>
      <trkpt lat="45.67755" lon="6.01619">
        <ele>1360.4</ele>
        <time>2012-06-24T08:16:49Z</time>
      </trkpt>
      <trkpt lat="45.67758" lon="6.01612">
        <ele>1359.92</ele>
        <time>2012-06-24T08:16:50Z</time>
      </trkpt>
      <trkpt lat="45.6776" lon="6.01606">
        <ele>1359.92</ele>
        <time>2012-06-24T08:16:51Z</time>
      </trkpt>
      <trkpt lat="45.67762" lon="6.01601">
        <ele>1359.92</ele>
        <time>2012-06-24T08:16:52Z</time>
      </trkpt>
      <trkpt lat="45.67765" lon="6.01596">
        <ele>1359.44</ele>
        <time>2012-06-24T08:16:53Z</time>
      </trkpt>
      <trkpt lat="45.67781" lon="6.01566">
        <ele>1358.96</ele>
        <time>2012-06-24T08:17:01Z</time>
      </trkpt>
      <trkpt lat="45.67784" lon="6.01533">
        <ele>1360.88</ele>
        <time>2012-06-24T08:17:11Z</time>
      </trkpt>
      <trkpt lat="45.67785" lon="6.0153">
        <ele>1361.36</ele>
        <time>2012-06-24T08:17:12Z</time>
      </trkpt>
      <trkpt lat="45.67785" lon="6.01527">
        <ele>1361.84</ele>
        <time>2012-06-24T08:17:13Z</time>
      </trkpt>
      <trkpt lat="45.67786" lon="6.01524">
        <ele>1361.84</ele>
        <time>2012-06-24T08:17:14Z</time>
      </trkpt>
      <trkpt lat="45.67786" lon="6.01522">
        <ele>1361.84</ele>
        <time>2012-06-24T08:17:15Z</time>
      </trkpt>
      <trkpt lat="45.67787" lon="6.0152">
        <ele>1361.84</ele>
        <time>2012-06-24T08:17:16Z</time>
      </trkpt>
      <trkpt lat="45.67789" lon="6.01518">
        <ele>1361.84</ele>
        <time>2012-06-24T08:17:17Z</time>
      </trkpt>
      <trkpt lat="45.67792" lon="6.01516">
        <ele>1361.36</ele>
        <time>2012-06-24T08:17:18Z</time>
      </trkpt>
      <trkpt lat="45.67799" lon="6.01509">
        <ele>1358.96</ele>
        <time>2012-06-24T08:17:20Z</time>
      </trkpt>
      <trkpt lat="45.67802" lon="6.01504">
        <ele>1359.92</ele>
        <time>2012-06-24T08:17:21Z</time>
      </trkpt>
      <trkpt lat="45.67804" lon="6.01499">
        <ele>1360.4</ele>
        <time>2012-06-24T08:17:22Z</time>
      </trkpt>
      <trkpt lat="45.67805" lon="6.01495">
        <ele>1361.36</ele>
        <time>2012-06-24T08:17:23Z</time>
      </trkpt>
      <trkpt lat="45.67805" lon="6.01493">
        <ele>1361.84</ele>
        <time>2012-06-24T08:17:24Z</time>
      </trkpt>
      <trkpt lat="45.67805" lon="6.01485">
        <ele>1361.84</ele>
        <time>2012-06-24T08:17:32Z</time>
      </trkpt>
      <trkpt lat="45.67805" lon="6.01482">
        <ele>1362.33</ele>
        <time>2012-06-24T08:17:33Z</time>
      </trkpt>
      <trkpt lat="45.67806" lon="6.01479">
        <ele>1363.29</ele>
        <time>2012-06-24T08:17:34Z</time>
      </trkpt>
      <trkpt lat="45.67805" lon="6.01475">
        <ele>1363.29</ele>
        <time>2012-06-24T08:17:35Z</time>
      </trkpt>
      <trkpt lat="45.67806" lon="6.01473">
        <ele>1363.29</ele>
        <time>2012-06-24T08:17:36Z</time>
      </trkpt>
      <trkpt lat="45.67809" lon="6.01464">
        <ele>1362.81</ele>
        <time>2012-06-24T08:17:40Z</time>
      </trkpt>
      <trkpt lat="45.67812" lon="6.0146">
        <ele>1362.81</ele>
        <time>2012-06-24T08:17:41Z</time>
      </trkpt>
      <trkpt lat="45.67826" lon="6.01427">
        <ele>1360.4</ele>
        <time>2012-06-24T08:17:51Z</time>
      </trkpt>
      <trkpt lat="45.67828" lon="6.01421">
        <ele>1359.44</ele>
        <time>2012-06-24T08:17:52Z</time>
      </trkpt>
      <trkpt lat="45.6783" lon="6.01415">
        <ele>1359.44</ele>
        <time>2012-06-24T08:17:53Z</time>
      </trkpt>
      <trkpt lat="45.67833" lon="6.01405">
        <ele>1360.4</ele>
        <time>2012-06-24T08:17:55Z</time>
      </trkpt>
      <trkpt lat="45.67837" lon="6.01373">
        <ele>1357.04</ele>
        <time>2012-06-24T08:18:03Z</time>
      </trkpt>
      <trkpt lat="45.6784" lon="6.01365">
        <ele>1355.12</ele>
        <time>2012-06-24T08:18:04Z</time>
      </trkpt>
      <trkpt lat="45.67849" lon="6.01334">
        <ele>1352.23</ele>
        <time>2012-06-24T08:18:08Z</time>
      </trkpt>
      <trkpt lat="45.67862" lon="6.01304">
        <ele>1349.83</ele>
        <time>2012-06-24T08:18:13Z</time>
      </trkpt>
      <trkpt lat="45.67872" lon="6.01277">
        <ele>1352.71</ele>
        <time>2012-06-24T08:18:25Z</time>
      </trkpt>
      <trkpt lat="45.67874" lon="6.01269">
        <ele>1352.23</ele>
        <time>2012-06-24T08:18:36Z</time>
      </trkpt>
      <trkpt lat="45.67876" lon="6.01267">
        <ele>1350.79</ele>
        <time>2012-06-24T08:18:37Z</time>
      </trkpt>
      <trkpt lat="45.67878" lon="6.01264">
        <ele>1349.83</ele>
        <time>2012-06-24T08:18:38Z</time>
      </trkpt>
      <trkpt lat="45.67881" lon="6.0126">
        <ele>1350.31</ele>
        <time>2012-06-24T08:18:39Z</time>
      </trkpt>
      <trkpt lat="45.67884" lon="6.01254">
        <ele>1350.79</ele>
        <time>2012-06-24T08:18:40Z</time>
      </trkpt>
      <trkpt lat="45.67886" lon="6.01249">
        <ele>1350.31</ele>
        <time>2012-06-24T08:18:41Z</time>
      </trkpt>
      <trkpt lat="45.67888" lon="6.01244">
        <ele>1350.79</ele>
        <time>2012-06-24T08:18:42Z</time>
      </trkpt>
      <trkpt lat="45.67886" lon="6.01206">
        <ele>1351.27</ele>
        <time>2012-06-24T08:18:51Z</time>
      </trkpt>
      <trkpt lat="45.67884" lon="6.01195">
        <ele>1351.75</ele>
        <time>2012-06-24T08:18:54Z</time>
      </trkpt>
      <trkpt lat="45.67885" lon="6.01193">
        <ele>1352.23</ele>
        <time>2012-06-24T08:18:55Z</time>
      </trkpt>
      <trkpt lat="45.67886" lon="6.0119">
        <ele>1351.75</ele>
        <time>2012-06-24T08:18:56Z</time>
      </trkpt>
      <trkpt lat="45.67893" lon="6.01156">
        <ele>1356.08</ele>
        <time>2012-06-24T08:19:12Z</time>
      </trkpt>
      <trkpt lat="45.67894" lon="6.01154">
        <ele>1356.08</ele>
        <time>2012-06-24T08:19:13Z</time>
      </trkpt>
      <trkpt lat="45.67897" lon="6.01146">
        <ele>1356.56</ele>
        <time>2012-06-24T08:19:18Z</time>
      </trkpt>
      <trkpt lat="45.67899" lon="6.01144">
        <ele>1356.56</ele>
        <time>2012-06-24T08:19:19Z</time>
      </trkpt>
      <trkpt lat="45.679" lon="6.0114">
        <ele>1356.08</ele>
        <time>2012-06-24T08:19:20Z</time>
      </trkpt>
      <trkpt lat="45.67901" lon="6.01137">
        <ele>1355.6</ele>
        <time>2012-06-24T08:19:21Z</time>
      </trkpt>
      <trkpt lat="45.67903" lon="6.01133">
        <ele>1354.63</ele>
        <time>2012-06-24T08:19:22Z</time>
      </trkpt>
      <trkpt lat="45.67908" lon="6.01124">
        <ele>1351.75</ele>
        <time>2012-06-24T08:19:25Z</time>
      </trkpt>
      <trkpt lat="45.67932" lon="6.0111">
        <ele>1347.91</ele>
        <time>2012-06-24T08:19:32Z</time>
      </trkpt>
      <trkpt lat="45.68007" lon="6.01126">
        <ele>1347.43</ele>
        <time>2012-06-24T08:19:46Z</time>
      </trkpt>
      <trkpt lat="45.68034" lon="6.0111">
        <ele>1346.94</ele>
        <time>2012-06-24T08:20:00Z</time>
      </trkpt>
      <trkpt lat="45.6801" lon="6.01082">
        <ele>1347.43</ele>
        <time>2012-06-24T08:20:11Z</time>
      </trkpt>
      <trkpt lat="45.68008" lon="6.0108">
        <ele>1347.43</ele>
        <time>2012-06-24T08:20:12Z</time>
      </trkpt>
      <trkpt lat="45.67998" lon="6.01072">
        <ele>1347.43</ele>
        <time>2012-06-24T08:20:13Z</time>
      </trkpt>
      <trkpt lat="45.67993" lon="6.01069">
        <ele>1347.91</ele>
        <time>2012-06-24T08:20:14Z</time>
      </trkpt>
      <trkpt lat="45.6799" lon="6.01068">
        <ele>1347.43</ele>
        <time>2012-06-24T08:20:15Z</time>
      </trkpt>
      <trkpt lat="45.67986" lon="6.01067">
        <ele>1347.43</ele>
        <time>2012-06-24T08:20:16Z</time>
      </trkpt>
      <trkpt lat="45.67951" lon="6.01048">
        <ele>1348.87</ele>
        <time>2012-06-24T08:20:26Z</time>
      </trkpt>
      <trkpt lat="45.67948" lon="6.01044">
        <ele>1347.91</ele>
        <time>2012-06-24T08:20:27Z</time>
      </trkpt>
      <trkpt lat="45.67946" lon="6.01039">
        <ele>1348.39</ele>
        <time>2012-06-24T08:20:28Z</time>
      </trkpt>
      <trkpt lat="45.67944" lon="6.01034">
        <ele>1348.39</ele>
        <time>2012-06-24T08:20:29Z</time>
      </trkpt>
      <trkpt lat="45.67942" lon="6.01029">
        <ele>1348.39</ele>
        <time>2012-06-24T08:20:30Z</time>
      </trkpt>
      <trkpt lat="45.67941" lon="6.01024">
        <ele>1348.39</ele>
        <time>2012-06-24T08:20:31Z</time>
      </trkpt>
      <trkpt lat="45.67941" lon="6.01019">
        <ele>1348.39</ele>
        <time>2012-06-24T08:20:32Z</time>
      </trkpt>
      <trkpt lat="45.6795" lon="6.00952">
        <ele>1348.39</ele>
        <time>2012-06-24T08:20:42Z</time>
      </trkpt>
      <trkpt lat="45.67955" lon="6.00933">
        <ele>1349.35</ele>
        <time>2012-06-24T08:20:45Z</time>
      </trkpt>
      <trkpt lat="45.67979" lon="6.00865">
        <ele>1348.39</ele>
        <time>2012-06-24T08:20:55Z</time>
      </trkpt>
      <trkpt lat="45.67986" lon="6.00852">
        <ele>1347.43</ele>
        <time>2012-06-24T08:20:57Z</time>
      </trkpt>
      <trkpt lat="45.67991" lon="6.00845">
        <ele>1346.94</ele>
        <time>2012-06-24T08:20:58Z</time>
      </trkpt>
      <trkpt lat="45.68015" lon="6.0082">
        <ele>1345.5</ele>
        <time>2012-06-24T08:21:02Z</time>
      </trkpt>
      <trkpt lat="45.68035" lon="6.0079">
        <ele>1344.54</ele>
        <time>2012-06-24T08:21:06Z</time>
      </trkpt>
      <trkpt lat="45.68038" lon="6.00782">
        <ele>1344.54</ele>
        <time>2012-06-24T08:21:07Z</time>
      </trkpt>
      <trkpt lat="45.6804" lon="6.00772">
        <ele>1343.58</ele>
        <time>2012-06-24T08:21:08Z</time>
      </trkpt>
      <trkpt lat="45.6804" lon="6.00762">
        <ele>1343.58</ele>
        <time>2012-06-24T08:21:09Z</time>
      </trkpt>
      <trkpt lat="45.6804" lon="6.00751">
        <ele>1343.1</ele>
        <time>2012-06-24T08:21:10Z</time>
      </trkpt>
      <trkpt lat="45.68041" lon="6.0072">
        <ele>1342.62</ele>
        <time>2012-06-24T08:21:13Z</time>
      </trkpt>
      <trkpt lat="45.68042" lon="6.00711">
        <ele>1342.62</ele>
        <time>2012-06-24T08:21:14Z</time>
      </trkpt>
      <trkpt lat="45.68045" lon="6.00696">
        <ele>1342.62</ele>
        <time>2012-06-24T08:21:16Z</time>
      </trkpt>
      <trkpt lat="45.68045" lon="6.00689">
        <ele>1342.62</ele>
        <time>2012-06-24T08:21:17Z</time>
      </trkpt>
      <trkpt lat="45.68045" lon="6.00682">
        <ele>1342.62</ele>
        <time>2012-06-24T08:21:18Z</time>
      </trkpt>
      <trkpt lat="45.68045" lon="6.00676">
        <ele>1343.1</ele>
        <time>2012-06-24T08:21:19Z</time>
      </trkpt>
      <trkpt lat="45.68045" lon="6.00669">
        <ele>1342.14</ele>
        <time>2012-06-24T08:21:20Z</time>
      </trkpt>
      <trkpt lat="45.68044" lon="6.00637">
        <ele>1343.58</ele>
        <time>2012-06-24T08:21:26Z</time>
      </trkpt>
      <trkpt lat="45.68042" lon="6.00633">
        <ele>1343.58</ele>
        <time>2012-06-24T08:21:27Z</time>
      </trkpt>
      <trkpt lat="45.68039" lon="6.00629">
        <ele>1344.06</ele>
        <time>2012-06-24T08:21:28Z</time>
      </trkpt>
      <trkpt lat="45.68036" lon="6.00627">
        <ele>1344.06</ele>
        <time>2012-06-24T08:21:29Z</time>
      </trkpt>
      <trkpt lat="45.68032" lon="6.00626">
        <ele>1344.54</ele>
        <time>2012-06-24T08:21:30Z</time>
      </trkpt>
      <trkpt lat="45.68028" lon="6.00626">
        <ele>1345.02</ele>
        <time>2012-06-24T08:21:31Z</time>
      </trkpt>
      <trkpt lat="45.68025" lon="6.00627">
        <ele>1345.02</ele>
        <time>2012-06-24T08:21:32Z</time>
      </trkpt>
      <trkpt lat="45.68021" lon="6.00628">
        <ele>1345.02</ele>
        <time>2012-06-24T08:21:33Z</time>
      </trkpt>
      <trkpt lat="45.6801" lon="6.00633">
        <ele>1345.02</ele>
        <time>2012-06-24T08:21:36Z</time>
      </trkpt>
      <trkpt lat="45.68006" lon="6.00635">
        <ele>1344.54</ele>
        <time>2012-06-24T08:21:37Z</time>
      </trkpt>
      <trkpt lat="45.67996" lon="6.00637">
        <ele>1345.02</ele>
        <time>2012-06-24T08:21:39Z</time>
      </trkpt>
      <trkpt lat="45.67991" lon="6.00637">
        <ele>1344.54</ele>
        <time>2012-06-24T08:21:40Z</time>
      </trkpt>
      <trkpt lat="45.67986" lon="6.00637">
        <ele>1344.54</ele>
        <time>2012-06-24T08:21:41Z</time>
      </trkpt>
      <trkpt lat="45.67981" lon="6.00635">
        <ele>1344.54</ele>
        <time>2012-06-24T08:21:42Z</time>
      </trkpt>
      <trkpt lat="45.67978" lon="6.00633">
        <ele>1344.54</ele>
        <time>2012-06-24T08:21:43Z</time>
      </trkpt>
      <trkpt lat="45.67974" lon="6.00632">
        <ele>1345.02</ele>
        <time>2012-06-24T08:21:44Z</time>
      </trkpt>
      <trkpt lat="45.67971" lon="6.0063">
        <ele>1345.02</ele>
        <time>2012-06-24T08:21:45Z</time>
      </trkpt>
      <trkpt lat="45.67968" lon="6.00628">
        <ele>1345.5</ele>
        <time>2012-06-24T08:21:46Z</time>
      </trkpt>
      <trkpt lat="45.67967" lon="6.00627">
        <ele>1345.98</ele>
        <time>2012-06-24T08:21:47Z</time>
      </trkpt>
      <trkpt lat="45.67941" lon="6.0063">
        <ele>1348.87</ele>
        <time>2012-06-24T08:21:59Z</time>
      </trkpt>
      <trkpt lat="45.67935" lon="6.0064">
        <ele>1350.31</ele>
        <time>2012-06-24T08:22:03Z</time>
      </trkpt>
      <trkpt lat="45.6793" lon="6.0067">
        <ele>1349.83</ele>
        <time>2012-06-24T08:22:10Z</time>
      </trkpt>
      <trkpt lat="45.67928" lon="6.00676">
        <ele>1349.83</ele>
        <time>2012-06-24T08:22:11Z</time>
      </trkpt>
      <trkpt lat="45.67924" lon="6.00688">
        <ele>1349.83</ele>
        <time>2012-06-24T08:22:13Z</time>
      </trkpt>
      <trkpt lat="45.67921" lon="6.00693">
        <ele>1349.83</ele>
        <time>2012-06-24T08:22:14Z</time>
      </trkpt>
      <trkpt lat="45.67917" lon="6.00696">
        <ele>1349.35</ele>
        <time>2012-06-24T08:22:15Z</time>
      </trkpt>
      <trkpt lat="45.67913" lon="6.00698">
        <ele>1349.83</ele>
        <time>2012-06-24T08:22:16Z</time>
      </trkpt>
      <trkpt lat="45.67909" lon="6.00697">
        <ele>1349.83</ele>
        <time>2012-06-24T08:22:17Z</time>
      </trkpt>
      <trkpt lat="45.67905" lon="6.00696">
        <ele>1350.31</ele>
        <time>2012-06-24T08:22:18Z</time>
      </trkpt>
      <trkpt lat="45.67903" lon="6.00695">
        <ele>1351.27</ele>
        <time>2012-06-24T08:22:19Z</time>
      </trkpt>
      <trkpt lat="45.67874" lon="6.00706">
        <ele>1351.75</ele>
        <time>2012-06-24T08:22:29Z</time>
      </trkpt>
      <trkpt lat="45.6787" lon="6.00707">
        <ele>1352.23</ele>
        <time>2012-06-24T08:22:30Z</time>
      </trkpt>
      <trkpt lat="45.67866" lon="6.00706">
        <ele>1351.75</ele>
        <time>2012-06-24T08:22:31Z</time>
      </trkpt>
      <trkpt lat="45.67864" lon="6.00703">
        <ele>1351.75</ele>
        <time>2012-06-24T08:22:32Z</time>
      </trkpt>
      <trkpt lat="45.67863" lon="6.00698">
        <ele>1351.75</ele>
        <time>2012-06-24T08:22:33Z</time>
      </trkpt>
      <trkpt lat="45.67863" lon="6.00694">
        <ele>1351.75</ele>
        <time>2012-06-24T08:22:34Z</time>
      </trkpt>
      <trkpt lat="45.67863" lon="6.00689">
        <ele>1352.23</ele>
        <time>2012-06-24T08:22:35Z</time>
      </trkpt>
      <trkpt lat="45.67863" lon="6.00685">
        <ele>1352.23</ele>
        <time>2012-06-24T08:22:36Z</time>
      </trkpt>
      <trkpt lat="45.67862" lon="6.00681">
        <ele>1352.23</ele>
        <time>2012-06-24T08:22:37Z</time>
      </trkpt>
      <trkpt lat="45.67861" lon="6.00677">
        <ele>1352.23</ele>
        <time>2012-06-24T08:22:38Z</time>
      </trkpt>
      <trkpt lat="45.67864" lon="6.00632">
        <ele>1354.15</ele>
        <time>2012-06-24T08:22:51Z</time>
      </trkpt>
      <trkpt lat="45.67887" lon="6.00603">
        <ele>1357.04</ele>
        <time>2012-06-24T08:23:05Z</time>
      </trkpt>
      <trkpt lat="45.67909" lon="6.00565">
        <ele>1358.48</ele>
        <time>2012-06-24T08:23:20Z</time>
      </trkpt>
      <trkpt lat="45.67919" lon="6.00529">
        <ele>1360.4</ele>
        <time>2012-06-24T08:23:34Z</time>
      </trkpt>
      <trkpt lat="45.6793" lon="6.00494">
        <ele>1362.81</ele>
        <time>2012-06-24T08:23:49Z</time>
      </trkpt>
      <trkpt lat="45.67939" lon="6.00457">
        <ele>1364.73</ele>
        <time>2012-06-24T08:24:05Z</time>
      </trkpt>
      <trkpt lat="45.67947" lon="6.00421">
        <ele>1365.21</ele>
        <time>2012-06-24T08:24:19Z</time>
      </trkpt>
      <trkpt lat="45.67946" lon="6.00392">
        <ele>1366.65</ele>
        <time>2012-06-24T08:24:31Z</time>
      </trkpt>
      <trkpt lat="45.6795" lon="6.00361">
        <ele>1369.05</ele>
        <time>2012-06-24T08:24:46Z</time>
      </trkpt>
      <trkpt lat="45.67966" lon="6.00336">
        <ele>1371.46</ele>
        <time>2012-06-24T08:25:00Z</time>
      </trkpt>
      <trkpt lat="45.67982" lon="6.00309">
        <ele>1372.42</ele>
        <time>2012-06-24T08:25:14Z</time>
      </trkpt>
      <trkpt lat="45.67984" lon="6.00273">
        <ele>1374.34</ele>
        <time>2012-06-24T08:25:28Z</time>
      </trkpt>
      <trkpt lat="45.67969" lon="6.00245">
        <ele>1377.71</ele>
        <time>2012-06-24T08:25:42Z</time>
      </trkpt>
      <trkpt lat="45.67963" lon="6.00233">
        <ele>1379.15</ele>
        <time>2012-06-24T08:25:48Z</time>
      </trkpt>
      <trkpt lat="45.67956" lon="6.002">
        <ele>1381.07</ele>
        <time>2012-06-24T08:26:02Z</time>
      </trkpt>
      <trkpt lat="45.67952" lon="6.00147">
        <ele>1381.07</ele>
        <time>2012-06-24T08:26:16Z</time>
      </trkpt>
      <trkpt lat="45.67945" lon="6.00092">
        <ele>1383.47</ele>
        <time>2012-06-24T08:26:29Z</time>
      </trkpt>
      <trkpt lat="45.67929" lon="6.0005">
        <ele>1384.92</ele>
        <time>2012-06-24T08:26:42Z</time>
      </trkpt>
      <trkpt lat="45.67902" lon="6.00001">
        <ele>1385.88</ele>
        <time>2012-06-24T08:26:56Z</time>
      </trkpt>
      <trkpt lat="45.67899" lon="5.99996">
        <ele>1385.4</ele>
        <time>2012-06-24T08:26:57Z</time>
      </trkpt>
      <trkpt lat="45.6789" lon="5.99982">
        <ele>1384.44</ele>
        <time>2012-06-24T08:27:00Z</time>
      </trkpt>
      <trkpt lat="45.67878" lon="5.99969">
        <ele>1382.99</ele>
        <time>2012-06-24T08:27:03Z</time>
      </trkpt>
      <trkpt lat="45.67868" lon="5.99961">
        <ele>1382.51</ele>
        <time>2012-06-24T08:27:05Z</time>
      </trkpt>
      <trkpt lat="45.67836" lon="5.99908">
        <ele>1383.47</ele>
        <time>2012-06-24T08:27:17Z</time>
      </trkpt>
      <trkpt lat="45.67837" lon="5.99906">
        <ele>1383.47</ele>
        <time>2012-06-24T08:27:18Z</time>
      </trkpt>
      <trkpt lat="45.67841" lon="5.99902">
        <ele>1383.47</ele>
        <time>2012-06-24T08:27:21Z</time>
      </trkpt>
      <trkpt lat="45.67843" lon="5.99901">
        <ele>1383.96</ele>
        <time>2012-06-24T08:27:22Z</time>
      </trkpt>
      <trkpt lat="45.67845" lon="5.99899">
        <ele>1383.47</ele>
        <time>2012-06-24T08:27:24Z</time>
      </trkpt>
      <trkpt lat="45.67847" lon="5.99896">
        <ele>1383.47</ele>
        <time>2012-06-24T08:27:39Z</time>
      </trkpt>
      <trkpt lat="45.67846" lon="5.99895">
        <ele>1383.96</ele>
        <time>2012-06-24T08:28:09Z</time>
      </trkpt>
      <trkpt lat="45.67846" lon="5.99895">
        <ele>1383.96</ele>
        <time>2012-06-24T08:28:44Z</time>
      </trkpt>
      <trkpt lat="45.67846" lon="5.99895">
        <ele>1383.96</ele>
        <time>2012-06-24T08:29:17Z</time>
      </trkpt>
      <trkpt lat="45.67849" lon="5.99895">
        <ele>1385.4</ele>
        <time>2012-06-24T08:29:40Z</time>
      </trkpt>
      <trkpt lat="45.67851" lon="5.99895">
        <ele>1385.4</ele>
        <time>2012-06-24T08:29:41Z</time>
      </trkpt>
      <trkpt lat="45.67853" lon="5.99895">
        <ele>1385.4</ele>
        <time>2012-06-24T08:29:42Z</time>
      </trkpt>
      <trkpt lat="45.67893" lon="5.99899">
        <ele>1385.4</ele>
        <time>2012-06-24T08:29:57Z</time>
      </trkpt>
      <trkpt lat="45.67923" lon="5.99899">
        <ele>1388.28</ele>
        <time>2012-06-24T08:30:09Z</time>
      </trkpt>
      <trkpt lat="45.67935" lon="5.99886">
        <ele>1390.2</ele>
        <time>2012-06-24T08:30:17Z</time>
      </trkpt>
      <trkpt lat="45.67934" lon="5.99883">
        <ele>1390.2</ele>
        <time>2012-06-24T08:30:18Z</time>
      </trkpt>
      <trkpt lat="45.67934" lon="5.9988">
        <ele>1390.68</ele>
        <time>2012-06-24T08:30:19Z</time>
      </trkpt>
      <trkpt lat="45.67934" lon="5.99877">
        <ele>1390.68</ele>
        <time>2012-06-24T08:30:20Z</time>
      </trkpt>
      <trkpt lat="45.67933" lon="5.99874">
        <ele>1390.68</ele>
        <time>2012-06-24T08:30:21Z</time>
      </trkpt>
      <trkpt lat="45.67932" lon="5.99872">
        <ele>1391.17</ele>
        <time>2012-06-24T08:30:22Z</time>
      </trkpt>
      <trkpt lat="45.67931" lon="5.9987">
        <ele>1391.17</ele>
        <time>2012-06-24T08:30:23Z</time>
      </trkpt>
      <trkpt lat="45.67929" lon="5.99867">
        <ele>1391.17</ele>
        <time>2012-06-24T08:30:24Z</time>
      </trkpt>
      <trkpt lat="45.67938" lon="5.99836">
        <ele>1389.24</ele>
        <time>2012-06-24T08:30:35Z</time>
      </trkpt>
      <trkpt lat="45.6794" lon="5.99831">
        <ele>1389.24</ele>
        <time>2012-06-24T08:30:36Z</time>
      </trkpt>
      <trkpt lat="45.67948" lon="5.99811">
        <ele>1387.8</ele>
        <time>2012-06-24T08:30:39Z</time>
      </trkpt>
      <trkpt lat="45.67951" lon="5.99779">
        <ele>1385.4</ele>
        <time>2012-06-24T08:30:43Z</time>
      </trkpt>
      <trkpt lat="45.67953" lon="5.99772">
        <ele>1385.4</ele>
        <time>2012-06-24T08:30:44Z</time>
      </trkpt>
      <trkpt lat="45.67956" lon="5.99766">
        <ele>1384.92</ele>
        <time>2012-06-24T08:30:45Z</time>
      </trkpt>
      <trkpt lat="45.6796" lon="5.99763">
        <ele>1385.4</ele>
        <time>2012-06-24T08:30:46Z</time>
      </trkpt>
      <trkpt lat="45.67965" lon="5.9976">
        <ele>1385.4</ele>
        <time>2012-06-24T08:30:47Z</time>
      </trkpt>
      <trkpt lat="45.6797" lon="5.99759">
        <ele>1384.92</ele>
        <time>2012-06-24T08:30:48Z</time>
      </trkpt>
      <trkpt lat="45.67975" lon="5.99758">
        <ele>1384.44</ele>
        <time>2012-06-24T08:30:49Z</time>
      </trkpt>
      <trkpt lat="45.67986" lon="5.99755">
        <ele>1383.96</ele>
        <time>2012-06-24T08:30:51Z</time>
      </trkpt>
      <trkpt lat="45.67991" lon="5.99752">
        <ele>1383.47</ele>
        <time>2012-06-24T08:30:52Z</time>
      </trkpt>
      <trkpt lat="45.68006" lon="5.9973">
        <ele>1382.99</ele>
        <time>2012-06-24T08:30:58Z</time>
      </trkpt>
      <trkpt lat="45.68011" lon="5.99726">
        <ele>1382.99</ele>
        <time>2012-06-24T08:30:59Z</time>
      </trkpt>
      <trkpt lat="45.68016" lon="5.99722">
        <ele>1382.51</ele>
        <time>2012-06-24T08:31:00Z</time>
      </trkpt>
      <trkpt lat="45.68033" lon="5.99713">
        <ele>1382.99</ele>
        <time>2012-06-24T08:31:03Z</time>
      </trkpt>
      <trkpt lat="45.68036" lon="5.99712">
        <ele>1382.99</ele>
        <time>2012-06-24T08:31:04Z</time>
      </trkpt>
      <trkpt lat="45.68039" lon="5.99711">
        <ele>1383.47</ele>
        <time>2012-06-24T08:31:05Z</time>
      </trkpt>
      <trkpt lat="45.68041" lon="5.99711">
        <ele>1383.96</ele>
        <time>2012-06-24T08:31:06Z</time>
      </trkpt>
      <trkpt lat="45.68043" lon="5.99711">
        <ele>1384.44</ele>
        <time>2012-06-24T08:31:07Z</time>
      </trkpt>
      <trkpt lat="45.68046" lon="5.9971">
        <ele>1384.44</ele>
        <time>2012-06-24T08:31:08Z</time>
      </trkpt>
      <trkpt lat="45.68048" lon="5.99708">
        <ele>1384.92</ele>
        <time>2012-06-24T08:31:09Z</time>
      </trkpt>
      <trkpt lat="45.6805" lon="5.99707">
        <ele>1385.4</ele>
        <time>2012-06-24T08:31:10Z</time>
      </trkpt>
      <trkpt lat="45.68052" lon="5.99704">
        <ele>1385.4</ele>
        <time>2012-06-24T08:31:11Z</time>
      </trkpt>
      <trkpt lat="45.68053" lon="5.99701">
        <ele>1385.4</ele>
        <time>2012-06-24T08:31:12Z</time>
      </trkpt>
      <trkpt lat="45.68054" lon="5.99697">
        <ele>1385.88</ele>
        <time>2012-06-24T08:31:13Z</time>
      </trkpt>
      <trkpt lat="45.68054" lon="5.99694">
        <ele>1385.88</ele>
        <time>2012-06-24T08:31:14Z</time>
      </trkpt>
      <trkpt lat="45.68053" lon="5.99667">
        <ele>1387.8</ele>
        <time>2012-06-24T08:31:22Z</time>
      </trkpt>
      <trkpt lat="45.68053" lon="5.99628">
        <ele>1389.72</ele>
        <time>2012-06-24T08:31:35Z</time>
      </trkpt>
      <trkpt lat="45.68061" lon="5.996">
        <ele>1392.13</ele>
        <time>2012-06-24T08:31:48Z</time>
      </trkpt>
      <trkpt lat="45.68053" lon="5.99561">
        <ele>1393.09</ele>
        <time>2012-06-24T08:32:01Z</time>
      </trkpt>
      <trkpt lat="45.68047" lon="5.99508">
        <ele>1393.57</ele>
        <time>2012-06-24T08:32:15Z</time>
      </trkpt>
      <trkpt lat="45.68046" lon="5.99468">
        <ele>1396.45</ele>
        <time>2012-06-24T08:32:29Z</time>
      </trkpt>
      <trkpt lat="45.68045" lon="5.99446">
        <ele>1398.37</ele>
        <time>2012-06-24T08:32:38Z</time>
      </trkpt>
      <trkpt lat="45.68045" lon="5.99443">
        <ele>1398.86</ele>
        <time>2012-06-24T08:32:39Z</time>
      </trkpt>
      <trkpt lat="45.68045" lon="5.9944">
        <ele>1398.86</ele>
        <time>2012-06-24T08:32:40Z</time>
      </trkpt>
      <trkpt lat="45.68045" lon="5.99438">
        <ele>1399.34</ele>
        <time>2012-06-24T08:32:41Z</time>
      </trkpt>
      <trkpt lat="45.68046" lon="5.99435">
        <ele>1399.82</ele>
        <time>2012-06-24T08:32:42Z</time>
      </trkpt>
      <trkpt lat="45.68046" lon="5.99433">
        <ele>1399.82</ele>
        <time>2012-06-24T08:32:43Z</time>
      </trkpt>
      <trkpt lat="45.68046" lon="5.99431">
        <ele>1399.82</ele>
        <time>2012-06-24T08:32:44Z</time>
      </trkpt>
      <trkpt lat="45.68042" lon="5.99396">
        <ele>1401.26</ele>
        <time>2012-06-24T08:32:58Z</time>
      </trkpt>
      <trkpt lat="45.68065" lon="5.99349">
        <ele>1400.3</ele>
        <time>2012-06-24T08:33:10Z</time>
      </trkpt>
      <trkpt lat="45.68072" lon="5.99311">
        <ele>1402.7</ele>
        <time>2012-06-24T08:33:24Z</time>
      </trkpt>
      <trkpt lat="45.68077" lon="5.99272">
        <ele>1405.1</ele>
        <time>2012-06-24T08:33:40Z</time>
      </trkpt>
      <trkpt lat="45.68071" lon="5.99245">
        <ele>1406.55</ele>
        <time>2012-06-24T08:33:52Z</time>
      </trkpt>
      <trkpt lat="45.68068" lon="5.99243">
        <ele>1406.55</ele>
        <time>2012-06-24T08:33:54Z</time>
      </trkpt>
      <trkpt lat="45.68066" lon="5.99242">
        <ele>1407.03</ele>
        <time>2012-06-24T08:33:55Z</time>
      </trkpt>
      <trkpt lat="45.68065" lon="5.99241">
        <ele>1406.55</ele>
        <time>2012-06-24T08:33:56Z</time>
      </trkpt>
      <trkpt lat="45.68063" lon="5.9924">
        <ele>1407.03</ele>
        <time>2012-06-24T08:33:57Z</time>
      </trkpt>
      <trkpt lat="45.68061" lon="5.9924">
        <ele>1407.03</ele>
        <time>2012-06-24T08:33:58Z</time>
      </trkpt>
      <trkpt lat="45.68059" lon="5.99239">
        <ele>1406.55</ele>
        <time>2012-06-24T08:33:59Z</time>
      </trkpt>
      <trkpt lat="45.68058" lon="5.99238">
        <ele>1407.03</ele>
        <time>2012-06-24T08:34:00Z</time>
      </trkpt>
      <trkpt lat="45.68056" lon="5.99238">
        <ele>1407.03</ele>
        <time>2012-06-24T08:34:01Z</time>
      </trkpt>
      <trkpt lat="45.68042" lon="5.99219">
        <ele>1408.95</ele>
        <time>2012-06-24T08:34:14Z</time>
      </trkpt>
      <trkpt lat="45.68023" lon="5.99205">
        <ele>1411.35</ele>
        <time>2012-06-24T08:34:28Z</time>
      </trkpt>
      <trkpt lat="45.68002" lon="5.99185">
        <ele>1414.24</ele>
        <time>2012-06-24T08:34:45Z</time>
      </trkpt>
      <trkpt lat="45.67984" lon="5.99167">
        <ele>1415.2</ele>
        <time>2012-06-24T08:34:58Z</time>
      </trkpt>
      <trkpt lat="45.67975" lon="5.99155">
        <ele>1416.64</ele>
        <time>2012-06-24T08:35:04Z</time>
      </trkpt>
      <trkpt lat="45.67973" lon="5.99152">
        <ele>1416.16</ele>
        <time>2012-06-24T08:35:05Z</time>
      </trkpt>
      <trkpt lat="45.67971" lon="5.99108">
        <ele>1416.64</ele>
        <time>2012-06-24T08:35:17Z</time>
      </trkpt>
      <trkpt lat="45.67979" lon="5.99072">
        <ele>1419.04</ele>
        <time>2012-06-24T08:35:30Z</time>
      </trkpt>
      <trkpt lat="45.67992" lon="5.99041">
        <ele>1422.41</ele>
        <time>2012-06-24T08:35:46Z</time>
      </trkpt>
      <trkpt lat="45.68007" lon="5.99024">
        <ele>1425.77</ele>
        <time>2012-06-24T08:35:59Z</time>
      </trkpt>
      <trkpt lat="45.68026" lon="5.99013">
        <ele>1427.21</ele>
        <time>2012-06-24T08:36:13Z</time>
      </trkpt>
      <trkpt lat="45.68052" lon="5.98993">
        <ele>1429.62</ele>
        <time>2012-06-24T08:36:29Z</time>
      </trkpt>
      <trkpt lat="45.68083" lon="5.98986">
        <ele>1429.14</ele>
        <time>2012-06-24T08:36:41Z</time>
      </trkpt>
      <trkpt lat="45.68105" lon="5.98965">
        <ele>1432.02</ele>
        <time>2012-06-24T08:36:53Z</time>
      </trkpt>
      <trkpt lat="45.68121" lon="5.9894">
        <ele>1434.42</ele>
        <time>2012-06-24T08:37:07Z</time>
      </trkpt>
      <trkpt lat="45.68139" lon="5.98922">
        <ele>1437.31</ele>
        <time>2012-06-24T08:37:23Z</time>
      </trkpt>
      <trkpt lat="45.68157" lon="5.9891">
        <ele>1439.71</ele>
        <time>2012-06-24T08:37:38Z</time>
      </trkpt>
      <trkpt lat="45.68177" lon="5.98913">
        <ele>1442.11</ele>
        <time>2012-06-24T08:37:52Z</time>
      </trkpt>
      <trkpt lat="45.68208" lon="5.9891">
        <ele>1441.15</ele>
        <time>2012-06-24T08:38:03Z</time>
      </trkpt>
      <trkpt lat="45.6823" lon="5.98887">
        <ele>1443.08</ele>
        <time>2012-06-24T08:38:13Z</time>
      </trkpt>
      <trkpt lat="45.68236" lon="5.98859">
        <ele>1443.56</ele>
        <time>2012-06-24T08:38:23Z</time>
      </trkpt>
      <trkpt lat="45.68236" lon="5.98857">
        <ele>1444.04</ele>
        <time>2012-06-24T08:38:24Z</time>
      </trkpt>
      <trkpt lat="45.68235" lon="5.98854">
        <ele>1444.52</ele>
        <time>2012-06-24T08:38:25Z</time>
      </trkpt>
      <trkpt lat="45.68235" lon="5.98852">
        <ele>1444.52</ele>
        <time>2012-06-24T08:38:26Z</time>
      </trkpt>
      <trkpt lat="45.68234" lon="5.9885">
        <ele>1445</ele>
        <time>2012-06-24T08:38:27Z</time>
      </trkpt>
      <trkpt lat="45.68227" lon="5.98833">
        <ele>1448.36</ele>
        <time>2012-06-24T08:38:35Z</time>
      </trkpt>
      <trkpt lat="45.68222" lon="5.98827">
        <ele>1449.81</ele>
        <time>2012-06-24T08:38:39Z</time>
      </trkpt>
      <trkpt lat="45.68221" lon="5.98826">
        <ele>1450.29</ele>
        <time>2012-06-24T08:38:40Z</time>
      </trkpt>
      <trkpt lat="45.6822" lon="5.98825">
        <ele>1450.77</ele>
        <time>2012-06-24T08:38:41Z</time>
      </trkpt>
      <trkpt lat="45.68219" lon="5.98824">
        <ele>1450.29</ele>
        <time>2012-06-24T08:38:42Z</time>
      </trkpt>
      <trkpt lat="45.68218" lon="5.98823">
        <ele>1450.29</ele>
        <time>2012-06-24T08:38:43Z</time>
      </trkpt>
      <trkpt lat="45.68216" lon="5.98822">
        <ele>1450.77</ele>
        <time>2012-06-24T08:38:44Z</time>
      </trkpt>
      <trkpt lat="45.68209" lon="5.98817">
        <ele>1452.21</ele>
        <time>2012-06-24T08:38:50Z</time>
      </trkpt>
      <trkpt lat="45.68207" lon="5.98817">
        <ele>1452.21</ele>
        <time>2012-06-24T08:38:51Z</time>
      </trkpt>
      <trkpt lat="45.68187" lon="5.98815">
        <ele>1455.57</ele>
        <time>2012-06-24T08:39:06Z</time>
      </trkpt>
      <trkpt lat="45.68165" lon="5.9881">
        <ele>1457.5</ele>
        <time>2012-06-24T08:39:20Z</time>
      </trkpt>
      <trkpt lat="45.68136" lon="5.98793">
        <ele>1457.02</ele>
        <time>2012-06-24T08:39:34Z</time>
      </trkpt>
      <trkpt lat="45.68119" lon="5.98784">
        <ele>1457.02</ele>
        <time>2012-06-24T08:39:38Z</time>
      </trkpt>
      <trkpt lat="45.68088" lon="5.98759">
        <ele>1457.5</ele>
        <time>2012-06-24T08:39:49Z</time>
      </trkpt>
      <trkpt lat="45.68068" lon="5.98742">
        <ele>1457.98</ele>
        <time>2012-06-24T08:40:01Z</time>
      </trkpt>
      <trkpt lat="45.6805" lon="5.98725">
        <ele>1459.9</ele>
        <time>2012-06-24T08:40:16Z</time>
      </trkpt>
      <trkpt lat="45.68045" lon="5.98718">
        <ele>1461.34</ele>
        <time>2012-06-24T08:40:21Z</time>
      </trkpt>
      <trkpt lat="45.68044" lon="5.98717">
        <ele>1461.34</ele>
        <time>2012-06-24T08:40:22Z</time>
      </trkpt>
      <trkpt lat="45.68042" lon="5.98716">
        <ele>1461.34</ele>
        <time>2012-06-24T08:40:23Z</time>
      </trkpt>
      <trkpt lat="45.68041" lon="5.98715">
        <ele>1461.34</ele>
        <time>2012-06-24T08:40:24Z</time>
      </trkpt>
      <trkpt lat="45.6804" lon="5.98715">
        <ele>1461.82</ele>
        <time>2012-06-24T08:40:25Z</time>
      </trkpt>
      <trkpt lat="45.68039" lon="5.98714">
        <ele>1462.3</ele>
        <time>2012-06-24T08:40:26Z</time>
      </trkpt>
      <trkpt lat="45.68038" lon="5.98713">
        <ele>1462.3</ele>
        <time>2012-06-24T08:40:27Z</time>
      </trkpt>
      <trkpt lat="45.68036" lon="5.98713">
        <ele>1462.3</ele>
        <time>2012-06-24T08:40:28Z</time>
      </trkpt>
      <trkpt lat="45.68035" lon="5.98712">
        <ele>1462.78</ele>
        <time>2012-06-24T08:40:29Z</time>
      </trkpt>
      <trkpt lat="45.68034" lon="5.98711">
        <ele>1463.26</ele>
        <time>2012-06-24T08:40:30Z</time>
      </trkpt>
      <trkpt lat="45.68033" lon="5.98711">
        <ele>1463.74</ele>
        <time>2012-06-24T08:40:31Z</time>
      </trkpt>
      <trkpt lat="45.68031" lon="5.9871">
        <ele>1463.26</ele>
        <time>2012-06-24T08:40:32Z</time>
      </trkpt>
      <trkpt lat="45.68023" lon="5.98709">
        <ele>1464.23</ele>
        <time>2012-06-24T08:40:40Z</time>
      </trkpt>
      <trkpt lat="45.68022" lon="5.98708">
        <ele>1464.23</ele>
        <time>2012-06-24T08:40:41Z</time>
      </trkpt>
      <trkpt lat="45.67993" lon="5.98694">
        <ele>1463.74</ele>
        <time>2012-06-24T08:40:55Z</time>
      </trkpt>
      <trkpt lat="45.67965" lon="5.9867">
        <ele>1463.74</ele>
        <time>2012-06-24T08:41:09Z</time>
      </trkpt>
      <trkpt lat="45.67956" lon="5.98664">
        <ele>1464.23</ele>
        <time>2012-06-24T08:41:15Z</time>
      </trkpt>
      <trkpt lat="45.67954" lon="5.98663">
        <ele>1464.71</ele>
        <time>2012-06-24T08:41:16Z</time>
      </trkpt>
      <trkpt lat="45.67952" lon="5.98662">
        <ele>1464.71</ele>
        <time>2012-06-24T08:41:17Z</time>
      </trkpt>
      <trkpt lat="45.6795" lon="5.98661">
        <ele>1465.19</ele>
        <time>2012-06-24T08:41:18Z</time>
      </trkpt>
      <trkpt lat="45.67947" lon="5.9866">
        <ele>1464.71</ele>
        <time>2012-06-24T08:41:19Z</time>
      </trkpt>
      <trkpt lat="45.67946" lon="5.98658">
        <ele>1465.67</ele>
        <time>2012-06-24T08:41:20Z</time>
      </trkpt>
      <trkpt lat="45.67945" lon="5.98659">
        <ele>1465.19</ele>
        <time>2012-06-24T08:41:21Z</time>
      </trkpt>
      <trkpt lat="45.67937" lon="5.98661">
        <ele>1463.74</ele>
        <time>2012-06-24T08:41:26Z</time>
      </trkpt>
      <trkpt lat="45.67928" lon="5.98657">
        <ele>1463.74</ele>
        <time>2012-06-24T08:41:31Z</time>
      </trkpt>
      <trkpt lat="45.67927" lon="5.98655">
        <ele>1463.74</ele>
        <time>2012-06-24T08:41:32Z</time>
      </trkpt>
      <trkpt lat="45.67924" lon="5.98652">
        <ele>1463.74</ele>
        <time>2012-06-24T08:41:34Z</time>
      </trkpt>
      <trkpt lat="45.67923" lon="5.9865">
        <ele>1463.74</ele>
        <time>2012-06-24T08:41:35Z</time>
      </trkpt>
      <trkpt lat="45.6791" lon="5.98628">
        <ele>1464.23</ele>
        <time>2012-06-24T08:41:44Z</time>
      </trkpt>
      <trkpt lat="45.67897" lon="5.98593">
        <ele>1466.15</ele>
        <time>2012-06-24T08:41:57Z</time>
      </trkpt>
      <trkpt lat="45.67879" lon="5.98571">
        <ele>1468.07</ele>
        <time>2012-06-24T08:42:10Z</time>
      </trkpt>
      <trkpt lat="45.6785" lon="5.98554">
        <ele>1465.19</ele>
        <time>2012-06-24T08:42:22Z</time>
      </trkpt>
      <trkpt lat="45.67829" lon="5.9855">
        <ele>1462.3</ele>
        <time>2012-06-24T08:42:29Z</time>
      </trkpt>
      <trkpt lat="45.67809" lon="5.98545">
        <ele>1458.46</ele>
        <time>2012-06-24T08:42:34Z</time>
      </trkpt>
      <trkpt lat="45.67804" lon="5.98543">
        <ele>1457.98</ele>
        <time>2012-06-24T08:42:35Z</time>
      </trkpt>
      <trkpt lat="45.67788" lon="5.98545">
        <ele>1454.13</ele>
        <time>2012-06-24T08:42:39Z</time>
      </trkpt>
      <trkpt lat="45.67775" lon="5.98553">
        <ele>1451.25</ele>
        <time>2012-06-24T08:42:43Z</time>
      </trkpt>
      <trkpt lat="45.67764" lon="5.98553">
        <ele>1447.4</ele>
        <time>2012-06-24T08:42:47Z</time>
      </trkpt>
      <trkpt lat="45.67762" lon="5.98552">
        <ele>1446.92</ele>
        <time>2012-06-24T08:42:48Z</time>
      </trkpt>
      <trkpt lat="45.6775" lon="5.98555">
        <ele>1444.04</ele>
        <time>2012-06-24T08:42:53Z</time>
      </trkpt>
      <trkpt lat="45.67749" lon="5.98556">
        <ele>1444.04</ele>
        <time>2012-06-24T08:42:54Z</time>
      </trkpt>
      <trkpt lat="45.67735" lon="5.98616">
        <ele>1440.67</ele>
        <time>2012-06-24T08:42:59Z</time>
      </trkpt>
      <trkpt lat="45.67718" lon="5.98619">
        <ele>1437.79</ele>
        <time>2012-06-24T08:43:04Z</time>
      </trkpt>
      <trkpt lat="45.67688" lon="5.98645">
        <ele>1433.94</ele>
        <time>2012-06-24T08:43:12Z</time>
      </trkpt>
      <trkpt lat="45.6768" lon="5.9865">
        <ele>1432.98</ele>
        <time>2012-06-24T08:43:14Z</time>
      </trkpt>
      <trkpt lat="45.67654" lon="5.98628">
        <ele>1431.54</ele>
        <time>2012-06-24T08:43:26Z</time>
      </trkpt>
      <trkpt lat="45.67635" lon="5.98589">
        <ele>1428.18</ele>
        <time>2012-06-24T08:43:33Z</time>
      </trkpt>
      <trkpt lat="45.6763" lon="5.98587">
        <ele>1427.7</ele>
        <time>2012-06-24T08:43:34Z</time>
      </trkpt>
      <trkpt lat="45.67612" lon="5.98582">
        <ele>1424.33</ele>
        <time>2012-06-24T08:43:37Z</time>
      </trkpt>
      <trkpt lat="45.67594" lon="5.98583">
        <ele>1420.97</ele>
        <time>2012-06-24T08:43:41Z</time>
      </trkpt>
      <trkpt lat="45.67559" lon="5.98595">
        <ele>1417.12</ele>
        <time>2012-06-24T08:43:47Z</time>
      </trkpt>
      <trkpt lat="45.67535" lon="5.98622">
        <ele>1415.2</ele>
        <time>2012-06-24T08:43:49Z</time>
      </trkpt>
      <trkpt lat="45.67513" lon="5.98643">
        <ele>1412.31</ele>
        <time>2012-06-24T08:43:52Z</time>
      </trkpt>
      <trkpt lat="45.67474" lon="5.98626">
        <ele>1408.95</ele>
        <time>2012-06-24T08:43:59Z</time>
      </trkpt>
      <trkpt lat="45.67468" lon="5.98619">
        <ele>1408.47</ele>
        <time>2012-06-24T08:44:00Z</time>
      </trkpt>
      <trkpt lat="45.67461" lon="5.98614">
        <ele>1408.47</ele>
        <time>2012-06-24T08:44:01Z</time>
      </trkpt>
      <trkpt lat="45.67456" lon="5.9861">
        <ele>1408.95</ele>
        <time>2012-06-24T08:44:02Z</time>
      </trkpt>
      <trkpt lat="45.67451" lon="5.98609">
        <ele>1409.43</ele>
        <time>2012-06-24T08:44:03Z</time>
      </trkpt>
      <trkpt lat="45.67447" lon="5.98608">
        <ele>1409.91</ele>
        <time>2012-06-24T08:44:04Z</time>
      </trkpt>
      <trkpt lat="45.67445" lon="5.98607">
        <ele>1409.91</ele>
        <time>2012-06-24T08:44:05Z</time>
      </trkpt>
      <trkpt lat="45.67418" lon="5.98622">
        <ele>1410.39</ele>
        <time>2012-06-24T08:44:15Z</time>
      </trkpt>
      <trkpt lat="45.67416" lon="5.98638">
        <ele>1408.47</ele>
        <time>2012-06-24T08:44:18Z</time>
      </trkpt>
      <trkpt lat="45.67417" lon="5.98654">
        <ele>1404.62</ele>
        <time>2012-06-24T08:44:20Z</time>
      </trkpt>
      <trkpt lat="45.67418" lon="5.98664">
        <ele>1404.62</ele>
        <time>2012-06-24T08:44:21Z</time>
      </trkpt>
      <trkpt lat="45.67418" lon="5.98676">
        <ele>1402.7</ele>
        <time>2012-06-24T08:44:22Z</time>
      </trkpt>
      <trkpt lat="45.67418" lon="5.98688">
        <ele>1402.7</ele>
        <time>2012-06-24T08:44:23Z</time>
      </trkpt>
      <trkpt lat="45.67419" lon="5.98712">
        <ele>1401.74</ele>
        <time>2012-06-24T08:44:25Z</time>
      </trkpt>
      <trkpt lat="45.67421" lon="5.98722">
        <ele>1400.78</ele>
        <time>2012-06-24T08:44:26Z</time>
      </trkpt>
      <trkpt lat="45.67423" lon="5.98731">
        <ele>1400.78</ele>
        <time>2012-06-24T08:44:27Z</time>
      </trkpt>
      <trkpt lat="45.67427" lon="5.98741">
        <ele>1400.3</ele>
        <time>2012-06-24T08:44:28Z</time>
      </trkpt>
      <trkpt lat="45.67433" lon="5.98762">
        <ele>1400.3</ele>
        <time>2012-06-24T08:44:30Z</time>
      </trkpt>
      <trkpt lat="45.67434" lon="5.98772">
        <ele>1399.82</ele>
        <time>2012-06-24T08:44:31Z</time>
      </trkpt>
      <trkpt lat="45.67435" lon="5.9878">
        <ele>1400.78</ele>
        <time>2012-06-24T08:44:32Z</time>
      </trkpt>
      <trkpt lat="45.67435" lon="5.98787">
        <ele>1401.26</ele>
        <time>2012-06-24T08:44:33Z</time>
      </trkpt>
      <trkpt lat="45.67435" lon="5.98794">
        <ele>1402.22</ele>
        <time>2012-06-24T08:44:34Z</time>
      </trkpt>
      <trkpt lat="45.67434" lon="5.98799">
        <ele>1402.7</ele>
        <time>2012-06-24T08:44:35Z</time>
      </trkpt>
      <trkpt lat="45.67434" lon="5.98805">
        <ele>1402.22</ele>
        <time>2012-06-24T08:44:36Z</time>
      </trkpt>
      <trkpt lat="45.67434" lon="5.98808">
        <ele>1403.66</ele>
        <time>2012-06-24T08:44:37Z</time>
      </trkpt>
      <trkpt lat="45.67434" lon="5.98811">
        <ele>1404.14</ele>
        <time>2012-06-24T08:44:38Z</time>
      </trkpt>
      <trkpt lat="45.67434" lon="5.9883">
        <ele>1404.14</ele>
        <time>2012-06-24T08:44:42Z</time>
      </trkpt>
      <trkpt lat="45.67435" lon="5.98843">
        <ele>1403.66</ele>
        <time>2012-06-24T08:44:44Z</time>
      </trkpt>
      <trkpt lat="45.67436" lon="5.98849">
        <ele>1403.66</ele>
        <time>2012-06-24T08:44:45Z</time>
      </trkpt>
      <trkpt lat="45.67435" lon="5.98855">
        <ele>1403.66</ele>
        <time>2012-06-24T08:44:46Z</time>
      </trkpt>
      <trkpt lat="45.6741" lon="5.98901">
        <ele>1406.07</ele>
        <time>2012-06-24T08:44:58Z</time>
      </trkpt>
      <trkpt lat="45.67403" lon="5.98912">
        <ele>1405.58</ele>
        <time>2012-06-24T08:45:01Z</time>
      </trkpt>
      <trkpt lat="45.67377" lon="5.98938">
        <ele>1407.99</ele>
        <time>2012-06-24T08:45:11Z</time>
      </trkpt>
      <trkpt lat="45.67359" lon="5.98957">
        <ele>1407.99</ele>
        <time>2012-06-24T08:45:20Z</time>
      </trkpt>
      <trkpt lat="45.67347" lon="5.98964">
        <ele>1406.55</ele>
        <time>2012-06-24T08:45:23Z</time>
      </trkpt>
      <trkpt lat="45.67337" lon="5.98969">
        <ele>1405.58</ele>
        <time>2012-06-24T08:45:25Z</time>
      </trkpt>
      <trkpt lat="45.6733" lon="5.9897">
        <ele>1405.58</ele>
        <time>2012-06-24T08:45:26Z</time>
      </trkpt>
      <trkpt lat="45.67325" lon="5.9897">
        <ele>1406.07</ele>
        <time>2012-06-24T08:45:27Z</time>
      </trkpt>
      <trkpt lat="45.67321" lon="5.98971">
        <ele>1407.03</ele>
        <time>2012-06-24T08:45:28Z</time>
      </trkpt>
      <trkpt lat="45.67319" lon="5.98971">
        <ele>1407.51</ele>
        <time>2012-06-24T08:45:29Z</time>
      </trkpt>
      <trkpt lat="45.67317" lon="5.98971">
        <ele>1407.51</ele>
        <time>2012-06-24T08:45:30Z</time>
      </trkpt>
      <trkpt lat="45.67315" lon="5.98972">
        <ele>1407.51</ele>
        <time>2012-06-24T08:45:31Z</time>
      </trkpt>
      <trkpt lat="45.67304" lon="5.98973">
        <ele>1406.55</ele>
        <time>2012-06-24T08:45:34Z</time>
      </trkpt>
      <trkpt lat="45.673" lon="5.98973">
        <ele>1407.03</ele>
        <time>2012-06-24T08:45:35Z</time>
      </trkpt>
      <trkpt lat="45.67273" lon="5.98975">
        <ele>1409.91</ele>
        <time>2012-06-24T08:45:45Z</time>
      </trkpt>
      <trkpt lat="45.67262" lon="5.98967">
        <ele>1407.99</ele>
        <time>2012-06-24T08:45:49Z</time>
      </trkpt>
      <trkpt lat="45.67252" lon="5.98956">
        <ele>1407.03</ele>
        <time>2012-06-24T08:45:51Z</time>
      </trkpt>
      <trkpt lat="45.67246" lon="5.98948">
        <ele>1407.99</ele>
        <time>2012-06-24T08:45:53Z</time>
      </trkpt>
      <trkpt lat="45.67244" lon="5.98944">
        <ele>1408.47</ele>
        <time>2012-06-24T08:45:54Z</time>
      </trkpt>
      <trkpt lat="45.67231" lon="5.98919">
        <ele>1409.43</ele>
        <time>2012-06-24T08:46:01Z</time>
      </trkpt>
      <trkpt lat="45.67229" lon="5.98917">
        <ele>1409.91</ele>
        <time>2012-06-24T08:46:02Z</time>
      </trkpt>
      <trkpt lat="45.67226" lon="5.98916">
        <ele>1409.91</ele>
        <time>2012-06-24T08:46:03Z</time>
      </trkpt>
      <trkpt lat="45.67224" lon="5.98915">
        <ele>1409.91</ele>
        <time>2012-06-24T08:46:04Z</time>
      </trkpt>
      <trkpt lat="45.67222" lon="5.98913">
        <ele>1409.91</ele>
        <time>2012-06-24T08:46:05Z</time>
      </trkpt>
      <trkpt lat="45.6722" lon="5.98911">
        <ele>1409.91</ele>
        <time>2012-06-24T08:46:06Z</time>
      </trkpt>
      <trkpt lat="45.67218" lon="5.98909">
        <ele>1409.91</ele>
        <time>2012-06-24T08:46:07Z</time>
      </trkpt>
      <trkpt lat="45.67204" lon="5.98871">
        <ele>1409.91</ele>
        <time>2012-06-24T08:46:17Z</time>
      </trkpt>
      <trkpt lat="45.67181" lon="5.9884">
        <ele>1409.91</ele>
        <time>2012-06-24T08:46:28Z</time>
      </trkpt>
      <trkpt lat="45.67176" lon="5.9884">
        <ele>1408.95</ele>
        <time>2012-06-24T08:46:29Z</time>
      </trkpt>
      <trkpt lat="45.67171" lon="5.98842">
        <ele>1408.47</ele>
        <time>2012-06-24T08:46:30Z</time>
      </trkpt>
      <trkpt lat="45.67166" lon="5.98846">
        <ele>1408.47</ele>
        <time>2012-06-24T08:46:31Z</time>
      </trkpt>
      <trkpt lat="45.67162" lon="5.9885">
        <ele>1408.47</ele>
        <time>2012-06-24T08:46:32Z</time>
      </trkpt>
      <trkpt lat="45.67157" lon="5.98853">
        <ele>1408.95</ele>
        <time>2012-06-24T08:46:33Z</time>
      </trkpt>
      <trkpt lat="45.67152" lon="5.98856">
        <ele>1407.99</ele>
        <time>2012-06-24T08:46:34Z</time>
      </trkpt>
      <trkpt lat="45.67149" lon="5.98858">
        <ele>1407.51</ele>
        <time>2012-06-24T08:46:35Z</time>
      </trkpt>
      <trkpt lat="45.67123" lon="5.98868">
        <ele>1406.55</ele>
        <time>2012-06-24T08:46:39Z</time>
      </trkpt>
      <trkpt lat="45.67117" lon="5.98873">
        <ele>1405.1</ele>
        <time>2012-06-24T08:46:40Z</time>
      </trkpt>
      <trkpt lat="45.67112" lon="5.98878">
        <ele>1404.62</ele>
        <time>2012-06-24T08:46:41Z</time>
      </trkpt>
      <trkpt lat="45.67108" lon="5.98882">
        <ele>1404.14</ele>
        <time>2012-06-24T08:46:42Z</time>
      </trkpt>
      <trkpt lat="45.67102" lon="5.98888">
        <ele>1403.18</ele>
        <time>2012-06-24T08:46:45Z</time>
      </trkpt>
      <trkpt lat="45.67099" lon="5.98877">
        <ele>1404.62</ele>
        <time>2012-06-24T08:46:54Z</time>
      </trkpt>
      <trkpt lat="45.67098" lon="5.98866">
        <ele>1404.62</ele>
        <time>2012-06-24T08:47:00Z</time>
      </trkpt>
      <trkpt lat="45.6709" lon="5.98858">
        <ele>1405.58</ele>
        <time>2012-06-24T08:47:12Z</time>
      </trkpt>
      <trkpt lat="45.67081" lon="5.98844">
        <ele>1406.07</ele>
        <time>2012-06-24T08:47:20Z</time>
      </trkpt>
      <trkpt lat="45.67073" lon="5.9883">
        <ele>1406.55</ele>
        <time>2012-06-24T08:47:27Z</time>
      </trkpt>
      <trkpt lat="45.67062" lon="5.98833">
        <ele>1406.07</ele>
        <time>2012-06-24T08:47:36Z</time>
      </trkpt>
      <trkpt lat="45.67061" lon="5.98832">
        <ele>1406.07</ele>
        <time>2012-06-24T08:47:37Z</time>
      </trkpt>
      <trkpt lat="45.67054" lon="5.9883">
        <ele>1406.55</ele>
        <time>2012-06-24T08:47:42Z</time>
      </trkpt>
      <trkpt lat="45.67054" lon="5.98822">
        <ele>1406.55</ele>
        <time>2012-06-24T08:47:46Z</time>
      </trkpt>
      <trkpt lat="45.67046" lon="5.98799">
        <ele>1408.47</ele>
        <time>2012-06-24T08:47:57Z</time>
      </trkpt>
      <trkpt lat="45.67044" lon="5.9879">
        <ele>1409.91</ele>
        <time>2012-06-24T08:48:01Z</time>
      </trkpt>
      <trkpt lat="45.67034" lon="5.98779">
        <ele>1407.51</ele>
        <time>2012-06-24T08:48:08Z</time>
      </trkpt>
      <trkpt lat="45.67024" lon="5.98769">
        <ele>1406.55</ele>
        <time>2012-06-24T08:48:12Z</time>
      </trkpt>
      <trkpt lat="45.67011" lon="5.98761">
        <ele>1404.62</ele>
        <time>2012-06-24T08:48:17Z</time>
      </trkpt>
      <trkpt lat="45.66988" lon="5.98761">
        <ele>1401.26</ele>
        <time>2012-06-24T08:48:25Z</time>
      </trkpt>
      <trkpt lat="45.66942" lon="5.98758">
        <ele>1397.89</ele>
        <time>2012-06-24T08:48:39Z</time>
      </trkpt>
      <trkpt lat="45.66864" lon="5.98745">
        <ele>1395.49</ele>
        <time>2012-06-24T08:48:52Z</time>
      </trkpt>
      <trkpt lat="45.66822" lon="5.98695">
        <ele>1392.61</ele>
        <time>2012-06-24T08:49:06Z</time>
      </trkpt>
      <trkpt lat="45.6682" lon="5.98689">
        <ele>1393.09</ele>
        <time>2012-06-24T08:49:07Z</time>
      </trkpt>
      <trkpt lat="45.66808" lon="5.98668">
        <ele>1390.68</ele>
        <time>2012-06-24T08:49:11Z</time>
      </trkpt>
      <trkpt lat="45.66782" lon="5.98644">
        <ele>1387.32</ele>
        <time>2012-06-24T08:49:18Z</time>
      </trkpt>
      <trkpt lat="45.66772" lon="5.98636">
        <ele>1383.96</ele>
        <time>2012-06-24T08:49:21Z</time>
      </trkpt>
      <trkpt lat="45.66746" lon="5.98626">
        <ele>1381.07</ele>
        <time>2012-06-24T08:49:26Z</time>
      </trkpt>
      <trkpt lat="45.66715" lon="5.98608">
        <ele>1379.63</ele>
        <time>2012-06-24T08:49:32Z</time>
      </trkpt>
      <trkpt lat="45.66712" lon="5.98605">
        <ele>1380.11</ele>
        <time>2012-06-24T08:49:33Z</time>
      </trkpt>
      <trkpt lat="45.66709" lon="5.98603">
        <ele>1379.63</ele>
        <time>2012-06-24T08:49:34Z</time>
      </trkpt>
      <trkpt lat="45.66692" lon="5.98596">
        <ele>1379.63</ele>
        <time>2012-06-24T08:49:38Z</time>
      </trkpt>
      <trkpt lat="45.66687" lon="5.98594">
        <ele>1379.63</ele>
        <time>2012-06-24T08:49:39Z</time>
      </trkpt>
      <trkpt lat="45.66684" lon="5.9859">
        <ele>1380.11</ele>
        <time>2012-06-24T08:49:40Z</time>
      </trkpt>
      <trkpt lat="45.6668" lon="5.98588">
        <ele>1379.63</ele>
        <time>2012-06-24T08:49:41Z</time>
      </trkpt>
      <trkpt lat="45.66676" lon="5.98586">
        <ele>1379.15</ele>
        <time>2012-06-24T08:49:42Z</time>
      </trkpt>
      <trkpt lat="45.66663" lon="5.9858">
        <ele>1378.67</ele>
        <time>2012-06-24T08:49:45Z</time>
      </trkpt>
      <trkpt lat="45.6666" lon="5.98575">
        <ele>1378.19</ele>
        <time>2012-06-24T08:49:46Z</time>
      </trkpt>
      <trkpt lat="45.66657" lon="5.98568">
        <ele>1378.67</ele>
        <time>2012-06-24T08:49:47Z</time>
      </trkpt>
      <trkpt lat="45.66655" lon="5.98562">
        <ele>1378.19</ele>
        <time>2012-06-24T08:49:48Z</time>
      </trkpt>
      <trkpt lat="45.66652" lon="5.98555">
        <ele>1378.19</ele>
        <time>2012-06-24T08:49:49Z</time>
      </trkpt>
      <trkpt lat="45.66649" lon="5.98549">
        <ele>1378.19</ele>
        <time>2012-06-24T08:49:50Z</time>
      </trkpt>
      <trkpt lat="45.66623" lon="5.98501">
        <ele>1378.19</ele>
        <time>2012-06-24T08:49:58Z</time>
      </trkpt>
      <trkpt lat="45.66615" lon="5.98491">
        <ele>1378.19</ele>
        <time>2012-06-24T08:50:00Z</time>
      </trkpt>
      <trkpt lat="45.66533" lon="5.98417">
        <ele>1376.75</ele>
        <time>2012-06-24T08:50:16Z</time>
      </trkpt>
      <trkpt lat="45.66493" lon="5.98387">
        <ele>1376.75</ele>
        <time>2012-06-24T08:50:23Z</time>
      </trkpt>
      <trkpt lat="45.66487" lon="5.98386">
        <ele>1377.23</ele>
        <time>2012-06-24T08:50:24Z</time>
      </trkpt>
      <trkpt lat="45.66481" lon="5.98387">
        <ele>1377.23</ele>
        <time>2012-06-24T08:50:25Z</time>
      </trkpt>
      <trkpt lat="45.6647" lon="5.9839">
        <ele>1377.23</ele>
        <time>2012-06-24T08:50:27Z</time>
      </trkpt>
      <trkpt lat="45.66464" lon="5.98393">
        <ele>1376.75</ele>
        <time>2012-06-24T08:50:28Z</time>
      </trkpt>
      <trkpt lat="45.66458" lon="5.98396">
        <ele>1377.23</ele>
        <time>2012-06-24T08:50:29Z</time>
      </trkpt>
      <trkpt lat="45.66397" lon="5.98449">
        <ele>1377.71</ele>
        <time>2012-06-24T08:50:42Z</time>
      </trkpt>
      <trkpt lat="45.66385" lon="5.98461">
        <ele>1379.15</ele>
        <time>2012-06-24T08:50:45Z</time>
      </trkpt>
      <trkpt lat="45.66366" lon="5.98477">
        <ele>1380.11</ele>
        <time>2012-06-24T08:50:50Z</time>
      </trkpt>
      <trkpt lat="45.66362" lon="5.98479">
        <ele>1380.11</ele>
        <time>2012-06-24T08:50:51Z</time>
      </trkpt>
      <trkpt lat="45.66357" lon="5.98481">
        <ele>1380.59</ele>
        <time>2012-06-24T08:50:52Z</time>
      </trkpt>
      <trkpt lat="45.66353" lon="5.98482">
        <ele>1380.11</ele>
        <time>2012-06-24T08:50:53Z</time>
      </trkpt>
      <trkpt lat="45.66349" lon="5.98482">
        <ele>1380.11</ele>
        <time>2012-06-24T08:50:54Z</time>
      </trkpt>
      <trkpt lat="45.66345" lon="5.98482">
        <ele>1380.11</ele>
        <time>2012-06-24T08:50:55Z</time>
      </trkpt>
      <trkpt lat="45.6634" lon="5.98481">
        <ele>1380.11</ele>
        <time>2012-06-24T08:50:56Z</time>
      </trkpt>
      <trkpt lat="45.66332" lon="5.98478">
        <ele>1380.11</ele>
        <time>2012-06-24T08:50:58Z</time>
      </trkpt>
      <trkpt lat="45.66327" lon="5.98476">
        <ele>1380.11</ele>
        <time>2012-06-24T08:50:59Z</time>
      </trkpt>
      <trkpt lat="45.66324" lon="5.98474">
        <ele>1379.63</ele>
        <time>2012-06-24T08:51:00Z</time>
      </trkpt>
      <trkpt lat="45.66303" lon="5.98463">
        <ele>1380.11</ele>
        <time>2012-06-24T08:51:05Z</time>
      </trkpt>
      <trkpt lat="45.66299" lon="5.98462">
        <ele>1379.63</ele>
        <time>2012-06-24T08:51:06Z</time>
      </trkpt>
      <trkpt lat="45.66296" lon="5.98463">
        <ele>1380.11</ele>
        <time>2012-06-24T08:51:07Z</time>
      </trkpt>
      <trkpt lat="45.66293" lon="5.98467">
        <ele>1380.11</ele>
        <time>2012-06-24T08:51:08Z</time>
      </trkpt>
      <trkpt lat="45.66293" lon="5.98471">
        <ele>1378.67</ele>
        <time>2012-06-24T08:51:09Z</time>
      </trkpt>
      <trkpt lat="45.66295" lon="5.98475">
        <ele>1378.67</ele>
        <time>2012-06-24T08:51:10Z</time>
      </trkpt>
      <trkpt lat="45.66297" lon="5.98478">
        <ele>1379.15</ele>
        <time>2012-06-24T08:51:11Z</time>
      </trkpt>
      <trkpt lat="45.66299" lon="5.98482">
        <ele>1379.15</ele>
        <time>2012-06-24T08:51:12Z</time>
      </trkpt>
      <trkpt lat="45.66302" lon="5.98486">
        <ele>1379.15</ele>
        <time>2012-06-24T08:51:13Z</time>
      </trkpt>
      <trkpt lat="45.66304" lon="5.9849">
        <ele>1379.15</ele>
        <time>2012-06-24T08:51:14Z</time>
      </trkpt>
      <trkpt lat="45.66306" lon="5.98494">
        <ele>1379.15</ele>
        <time>2012-06-24T08:51:15Z</time>
      </trkpt>
      <trkpt lat="45.66308" lon="5.98498">
        <ele>1379.15</ele>
        <time>2012-06-24T08:51:16Z</time>
      </trkpt>
      <trkpt lat="45.6631" lon="5.98501">
        <ele>1379.63</ele>
        <time>2012-06-24T08:51:17Z</time>
      </trkpt>
      <trkpt lat="45.66329" lon="5.98549">
        <ele>1380.11</ele>
        <time>2012-06-24T08:51:30Z</time>
      </trkpt>
      <trkpt lat="45.66343" lon="5.9858">
        <ele>1382.03</ele>
        <time>2012-06-24T08:51:41Z</time>
      </trkpt>
      <trkpt lat="45.66362" lon="5.98629">
        <ele>1380.59</ele>
        <time>2012-06-24T08:51:51Z</time>
      </trkpt>
      <trkpt lat="45.66377" lon="5.98673">
        <ele>1382.51</ele>
        <time>2012-06-24T08:52:03Z</time>
      </trkpt>
      <trkpt lat="45.66384" lon="5.98726">
        <ele>1382.03</ele>
        <time>2012-06-24T08:52:15Z</time>
      </trkpt>
      <trkpt lat="45.6639" lon="5.98778">
        <ele>1382.03</ele>
        <time>2012-06-24T08:52:25Z</time>
      </trkpt>
      <trkpt lat="45.66391" lon="5.98784">
        <ele>1381.55</ele>
        <time>2012-06-24T08:52:26Z</time>
      </trkpt>
      <trkpt lat="45.66392" lon="5.9879">
        <ele>1381.55</ele>
        <time>2012-06-24T08:52:27Z</time>
      </trkpt>
      <trkpt lat="45.66393" lon="5.98795">
        <ele>1381.55</ele>
        <time>2012-06-24T08:52:28Z</time>
      </trkpt>
      <trkpt lat="45.66395" lon="5.98801">
        <ele>1381.55</ele>
        <time>2012-06-24T08:52:29Z</time>
      </trkpt>
      <trkpt lat="45.6641" lon="5.98861">
        <ele>1383.47</ele>
        <time>2012-06-24T08:52:41Z</time>
      </trkpt>
      <trkpt lat="45.66431" lon="5.98923">
        <ele>1384.44</ele>
        <time>2012-06-24T08:52:54Z</time>
      </trkpt>
      <trkpt lat="45.66435" lon="5.98934">
        <ele>1383.96</ele>
        <time>2012-06-24T08:52:56Z</time>
      </trkpt>
      <trkpt lat="45.66436" lon="5.9894">
        <ele>1383.47</ele>
        <time>2012-06-24T08:52:57Z</time>
      </trkpt>
      <trkpt lat="45.66436" lon="5.98946">
        <ele>1384.44</ele>
        <time>2012-06-24T08:52:58Z</time>
      </trkpt>
      <trkpt lat="45.66437" lon="5.98952">
        <ele>1384.44</ele>
        <time>2012-06-24T08:52:59Z</time>
      </trkpt>
      <trkpt lat="45.66438" lon="5.98958">
        <ele>1384.44</ele>
        <time>2012-06-24T08:53:00Z</time>
      </trkpt>
      <trkpt lat="45.66445" lon="5.98982">
        <ele>1382.99</ele>
        <time>2012-06-24T08:53:04Z</time>
      </trkpt>
      <trkpt lat="45.66447" lon="5.98988">
        <ele>1382.99</ele>
        <time>2012-06-24T08:53:05Z</time>
      </trkpt>
      <trkpt lat="45.66452" lon="5.99012">
        <ele>1382.03</ele>
        <time>2012-06-24T08:53:08Z</time>
      </trkpt>
      <trkpt lat="45.66454" lon="5.9902">
        <ele>1382.03</ele>
        <time>2012-06-24T08:53:09Z</time>
      </trkpt>
      <trkpt lat="45.66459" lon="5.99045">
        <ele>1381.07</ele>
        <time>2012-06-24T08:53:12Z</time>
      </trkpt>
      <trkpt lat="45.66462" lon="5.99052">
        <ele>1381.07</ele>
        <time>2012-06-24T08:53:13Z</time>
      </trkpt>
      <trkpt lat="45.66464" lon="5.99059">
        <ele>1381.55</ele>
        <time>2012-06-24T08:53:14Z</time>
      </trkpt>
      <trkpt lat="45.66471" lon="5.9908">
        <ele>1382.03</ele>
        <time>2012-06-24T08:53:18Z</time>
      </trkpt>
      <trkpt lat="45.66472" lon="5.99086">
        <ele>1382.51</ele>
        <time>2012-06-24T08:53:19Z</time>
      </trkpt>
      <trkpt lat="45.66473" lon="5.9909">
        <ele>1382.99</ele>
        <time>2012-06-24T08:53:20Z</time>
      </trkpt>
      <trkpt lat="45.66476" lon="5.99099">
        <ele>1383.96</ele>
        <time>2012-06-24T08:53:22Z</time>
      </trkpt>
      <trkpt lat="45.66496" lon="5.99149">
        <ele>1384.44</ele>
        <time>2012-06-24T08:53:34Z</time>
      </trkpt>
      <trkpt lat="45.66512" lon="5.99157">
        <ele>1382.03</ele>
        <time>2012-06-24T08:53:38Z</time>
      </trkpt>
      <trkpt lat="45.66517" lon="5.99162">
        <ele>1381.07</ele>
        <time>2012-06-24T08:53:39Z</time>
      </trkpt>
      <trkpt lat="45.66522" lon="5.99169">
        <ele>1381.07</ele>
        <time>2012-06-24T08:53:40Z</time>
      </trkpt>
      <trkpt lat="45.66526" lon="5.99177">
        <ele>1381.07</ele>
        <time>2012-06-24T08:53:41Z</time>
      </trkpt>
      <trkpt lat="45.6653" lon="5.99186">
        <ele>1380.11</ele>
        <time>2012-06-24T08:53:42Z</time>
      </trkpt>
      <trkpt lat="45.66534" lon="5.99195">
        <ele>1379.63</ele>
        <time>2012-06-24T08:53:43Z</time>
      </trkpt>
      <trkpt lat="45.66536" lon="5.99204">
        <ele>1380.11</ele>
        <time>2012-06-24T08:53:44Z</time>
      </trkpt>
      <trkpt lat="45.66538" lon="5.99214">
        <ele>1380.11</ele>
        <time>2012-06-24T08:53:45Z</time>
      </trkpt>
      <trkpt lat="45.66538" lon="5.99223">
        <ele>1379.63</ele>
        <time>2012-06-24T08:53:46Z</time>
      </trkpt>
      <trkpt lat="45.66536" lon="5.99261">
        <ele>1377.71</ele>
        <time>2012-06-24T08:53:50Z</time>
      </trkpt>
      <trkpt lat="45.66535" lon="5.9927">
        <ele>1377.23</ele>
        <time>2012-06-24T08:53:51Z</time>
      </trkpt>
      <trkpt lat="45.66535" lon="5.99279">
        <ele>1377.71</ele>
        <time>2012-06-24T08:53:52Z</time>
      </trkpt>
      <trkpt lat="45.66535" lon="5.99289">
        <ele>1377.23</ele>
        <time>2012-06-24T08:53:53Z</time>
      </trkpt>
      <trkpt lat="45.66536" lon="5.99298">
        <ele>1376.75</ele>
        <time>2012-06-24T08:53:54Z</time>
      </trkpt>
      <trkpt lat="45.66537" lon="5.99308">
        <ele>1376.26</ele>
        <time>2012-06-24T08:53:55Z</time>
      </trkpt>
      <trkpt lat="45.66542" lon="5.99339">
        <ele>1372.9</ele>
        <time>2012-06-24T08:53:58Z</time>
      </trkpt>
      <trkpt lat="45.66552" lon="5.99412">
        <ele>1370.5</ele>
        <time>2012-06-24T08:54:05Z</time>
      </trkpt>
      <trkpt lat="45.66553" lon="5.99422">
        <ele>1370.98</ele>
        <time>2012-06-24T08:54:06Z</time>
      </trkpt>
      <trkpt lat="45.66552" lon="5.99432">
        <ele>1370.02</ele>
        <time>2012-06-24T08:54:07Z</time>
      </trkpt>
      <trkpt lat="45.66549" lon="5.9944">
        <ele>1370.02</ele>
        <time>2012-06-24T08:54:08Z</time>
      </trkpt>
      <trkpt lat="45.66545" lon="5.99447">
        <ele>1370.02</ele>
        <time>2012-06-24T08:54:09Z</time>
      </trkpt>
      <trkpt lat="45.66541" lon="5.99453">
        <ele>1370.02</ele>
        <time>2012-06-24T08:54:10Z</time>
      </trkpt>
      <trkpt lat="45.66538" lon="5.9946">
        <ele>1370.02</ele>
        <time>2012-06-24T08:54:11Z</time>
      </trkpt>
      <trkpt lat="45.66535" lon="5.99467">
        <ele>1369.05</ele>
        <time>2012-06-24T08:54:12Z</time>
      </trkpt>
      <trkpt lat="45.66532" lon="5.99473">
        <ele>1369.05</ele>
        <time>2012-06-24T08:54:13Z</time>
      </trkpt>
      <trkpt lat="45.6653" lon="5.99478">
        <ele>1369.54</ele>
        <time>2012-06-24T08:54:14Z</time>
      </trkpt>
      <trkpt lat="45.66527" lon="5.99483">
        <ele>1370.5</ele>
        <time>2012-06-24T08:54:15Z</time>
      </trkpt>
      <trkpt lat="45.66524" lon="5.99488">
        <ele>1369.54</ele>
        <time>2012-06-24T08:54:16Z</time>
      </trkpt>
      <trkpt lat="45.66512" lon="5.99508">
        <ele>1370.5</ele>
        <time>2012-06-24T08:54:21Z</time>
      </trkpt>
      <trkpt lat="45.6651" lon="5.99513">
        <ele>1370.98</ele>
        <time>2012-06-24T08:54:22Z</time>
      </trkpt>
      <trkpt lat="45.6651" lon="5.99517">
        <ele>1370.98</ele>
        <time>2012-06-24T08:54:23Z</time>
      </trkpt>
      <trkpt lat="45.66504" lon="5.99564">
        <ele>1372.42</ele>
        <time>2012-06-24T08:54:32Z</time>
      </trkpt>
      <trkpt lat="45.66508" lon="5.99617">
        <ele>1373.86</ele>
        <time>2012-06-24T08:54:43Z</time>
      </trkpt>
      <trkpt lat="45.665" lon="5.99656">
        <ele>1375.78</ele>
        <time>2012-06-24T08:54:53Z</time>
      </trkpt>
      <trkpt lat="45.66504" lon="5.99687">
        <ele>1375.78</ele>
        <time>2012-06-24T08:55:00Z</time>
      </trkpt>
      <trkpt lat="45.66503" lon="5.99693">
        <ele>1375.3</ele>
        <time>2012-06-24T08:55:01Z</time>
      </trkpt>
      <trkpt lat="45.66494" lon="5.99748">
        <ele>1377.23</ele>
        <time>2012-06-24T08:55:12Z</time>
      </trkpt>
      <trkpt lat="45.66461" lon="5.99791">
        <ele>1377.23</ele>
        <time>2012-06-24T08:55:23Z</time>
      </trkpt>
      <trkpt lat="45.6643" lon="5.99836">
        <ele>1378.19</ele>
        <time>2012-06-24T08:55:36Z</time>
      </trkpt>
      <trkpt lat="45.66428" lon="5.99869">
        <ele>1378.19</ele>
        <time>2012-06-24T08:55:46Z</time>
      </trkpt>
      <trkpt lat="45.66432" lon="5.99901">
        <ele>1376.75</ele>
        <time>2012-06-24T08:55:52Z</time>
      </trkpt>
      <trkpt lat="45.66441" lon="5.99954">
        <ele>1378.19</ele>
        <time>2012-06-24T08:56:03Z</time>
      </trkpt>
      <trkpt lat="45.66439" lon="5.99968">
        <ele>1376.75</ele>
        <time>2012-06-24T08:56:06Z</time>
      </trkpt>
      <trkpt lat="45.6644" lon="6.00005">
        <ele>1375.3</ele>
        <time>2012-06-24T08:56:11Z</time>
      </trkpt>
      <trkpt lat="45.66439" lon="6.00012">
        <ele>1375.3</ele>
        <time>2012-06-24T08:56:12Z</time>
      </trkpt>
      <trkpt lat="45.66438" lon="6.00018">
        <ele>1376.26</ele>
        <time>2012-06-24T08:56:13Z</time>
      </trkpt>
      <trkpt lat="45.66438" lon="6.00022">
        <ele>1376.75</ele>
        <time>2012-06-24T08:56:14Z</time>
      </trkpt>
      <trkpt lat="45.66436" lon="6.00026">
        <ele>1377.23</ele>
        <time>2012-06-24T08:56:15Z</time>
      </trkpt>
      <trkpt lat="45.66435" lon="6.00028">
        <ele>1376.75</ele>
        <time>2012-06-24T08:56:16Z</time>
      </trkpt>
      <trkpt lat="45.66433" lon="6.00031">
        <ele>1377.23</ele>
        <time>2012-06-24T08:56:17Z</time>
      </trkpt>
      <trkpt lat="45.6643" lon="6.00034">
        <ele>1377.23</ele>
        <time>2012-06-24T08:56:18Z</time>
      </trkpt>
      <trkpt lat="45.66428" lon="6.00039">
        <ele>1377.23</ele>
        <time>2012-06-24T08:56:19Z</time>
      </trkpt>
      <trkpt lat="45.66423" lon="6.00063">
        <ele>1375.78</ele>
        <time>2012-06-24T08:56:23Z</time>
      </trkpt>
      <trkpt lat="45.66425" lon="6.00068">
        <ele>1375.78</ele>
        <time>2012-06-24T08:56:24Z</time>
      </trkpt>
      <trkpt lat="45.66427" lon="6.00073">
        <ele>1375.3</ele>
        <time>2012-06-24T08:56:25Z</time>
      </trkpt>
      <trkpt lat="45.6643" lon="6.00077">
        <ele>1374.82</ele>
        <time>2012-06-24T08:56:26Z</time>
      </trkpt>
      <trkpt lat="45.66432" lon="6.00082">
        <ele>1374.82</ele>
        <time>2012-06-24T08:56:27Z</time>
      </trkpt>
      <trkpt lat="45.66436" lon="6.00088">
        <ele>1375.3</ele>
        <time>2012-06-24T08:56:28Z</time>
      </trkpt>
      <trkpt lat="45.66461" lon="6.0013">
        <ele>1374.34</ele>
        <time>2012-06-24T08:56:34Z</time>
      </trkpt>
      <trkpt lat="45.66465" lon="6.00136">
        <ele>1372.9</ele>
        <time>2012-06-24T08:56:35Z</time>
      </trkpt>
      <trkpt lat="45.66472" lon="6.00141">
        <ele>1372.42</ele>
        <time>2012-06-24T08:56:36Z</time>
      </trkpt>
      <trkpt lat="45.66479" lon="6.00144">
        <ele>1372.42</ele>
        <time>2012-06-24T08:56:37Z</time>
      </trkpt>
      <trkpt lat="45.66486" lon="6.00147">
        <ele>1371.94</ele>
        <time>2012-06-24T08:56:38Z</time>
      </trkpt>
      <trkpt lat="45.66492" lon="6.00149">
        <ele>1372.42</ele>
        <time>2012-06-24T08:56:39Z</time>
      </trkpt>
      <trkpt lat="45.66498" lon="6.00151">
        <ele>1372.42</ele>
        <time>2012-06-24T08:56:40Z</time>
      </trkpt>
      <trkpt lat="45.66518" lon="6.00159">
        <ele>1372.9</ele>
        <time>2012-06-24T08:56:44Z</time>
      </trkpt>
      <trkpt lat="45.66532" lon="6.00171">
        <ele>1372.42</ele>
        <time>2012-06-24T08:56:47Z</time>
      </trkpt>
      <trkpt lat="45.66536" lon="6.00175">
        <ele>1372.9</ele>
        <time>2012-06-24T08:56:48Z</time>
      </trkpt>
      <trkpt lat="45.66559" lon="6.00201">
        <ele>1370.98</ele>
        <time>2012-06-24T08:56:53Z</time>
      </trkpt>
      <trkpt lat="45.66576" lon="6.00223">
        <ele>1371.46</ele>
        <time>2012-06-24T08:56:57Z</time>
      </trkpt>
      <trkpt lat="45.66581" lon="6.00226">
        <ele>1371.94</ele>
        <time>2012-06-24T08:56:58Z</time>
      </trkpt>
      <trkpt lat="45.66585" lon="6.0023">
        <ele>1371.46</ele>
        <time>2012-06-24T08:56:59Z</time>
      </trkpt>
      <trkpt lat="45.66604" lon="6.00243">
        <ele>1372.9</ele>
        <time>2012-06-24T08:57:04Z</time>
      </trkpt>
      <trkpt lat="45.66616" lon="6.00258">
        <ele>1372.42</ele>
        <time>2012-06-24T08:57:08Z</time>
      </trkpt>
      <trkpt lat="45.66627" lon="6.00278">
        <ele>1371.46</ele>
        <time>2012-06-24T08:57:11Z</time>
      </trkpt>
      <trkpt lat="45.66639" lon="6.0031">
        <ele>1370.5</ele>
        <time>2012-06-24T08:57:15Z</time>
      </trkpt>
      <trkpt lat="45.66642" lon="6.00318">
        <ele>1370.98</ele>
        <time>2012-06-24T08:57:16Z</time>
      </trkpt>
      <trkpt lat="45.66645" lon="6.00325">
        <ele>1370.5</ele>
        <time>2012-06-24T08:57:17Z</time>
      </trkpt>
      <trkpt lat="45.66666" lon="6.00362">
        <ele>1368.09</ele>
        <time>2012-06-24T08:57:22Z</time>
      </trkpt>
      <trkpt lat="45.6667" lon="6.00368">
        <ele>1368.09</ele>
        <time>2012-06-24T08:57:23Z</time>
      </trkpt>
      <trkpt lat="45.66675" lon="6.00373">
        <ele>1368.09</ele>
        <time>2012-06-24T08:57:24Z</time>
      </trkpt>
      <trkpt lat="45.66679" lon="6.00378">
        <ele>1367.61</ele>
        <time>2012-06-24T08:57:25Z</time>
      </trkpt>
      <trkpt lat="45.66683" lon="6.00382">
        <ele>1367.61</ele>
        <time>2012-06-24T08:57:26Z</time>
      </trkpt>
      <trkpt lat="45.66687" lon="6.00386">
        <ele>1367.61</ele>
        <time>2012-06-24T08:57:27Z</time>
      </trkpt>
      <trkpt lat="45.66691" lon="6.00389">
        <ele>1368.09</ele>
        <time>2012-06-24T08:57:28Z</time>
      </trkpt>
      <trkpt lat="45.66705" lon="6.004">
        <ele>1367.61</ele>
        <time>2012-06-24T08:57:32Z</time>
      </trkpt>
      <trkpt lat="45.66708" lon="6.00403">
        <ele>1368.09</ele>
        <time>2012-06-24T08:57:33Z</time>
      </trkpt>
      <trkpt lat="45.66719" lon="6.00412">
        <ele>1367.13</ele>
        <time>2012-06-24T08:57:36Z</time>
      </trkpt>
      <trkpt lat="45.66736" lon="6.00425">
        <ele>1368.57</ele>
        <time>2012-06-24T08:57:40Z</time>
      </trkpt>
      <trkpt lat="45.66739" lon="6.00428">
        <ele>1369.05</ele>
        <time>2012-06-24T08:57:41Z</time>
      </trkpt>
      <trkpt lat="45.66753" lon="6.00443">
        <ele>1368.57</ele>
        <time>2012-06-24T08:57:45Z</time>
      </trkpt>
      <trkpt lat="45.66756" lon="6.00448">
        <ele>1369.05</ele>
        <time>2012-06-24T08:57:46Z</time>
      </trkpt>
      <trkpt lat="45.66768" lon="6.00469">
        <ele>1369.05</ele>
        <time>2012-06-24T08:57:50Z</time>
      </trkpt>
      <trkpt lat="45.66777" lon="6.00487">
        <ele>1368.09</ele>
        <time>2012-06-24T08:57:53Z</time>
      </trkpt>
      <trkpt lat="45.66784" lon="6.00506">
        <ele>1368.09</ele>
        <time>2012-06-24T08:57:56Z</time>
      </trkpt>
      <trkpt lat="45.66788" lon="6.00512">
        <ele>1368.09</ele>
        <time>2012-06-24T08:57:57Z</time>
      </trkpt>
      <trkpt lat="45.66792" lon="6.00517">
        <ele>1368.57</ele>
        <time>2012-06-24T08:57:58Z</time>
      </trkpt>
      <trkpt lat="45.66796" lon="6.00521">
        <ele>1368.57</ele>
        <time>2012-06-24T08:57:59Z</time>
      </trkpt>
      <trkpt lat="45.668" lon="6.00525">
        <ele>1368.09</ele>
        <time>2012-06-24T08:58:00Z</time>
      </trkpt>
      <trkpt lat="45.66835" lon="6.00567">
        <ele>1369.54</ele>
        <time>2012-06-24T08:58:11Z</time>
      </trkpt>
      <trkpt lat="45.66856" lon="6.00587">
        <ele>1369.54</ele>
        <time>2012-06-24T08:58:17Z</time>
      </trkpt>
      <trkpt lat="45.66861" lon="6.0059">
        <ele>1369.54</ele>
        <time>2012-06-24T08:58:18Z</time>
      </trkpt>
      <trkpt lat="45.66864" lon="6.00592">
        <ele>1370.02</ele>
        <time>2012-06-24T08:58:19Z</time>
      </trkpt>
      <trkpt lat="45.66868" lon="6.00594">
        <ele>1370.02</ele>
        <time>2012-06-24T08:58:20Z</time>
      </trkpt>
      <trkpt lat="45.66871" lon="6.00596">
        <ele>1370.02</ele>
        <time>2012-06-24T08:58:21Z</time>
      </trkpt>
      <trkpt lat="45.66874" lon="6.00598">
        <ele>1369.54</ele>
        <time>2012-06-24T08:58:22Z</time>
      </trkpt>
      <trkpt lat="45.66878" lon="6.00601">
        <ele>1370.02</ele>
        <time>2012-06-24T08:58:23Z</time>
      </trkpt>
      <trkpt lat="45.66882" lon="6.00605">
        <ele>1370.02</ele>
        <time>2012-06-24T08:58:24Z</time>
      </trkpt>
      <trkpt lat="45.6693" lon="6.00634">
        <ele>1370.98</ele>
        <time>2012-06-24T08:58:36Z</time>
      </trkpt>
      <trkpt lat="45.66955" lon="6.00644">
        <ele>1370.5</ele>
        <time>2012-06-24T08:58:42Z</time>
      </trkpt>
      <trkpt lat="45.66959" lon="6.00649">
        <ele>1370.5</ele>
        <time>2012-06-24T08:58:43Z</time>
      </trkpt>
      <trkpt lat="45.66969" lon="6.00659">
        <ele>1369.54</ele>
        <time>2012-06-24T08:58:45Z</time>
      </trkpt>
      <trkpt lat="45.66983" lon="6.00674">
        <ele>1370.98</ele>
        <time>2012-06-24T08:58:48Z</time>
      </trkpt>
      <trkpt lat="45.66986" lon="6.00678">
        <ele>1371.46</ele>
        <time>2012-06-24T08:58:49Z</time>
      </trkpt>
      <trkpt lat="45.66989" lon="6.00687">
        <ele>1370.98</ele>
        <time>2012-06-24T08:58:52Z</time>
      </trkpt>
      <trkpt lat="45.66999" lon="6.00719">
        <ele>1372.42</ele>
        <time>2012-06-24T08:59:00Z</time>
      </trkpt>
      <trkpt lat="45.67002" lon="6.00722">
        <ele>1372.42</ele>
        <time>2012-06-24T08:59:01Z</time>
      </trkpt>
      <trkpt lat="45.67005" lon="6.00724">
        <ele>1372.42</ele>
        <time>2012-06-24T08:59:02Z</time>
      </trkpt>
      <trkpt lat="45.67027" lon="6.00748">
        <ele>1374.82</ele>
        <time>2012-06-24T08:59:11Z</time>
      </trkpt>
      <trkpt lat="45.67029" lon="6.00753">
        <ele>1374.34</ele>
        <time>2012-06-24T08:59:12Z</time>
      </trkpt>
      <trkpt lat="45.67037" lon="6.00776">
        <ele>1370.98</ele>
        <time>2012-06-24T08:59:15Z</time>
      </trkpt>
      <trkpt lat="45.67042" lon="6.00783">
        <ele>1370.98</ele>
        <time>2012-06-24T08:59:16Z</time>
      </trkpt>
      <trkpt lat="45.67047" lon="6.00787">
        <ele>1371.46</ele>
        <time>2012-06-24T08:59:17Z</time>
      </trkpt>
      <trkpt lat="45.67051" lon="6.00789">
        <ele>1370.98</ele>
        <time>2012-06-24T08:59:18Z</time>
      </trkpt>
      <trkpt lat="45.67056" lon="6.0079">
        <ele>1370.98</ele>
        <time>2012-06-24T08:59:19Z</time>
      </trkpt>
      <trkpt lat="45.6706" lon="6.00789">
        <ele>1370.5</ele>
        <time>2012-06-24T08:59:20Z</time>
      </trkpt>
      <trkpt lat="45.67065" lon="6.00787">
        <ele>1369.05</ele>
        <time>2012-06-24T08:59:21Z</time>
      </trkpt>
      <trkpt lat="45.67071" lon="6.00784">
        <ele>1369.05</ele>
        <time>2012-06-24T08:59:22Z</time>
      </trkpt>
      <trkpt lat="45.67077" lon="6.0078">
        <ele>1368.57</ele>
        <time>2012-06-24T08:59:23Z</time>
      </trkpt>
      <trkpt lat="45.67082" lon="6.00775">
        <ele>1368.57</ele>
        <time>2012-06-24T08:59:24Z</time>
      </trkpt>
      <trkpt lat="45.67085" lon="6.00768">
        <ele>1368.57</ele>
        <time>2012-06-24T08:59:25Z</time>
      </trkpt>
      <trkpt lat="45.67088" lon="6.00761">
        <ele>1368.57</ele>
        <time>2012-06-24T08:59:26Z</time>
      </trkpt>
      <trkpt lat="45.6709" lon="6.00753">
        <ele>1368.09</ele>
        <time>2012-06-24T08:59:27Z</time>
      </trkpt>
      <trkpt lat="45.67093" lon="6.00744">
        <ele>1367.61</ele>
        <time>2012-06-24T08:59:28Z</time>
      </trkpt>
      <trkpt lat="45.67098" lon="6.00715">
        <ele>1366.17</ele>
        <time>2012-06-24T08:59:31Z</time>
      </trkpt>
      <trkpt lat="45.671" lon="6.00696">
        <ele>1365.69</ele>
        <time>2012-06-24T08:59:33Z</time>
      </trkpt>
      <trkpt lat="45.671" lon="6.00687">
        <ele>1365.69</ele>
        <time>2012-06-24T08:59:34Z</time>
      </trkpt>
      <trkpt lat="45.67101" lon="6.00678">
        <ele>1365.21</ele>
        <time>2012-06-24T08:59:35Z</time>
      </trkpt>
      <trkpt lat="45.67106" lon="6.00637">
        <ele>1365.69</ele>
        <time>2012-06-24T08:59:40Z</time>
      </trkpt>
      <trkpt lat="45.67106" lon="6.00632">
        <ele>1365.69</ele>
        <time>2012-06-24T08:59:41Z</time>
      </trkpt>
      <trkpt lat="45.67107" lon="6.00627">
        <ele>1366.65</ele>
        <time>2012-06-24T08:59:42Z</time>
      </trkpt>
      <trkpt lat="45.67107" lon="6.00616">
        <ele>1366.17</ele>
        <time>2012-06-24T08:59:44Z</time>
      </trkpt>
      <trkpt lat="45.67108" lon="6.0061">
        <ele>1366.65</ele>
        <time>2012-06-24T08:59:45Z</time>
      </trkpt>
      <trkpt lat="45.67109" lon="6.00604">
        <ele>1366.65</ele>
        <time>2012-06-24T08:59:46Z</time>
      </trkpt>
      <trkpt lat="45.6711" lon="6.00592">
        <ele>1366.17</ele>
        <time>2012-06-24T08:59:48Z</time>
      </trkpt>
      <trkpt lat="45.6711" lon="6.00586">
        <ele>1366.65</ele>
        <time>2012-06-24T08:59:49Z</time>
      </trkpt>
      <trkpt lat="45.67108" lon="6.00559">
        <ele>1367.13</ele>
        <time>2012-06-24T08:59:54Z</time>
      </trkpt>
      <trkpt lat="45.67108" lon="6.00544">
        <ele>1366.65</ele>
        <time>2012-06-24T08:59:56Z</time>
      </trkpt>
      <trkpt lat="45.6711" lon="6.00535">
        <ele>1365.69</ele>
        <time>2012-06-24T08:59:57Z</time>
      </trkpt>
      <trkpt lat="45.67112" lon="6.00525">
        <ele>1364.73</ele>
        <time>2012-06-24T08:59:58Z</time>
      </trkpt>
      <trkpt lat="45.67112" lon="6.00514">
        <ele>1363.77</ele>
        <time>2012-06-24T08:59:59Z</time>
      </trkpt>
      <trkpt lat="45.6711" lon="6.00502">
        <ele>1363.29</ele>
        <time>2012-06-24T09:00:00Z</time>
      </trkpt>
      <trkpt lat="45.67108" lon="6.0049">
        <ele>1361.84</ele>
        <time>2012-06-24T09:00:01Z</time>
      </trkpt>
      <trkpt lat="45.67104" lon="6.00477">
        <ele>1360.4</ele>
        <time>2012-06-24T09:00:02Z</time>
      </trkpt>
      <trkpt lat="45.67097" lon="6.00445">
        <ele>1359.92</ele>
        <time>2012-06-24T09:00:05Z</time>
      </trkpt>
      <trkpt lat="45.67096" lon="6.00426">
        <ele>1359.44</ele>
        <time>2012-06-24T09:00:07Z</time>
      </trkpt>
      <trkpt lat="45.67095" lon="6.00389">
        <ele>1359.92</ele>
        <time>2012-06-24T09:00:11Z</time>
      </trkpt>
      <trkpt lat="45.67096" lon="6.00368">
        <ele>1358.48</ele>
        <time>2012-06-24T09:00:13Z</time>
      </trkpt>
      <trkpt lat="45.67098" lon="6.00346">
        <ele>1357.52</ele>
        <time>2012-06-24T09:00:15Z</time>
      </trkpt>
      <trkpt lat="45.67098" lon="6.00336">
        <ele>1358</ele>
        <time>2012-06-24T09:00:16Z</time>
      </trkpt>
      <trkpt lat="45.67096" lon="6.00327">
        <ele>1358</ele>
        <time>2012-06-24T09:00:17Z</time>
      </trkpt>
      <trkpt lat="45.67094" lon="6.00304">
        <ele>1360.4</ele>
        <time>2012-06-24T09:00:20Z</time>
      </trkpt>
      <trkpt lat="45.67094" lon="6.00298">
        <ele>1360.4</ele>
        <time>2012-06-24T09:00:21Z</time>
      </trkpt>
      <trkpt lat="45.67094" lon="6.00293">
        <ele>1360.88</ele>
        <time>2012-06-24T09:00:22Z</time>
      </trkpt>
      <trkpt lat="45.67092" lon="6.0027">
        <ele>1362.33</ele>
        <time>2012-06-24T09:00:27Z</time>
      </trkpt>
      <trkpt lat="45.6709" lon="6.00265">
        <ele>1362.33</ele>
        <time>2012-06-24T09:00:28Z</time>
      </trkpt>
      <trkpt lat="45.67088" lon="6.0026">
        <ele>1361.84</ele>
        <time>2012-06-24T09:00:29Z</time>
      </trkpt>
      <trkpt lat="45.67085" lon="6.00242">
        <ele>1362.33</ele>
        <time>2012-06-24T09:00:32Z</time>
      </trkpt>
      <trkpt lat="45.67085" lon="6.00236">
        <ele>1362.33</ele>
        <time>2012-06-24T09:00:33Z</time>
      </trkpt>
      <trkpt lat="45.67084" lon="6.00231">
        <ele>1362.33</ele>
        <time>2012-06-24T09:00:34Z</time>
      </trkpt>
      <trkpt lat="45.67083" lon="6.00225">
        <ele>1362.81</ele>
        <time>2012-06-24T09:00:35Z</time>
      </trkpt>
      <trkpt lat="45.67083" lon="6.0022">
        <ele>1362.81</ele>
        <time>2012-06-24T09:00:36Z</time>
      </trkpt>
      <trkpt lat="45.67083" lon="6.00215">
        <ele>1362.81</ele>
        <time>2012-06-24T09:00:37Z</time>
      </trkpt>
      <trkpt lat="45.67083" lon="6.0021">
        <ele>1363.29</ele>
        <time>2012-06-24T09:00:38Z</time>
      </trkpt>
      <trkpt lat="45.67083" lon="6.00206">
        <ele>1363.29</ele>
        <time>2012-06-24T09:00:39Z</time>
      </trkpt>
      <trkpt lat="45.67081" lon="6.00167">
        <ele>1361.84</ele>
        <time>2012-06-24T09:00:45Z</time>
      </trkpt>
      <trkpt lat="45.6708" lon="6.00159">
        <ele>1361.84</ele>
        <time>2012-06-24T09:00:46Z</time>
      </trkpt>
      <trkpt lat="45.67079" lon="6.00152">
        <ele>1362.33</ele>
        <time>2012-06-24T09:00:47Z</time>
      </trkpt>
      <trkpt lat="45.67076" lon="6.00099">
        <ele>1362.33</ele>
        <time>2012-06-24T09:00:57Z</time>
      </trkpt>
      <trkpt lat="45.6707" lon="6.00051">
        <ele>1363.29</ele>
        <time>2012-06-24T09:01:05Z</time>
      </trkpt>
      <trkpt lat="45.6707" lon="6.00044">
        <ele>1363.29</ele>
        <time>2012-06-24T09:01:06Z</time>
      </trkpt>
      <trkpt lat="45.67069" lon="6.00036">
        <ele>1362.81</ele>
        <time>2012-06-24T09:01:07Z</time>
      </trkpt>
      <trkpt lat="45.67062" lon="5.99971">
        <ele>1362.81</ele>
        <time>2012-06-24T09:01:16Z</time>
      </trkpt>
      <trkpt lat="45.67061" lon="5.99966">
        <ele>1362.81</ele>
        <time>2012-06-24T09:01:17Z</time>
      </trkpt>
      <trkpt lat="45.67045" lon="5.99895">
        <ele>1364.73</ele>
        <time>2012-06-24T09:01:31Z</time>
      </trkpt>
      <trkpt lat="45.6704" lon="5.9988">
        <ele>1368.09</ele>
        <time>2012-06-24T09:01:38Z</time>
      </trkpt>
      <trkpt lat="45.6703" lon="5.99833">
        <ele>1368.09</ele>
        <time>2012-06-24T09:01:49Z</time>
      </trkpt>
      <trkpt lat="45.67025" lon="5.99808">
        <ele>1368.09</ele>
        <time>2012-06-24T09:01:54Z</time>
      </trkpt>
      <trkpt lat="45.67011" lon="5.99752">
        <ele>1366.65</ele>
        <time>2012-06-24T09:02:02Z</time>
      </trkpt>
      <trkpt lat="45.67008" lon="5.99738">
        <ele>1367.13</ele>
        <time>2012-06-24T09:02:04Z</time>
      </trkpt>
      <trkpt lat="45.67008" lon="5.99732">
        <ele>1367.61</ele>
        <time>2012-06-24T09:02:05Z</time>
      </trkpt>
      <trkpt lat="45.67007" lon="5.99728">
        <ele>1368.09</ele>
        <time>2012-06-24T09:02:06Z</time>
      </trkpt>
      <trkpt lat="45.67001" lon="5.99697">
        <ele>1367.61</ele>
        <time>2012-06-24T09:02:12Z</time>
      </trkpt>
      <trkpt lat="45.66999" lon="5.99691">
        <ele>1367.61</ele>
        <time>2012-06-24T09:02:13Z</time>
      </trkpt>
      <trkpt lat="45.66988" lon="5.99638">
        <ele>1369.54</ele>
        <time>2012-06-24T09:02:24Z</time>
      </trkpt>
      <trkpt lat="45.66986" lon="5.99618">
        <ele>1368.57</ele>
        <time>2012-06-24T09:02:27Z</time>
      </trkpt>
      <trkpt lat="45.66982" lon="5.99601">
        <ele>1367.61</ele>
        <time>2012-06-24T09:02:29Z</time>
      </trkpt>
      <trkpt lat="45.66953" lon="5.99514">
        <ele>1365.21</ele>
        <time>2012-06-24T09:02:40Z</time>
      </trkpt>
      <trkpt lat="45.6695" lon="5.99506">
        <ele>1364.73</ele>
        <time>2012-06-24T09:02:41Z</time>
      </trkpt>
      <trkpt lat="45.66945" lon="5.99499">
        <ele>1364.73</ele>
        <time>2012-06-24T09:02:42Z</time>
      </trkpt>
      <trkpt lat="45.66913" lon="5.99417">
        <ele>1362.81</ele>
        <time>2012-06-24T09:02:54Z</time>
      </trkpt>
      <trkpt lat="45.66902" lon="5.99371">
        <ele>1366.17</ele>
        <time>2012-06-24T09:03:04Z</time>
      </trkpt>
      <trkpt lat="45.66901" lon="5.99367">
        <ele>1366.17</ele>
        <time>2012-06-24T09:03:05Z</time>
      </trkpt>
      <trkpt lat="45.66893" lon="5.9933">
        <ele>1369.54</ele>
        <time>2012-06-24T09:03:16Z</time>
      </trkpt>
      <trkpt lat="45.6687" lon="5.99293">
        <ele>1371.94</ele>
        <time>2012-06-24T09:03:30Z</time>
      </trkpt>
      <trkpt lat="45.66852" lon="5.99254">
        <ele>1372.9</ele>
        <time>2012-06-24T09:03:42Z</time>
      </trkpt>
      <trkpt lat="45.66843" lon="5.99199">
        <ele>1374.82</ele>
        <time>2012-06-24T09:03:56Z</time>
      </trkpt>
      <trkpt lat="45.6685" lon="5.99168">
        <ele>1376.75</ele>
        <time>2012-06-24T09:04:07Z</time>
      </trkpt>
      <trkpt lat="45.66853" lon="5.9914">
        <ele>1380.11</ele>
        <time>2012-06-24T09:04:17Z</time>
      </trkpt>
      <trkpt lat="45.66859" lon="5.99104">
        <ele>1381.55</ele>
        <time>2012-06-24T09:04:30Z</time>
      </trkpt>
      <trkpt lat="45.66861" lon="5.99105">
        <ele>1382.03</ele>
        <time>2012-06-24T09:04:31Z</time>
      </trkpt>
      <trkpt lat="45.66863" lon="5.99106">
        <ele>1382.03</ele>
        <time>2012-06-24T09:04:32Z</time>
      </trkpt>
      <trkpt lat="45.66865" lon="5.99108">
        <ele>1382.51</ele>
        <time>2012-06-24T09:04:33Z</time>
      </trkpt>
      <trkpt lat="45.66867" lon="5.9911">
        <ele>1382.03</ele>
        <time>2012-06-24T09:04:34Z</time>
      </trkpt>
      <trkpt lat="45.66869" lon="5.99112">
        <ele>1382.03</ele>
        <time>2012-06-24T09:04:35Z</time>
      </trkpt>
      <trkpt lat="45.66871" lon="5.99114">
        <ele>1382.03</ele>
        <time>2012-06-24T09:04:36Z</time>
      </trkpt>
      <trkpt lat="45.66905" lon="5.99143">
        <ele>1380.11</ele>
        <time>2012-06-24T09:04:46Z</time>
      </trkpt>
      <trkpt lat="45.66952" lon="5.99174">
        <ele>1377.71</ele>
        <time>2012-06-24T09:04:54Z</time>
      </trkpt>
      <trkpt lat="45.66959" lon="5.99178">
        <ele>1377.23</ele>
        <time>2012-06-24T09:04:55Z</time>
      </trkpt>
      <trkpt lat="45.66966" lon="5.99182">
        <ele>1376.75</ele>
        <time>2012-06-24T09:04:56Z</time>
      </trkpt>
      <trkpt lat="45.66984" lon="5.99194">
        <ele>1376.75</ele>
        <time>2012-06-24T09:04:59Z</time>
      </trkpt>
      <trkpt lat="45.67014" lon="5.99216">
        <ele>1377.23</ele>
        <time>2012-06-24T09:05:05Z</time>
      </trkpt>
      <trkpt lat="45.67018" lon="5.99219">
        <ele>1377.71</ele>
        <time>2012-06-24T09:05:06Z</time>
      </trkpt>
      <trkpt lat="45.67022" lon="5.99224">
        <ele>1377.71</ele>
        <time>2012-06-24T09:05:07Z</time>
      </trkpt>
      <trkpt lat="45.67025" lon="5.99229">
        <ele>1378.19</ele>
        <time>2012-06-24T09:05:08Z</time>
      </trkpt>
      <trkpt lat="45.67028" lon="5.99234">
        <ele>1377.71</ele>
        <time>2012-06-24T09:05:09Z</time>
      </trkpt>
      <trkpt lat="45.6703" lon="5.9924">
        <ele>1377.71</ele>
        <time>2012-06-24T09:05:10Z</time>
      </trkpt>
      <trkpt lat="45.67048" lon="5.9928">
        <ele>1378.67</ele>
        <time>2012-06-24T09:05:17Z</time>
      </trkpt>
      <trkpt lat="45.67079" lon="5.99326">
        <ele>1380.11</ele>
        <time>2012-06-24T09:05:27Z</time>
      </trkpt>
      <trkpt lat="45.67091" lon="5.99343">
        <ele>1379.63</ele>
        <time>2012-06-24T09:05:30Z</time>
      </trkpt>
      <trkpt lat="45.67124" lon="5.99388">
        <ele>1379.63</ele>
        <time>2012-06-24T09:05:38Z</time>
      </trkpt>
      <trkpt lat="45.67149" lon="5.99408">
        <ele>1381.07</ele>
        <time>2012-06-24T09:05:45Z</time>
      </trkpt>
      <trkpt lat="45.67152" lon="5.99413">
        <ele>1381.07</ele>
        <time>2012-06-24T09:05:46Z</time>
      </trkpt>
      <trkpt lat="45.67154" lon="5.99418">
        <ele>1381.55</ele>
        <time>2012-06-24T09:05:47Z</time>
      </trkpt>
      <trkpt lat="45.67156" lon="5.99424">
        <ele>1380.59</ele>
        <time>2012-06-24T09:05:48Z</time>
      </trkpt>
      <trkpt lat="45.67157" lon="5.99431">
        <ele>1380.59</ele>
        <time>2012-06-24T09:05:49Z</time>
      </trkpt>
      <trkpt lat="45.67165" lon="5.99469">
        <ele>1380.11</ele>
        <time>2012-06-24T09:05:54Z</time>
      </trkpt>
      <trkpt lat="45.67167" lon="5.99477">
        <ele>1380.59</ele>
        <time>2012-06-24T09:05:55Z</time>
      </trkpt>
      <trkpt lat="45.67168" lon="5.99492">
        <ele>1380.59</ele>
        <time>2012-06-24T09:05:57Z</time>
      </trkpt>
      <trkpt lat="45.6717" lon="5.99498">
        <ele>1380.59</ele>
        <time>2012-06-24T09:05:58Z</time>
      </trkpt>
      <trkpt lat="45.67172" lon="5.99503">
        <ele>1380.59</ele>
        <time>2012-06-24T09:05:59Z</time>
      </trkpt>
      <trkpt lat="45.67175" lon="5.99508">
        <ele>1381.07</ele>
        <time>2012-06-24T09:06:00Z</time>
      </trkpt>
      <trkpt lat="45.67178" lon="5.99512">
        <ele>1381.07</ele>
        <time>2012-06-24T09:06:01Z</time>
      </trkpt>
      <trkpt lat="45.67182" lon="5.99515">
        <ele>1381.07</ele>
        <time>2012-06-24T09:06:02Z</time>
      </trkpt>
      <trkpt lat="45.67186" lon="5.99517">
        <ele>1381.55</ele>
        <time>2012-06-24T09:06:03Z</time>
      </trkpt>
      <trkpt lat="45.67191" lon="5.9952">
        <ele>1381.55</ele>
        <time>2012-06-24T09:06:04Z</time>
      </trkpt>
      <trkpt lat="45.67195" lon="5.99523">
        <ele>1381.07</ele>
        <time>2012-06-24T09:06:05Z</time>
      </trkpt>
      <trkpt lat="45.67199" lon="5.99527">
        <ele>1381.07</ele>
        <time>2012-06-24T09:06:06Z</time>
      </trkpt>
      <trkpt lat="45.67203" lon="5.99532">
        <ele>1380.11</ele>
        <time>2012-06-24T09:06:07Z</time>
      </trkpt>
      <trkpt lat="45.67206" lon="5.99539">
        <ele>1380.59</ele>
        <time>2012-06-24T09:06:08Z</time>
      </trkpt>
      <trkpt lat="45.67208" lon="5.99546">
        <ele>1379.63</ele>
        <time>2012-06-24T09:06:09Z</time>
      </trkpt>
      <trkpt lat="45.67209" lon="5.99555">
        <ele>1379.15</ele>
        <time>2012-06-24T09:06:10Z</time>
      </trkpt>
      <trkpt lat="45.6721" lon="5.99565">
        <ele>1378.67</ele>
        <time>2012-06-24T09:06:11Z</time>
      </trkpt>
      <trkpt lat="45.67212" lon="5.99575">
        <ele>1377.71</ele>
        <time>2012-06-24T09:06:12Z</time>
      </trkpt>
      <trkpt lat="45.67216" lon="5.99584">
        <ele>1377.71</ele>
        <time>2012-06-24T09:06:13Z</time>
      </trkpt>
      <trkpt lat="45.6722" lon="5.99592">
        <ele>1376.75</ele>
        <time>2012-06-24T09:06:14Z</time>
      </trkpt>
      <trkpt lat="45.67226" lon="5.99598">
        <ele>1376.75</ele>
        <time>2012-06-24T09:06:15Z</time>
      </trkpt>
      <trkpt lat="45.67232" lon="5.99602">
        <ele>1376.75</ele>
        <time>2012-06-24T09:06:16Z</time>
      </trkpt>
      <trkpt lat="45.67238" lon="5.99604">
        <ele>1376.26</ele>
        <time>2012-06-24T09:06:17Z</time>
      </trkpt>
      <trkpt lat="45.67244" lon="5.99604">
        <ele>1376.26</ele>
        <time>2012-06-24T09:06:18Z</time>
      </trkpt>
      <trkpt lat="45.67249" lon="5.99601">
        <ele>1375.78</ele>
        <time>2012-06-24T09:06:19Z</time>
      </trkpt>
      <trkpt lat="45.67254" lon="5.99599">
        <ele>1376.26</ele>
        <time>2012-06-24T09:06:20Z</time>
      </trkpt>
      <trkpt lat="45.67259" lon="5.99598">
        <ele>1375.3</ele>
        <time>2012-06-24T09:06:21Z</time>
      </trkpt>
      <trkpt lat="45.67265" lon="5.996">
        <ele>1374.82</ele>
        <time>2012-06-24T09:06:22Z</time>
      </trkpt>
      <trkpt lat="45.67277" lon="5.99607">
        <ele>1374.82</ele>
        <time>2012-06-24T09:06:24Z</time>
      </trkpt>
      <trkpt lat="45.67309" lon="5.99618">
        <ele>1374.34</ele>
        <time>2012-06-24T09:06:29Z</time>
      </trkpt>
      <trkpt lat="45.67315" lon="5.99615">
        <ele>1373.86</ele>
        <time>2012-06-24T09:06:30Z</time>
      </trkpt>
      <trkpt lat="45.6732" lon="5.99611">
        <ele>1373.86</ele>
        <time>2012-06-24T09:06:31Z</time>
      </trkpt>
      <trkpt lat="45.67339" lon="5.99593">
        <ele>1373.86</ele>
        <time>2012-06-24T09:06:35Z</time>
      </trkpt>
      <trkpt lat="45.67349" lon="5.99589">
        <ele>1374.34</ele>
        <time>2012-06-24T09:06:37Z</time>
      </trkpt>
      <trkpt lat="45.67353" lon="5.99589">
        <ele>1374.82</ele>
        <time>2012-06-24T09:06:38Z</time>
      </trkpt>
      <trkpt lat="45.67363" lon="5.99587">
        <ele>1373.86</ele>
        <time>2012-06-24T09:06:40Z</time>
      </trkpt>
      <trkpt lat="45.67368" lon="5.99586">
        <ele>1372.9</ele>
        <time>2012-06-24T09:06:41Z</time>
      </trkpt>
      <trkpt lat="45.67373" lon="5.99586">
        <ele>1372.42</ele>
        <time>2012-06-24T09:06:42Z</time>
      </trkpt>
      <trkpt lat="45.67379" lon="5.99587">
        <ele>1372.42</ele>
        <time>2012-06-24T09:06:43Z</time>
      </trkpt>
      <trkpt lat="45.67385" lon="5.99589">
        <ele>1371.46</ele>
        <time>2012-06-24T09:06:44Z</time>
      </trkpt>
      <trkpt lat="45.67391" lon="5.99592">
        <ele>1370.5</ele>
        <time>2012-06-24T09:06:45Z</time>
      </trkpt>
      <trkpt lat="45.67438" lon="5.99632">
        <ele>1370.5</ele>
        <time>2012-06-24T09:06:52Z</time>
      </trkpt>
      <trkpt lat="45.67443" lon="5.99635">
        <ele>1370.5</ele>
        <time>2012-06-24T09:06:53Z</time>
      </trkpt>
      <trkpt lat="45.67447" lon="5.99637">
        <ele>1370.98</ele>
        <time>2012-06-24T09:06:54Z</time>
      </trkpt>
      <trkpt lat="45.67452" lon="5.9964">
        <ele>1370.98</ele>
        <time>2012-06-24T09:06:55Z</time>
      </trkpt>
      <trkpt lat="45.67456" lon="5.99644">
        <ele>1371.46</ele>
        <time>2012-06-24T09:06:56Z</time>
      </trkpt>
      <trkpt lat="45.67475" lon="5.9966">
        <ele>1371.94</ele>
        <time>2012-06-24T09:07:00Z</time>
      </trkpt>
      <trkpt lat="45.67481" lon="5.99663">
        <ele>1371.94</ele>
        <time>2012-06-24T09:07:01Z</time>
      </trkpt>
      <trkpt lat="45.67491" lon="5.99665">
        <ele>1371.94</ele>
        <time>2012-06-24T09:07:03Z</time>
      </trkpt>
      <trkpt lat="45.67497" lon="5.99665">
        <ele>1372.9</ele>
        <time>2012-06-24T09:07:04Z</time>
      </trkpt>
      <trkpt lat="45.67502" lon="5.99664">
        <ele>1371.46</ele>
        <time>2012-06-24T09:07:05Z</time>
      </trkpt>
      <trkpt lat="45.67513" lon="5.99662">
        <ele>1372.42</ele>
        <time>2012-06-24T09:07:07Z</time>
      </trkpt>
      <trkpt lat="45.67518" lon="5.99661">
        <ele>1372.9</ele>
        <time>2012-06-24T09:07:08Z</time>
      </trkpt>
      <trkpt lat="45.67522" lon="5.99662">
        <ele>1373.38</ele>
        <time>2012-06-24T09:07:09Z</time>
      </trkpt>
      <trkpt lat="45.67526" lon="5.99662">
        <ele>1373.38</ele>
        <time>2012-06-24T09:07:10Z</time>
      </trkpt>
      <trkpt lat="45.6753" lon="5.99663">
        <ele>1373.38</ele>
        <time>2012-06-24T09:07:11Z</time>
      </trkpt>
      <trkpt lat="45.67534" lon="5.99665">
        <ele>1373.86</ele>
        <time>2012-06-24T09:07:12Z</time>
      </trkpt>
      <trkpt lat="45.67537" lon="5.99668">
        <ele>1373.86</ele>
        <time>2012-06-24T09:07:13Z</time>
      </trkpt>
      <trkpt lat="45.67555" lon="5.99677">
        <ele>1373.38</ele>
        <time>2012-06-24T09:07:17Z</time>
      </trkpt>
      <trkpt lat="45.67559" lon="5.99678">
        <ele>1374.34</ele>
        <time>2012-06-24T09:07:18Z</time>
      </trkpt>
      <trkpt lat="45.67601" lon="5.99691">
        <ele>1377.23</ele>
        <time>2012-06-24T09:07:31Z</time>
      </trkpt>
      <trkpt lat="45.67624" lon="5.99731">
        <ele>1378.67</ele>
        <time>2012-06-24T09:07:43Z</time>
      </trkpt>
      <trkpt lat="45.67639" lon="5.99777">
        <ele>1381.07</ele>
        <time>2012-06-24T09:07:57Z</time>
      </trkpt>
      <trkpt lat="45.67662" lon="5.99796">
        <ele>1382.03</ele>
        <time>2012-06-24T09:08:08Z</time>
      </trkpt>
      <trkpt lat="45.6767" lon="5.99803">
        <ele>1383.47</ele>
        <time>2012-06-24T09:08:11Z</time>
      </trkpt>
      <trkpt lat="45.67718" lon="5.99815">
        <ele>1383.96</ele>
        <time>2012-06-24T09:08:26Z</time>
      </trkpt>
      <trkpt lat="45.67757" lon="5.99821">
        <ele>1386.36</ele>
        <time>2012-06-24T09:08:38Z</time>
      </trkpt>
      <trkpt lat="45.67802" lon="5.99841">
        <ele>1387.8</ele>
        <time>2012-06-24T09:08:53Z</time>
      </trkpt>
      <trkpt lat="45.67835" lon="5.99883">
        <ele>1385.4</ele>
        <time>2012-06-24T09:09:07Z</time>
      </trkpt>
      <trkpt lat="45.67833" lon="5.99892">
        <ele>1384.92</ele>
        <time>2012-06-24T09:09:18Z</time>
      </trkpt>
      <trkpt lat="45.67833" lon="5.99892">
        <ele>1384.92</ele>
        <time>2012-06-24T09:09:45Z</time>
      </trkpt>
      <trkpt lat="45.67832" lon="5.99893">
        <ele>1384.92</ele>
        <time>2012-06-24T09:10:09Z</time>
      </trkpt>
      <trkpt lat="45.67832" lon="5.99893">
        <ele>1385.4</ele>
        <time>2012-06-24T09:10:39Z</time>
      </trkpt>
      <trkpt lat="45.67832" lon="5.99893">
        <ele>1385.4</ele>
        <time>2012-06-24T09:11:05Z</time>
      </trkpt>
      <trkpt lat="45.67833" lon="5.99893">
        <ele>1384.92</ele>
        <time>2012-06-24T09:11:32Z</time>
      </trkpt>
      <trkpt lat="45.67832" lon="5.99893">
        <ele>1385.4</ele>
        <time>2012-06-24T09:12:06Z</time>
      </trkpt>
      <trkpt lat="45.67833" lon="5.99895">
        <ele>1385.88</ele>
        <time>2012-06-24T09:12:16Z</time>
      </trkpt>
      <trkpt lat="45.67833" lon="5.99898">
        <ele>1385.88</ele>
        <time>2012-06-24T09:12:17Z</time>
      </trkpt>
      <trkpt lat="45.67836" lon="5.99944">
        <ele>1383.47</ele>
        <time>2012-06-24T09:12:25Z</time>
      </trkpt>
      <trkpt lat="45.67834" lon="5.99951">
        <ele>1383.47</ele>
        <time>2012-06-24T09:12:26Z</time>
      </trkpt>
      <trkpt lat="45.67831" lon="5.99956">
        <ele>1383.47</ele>
        <time>2012-06-24T09:12:27Z</time>
      </trkpt>
      <trkpt lat="45.67828" lon="5.99959">
        <ele>1383.47</ele>
        <time>2012-06-24T09:12:28Z</time>
      </trkpt>
      <trkpt lat="45.67825" lon="5.99961">
        <ele>1383.47</ele>
        <time>2012-06-24T09:12:29Z</time>
      </trkpt>
      <trkpt lat="45.67822" lon="5.99962">
        <ele>1383.47</ele>
        <time>2012-06-24T09:12:30Z</time>
      </trkpt>
      <trkpt lat="45.67814" lon="5.99964">
        <ele>1384.92</ele>
        <time>2012-06-24T09:12:33Z</time>
      </trkpt>
      <trkpt lat="45.67813" lon="5.99964">
        <ele>1384.92</ele>
        <time>2012-06-24T09:12:34Z</time>
      </trkpt>
      <trkpt lat="45.6781" lon="5.99964">
        <ele>1385.4</ele>
        <time>2012-06-24T09:12:35Z</time>
      </trkpt>
      <trkpt lat="45.6778" lon="5.99969">
        <ele>1387.32</ele>
        <time>2012-06-24T09:12:50Z</time>
      </trkpt>
      <trkpt lat="45.67767" lon="5.99966">
        <ele>1386.36</ele>
        <time>2012-06-24T09:12:53Z</time>
      </trkpt>
      <trkpt lat="45.67763" lon="5.99964">
        <ele>1385.4</ele>
        <time>2012-06-24T09:12:54Z</time>
      </trkpt>
      <trkpt lat="45.67759" lon="5.99963">
        <ele>1386.36</ele>
        <time>2012-06-24T09:12:55Z</time>
      </trkpt>
      <trkpt lat="45.67754" lon="5.99961">
        <ele>1386.36</ele>
        <time>2012-06-24T09:12:56Z</time>
      </trkpt>
      <trkpt lat="45.6775" lon="5.99958">
        <ele>1386.36</ele>
        <time>2012-06-24T09:12:57Z</time>
      </trkpt>
      <trkpt lat="45.67745" lon="5.99957">
        <ele>1385.88</ele>
        <time>2012-06-24T09:12:58Z</time>
      </trkpt>
      <trkpt lat="45.67741" lon="5.99956">
        <ele>1386.36</ele>
        <time>2012-06-24T09:12:59Z</time>
      </trkpt>
      <trkpt lat="45.67736" lon="5.99955">
        <ele>1386.36</ele>
        <time>2012-06-24T09:13:00Z</time>
      </trkpt>
      <trkpt lat="45.67733" lon="5.99954">
        <ele>1386.36</ele>
        <time>2012-06-24T09:13:01Z</time>
      </trkpt>
      <trkpt lat="45.67728" lon="5.99954">
        <ele>1386.36</ele>
        <time>2012-06-24T09:13:02Z</time>
      </trkpt>
      <trkpt lat="45.6772" lon="5.99956">
        <ele>1386.36</ele>
        <time>2012-06-24T09:13:04Z</time>
      </trkpt>
      <trkpt lat="45.67716" lon="5.99958">
        <ele>1386.84</ele>
        <time>2012-06-24T09:13:05Z</time>
      </trkpt>
      <trkpt lat="45.67713" lon="5.9996">
        <ele>1386.84</ele>
        <time>2012-06-24T09:13:06Z</time>
      </trkpt>
      <trkpt lat="45.67709" lon="5.99961">
        <ele>1386.84</ele>
        <time>2012-06-24T09:13:07Z</time>
      </trkpt>
      <trkpt lat="45.67705" lon="5.99961">
        <ele>1387.32</ele>
        <time>2012-06-24T09:13:08Z</time>
      </trkpt>
      <trkpt lat="45.67684" lon="5.99964">
        <ele>1385.88</ele>
        <time>2012-06-24T09:13:12Z</time>
      </trkpt>
      <trkpt lat="45.67665" lon="5.99969">
        <ele>1384.44</ele>
        <time>2012-06-24T09:13:15Z</time>
      </trkpt>
      <trkpt lat="45.67658" lon="5.9997">
        <ele>1383.47</ele>
        <time>2012-06-24T09:13:16Z</time>
      </trkpt>
      <trkpt lat="45.67652" lon="5.99969">
        <ele>1382.99</ele>
        <time>2012-06-24T09:13:17Z</time>
      </trkpt>
      <trkpt lat="45.67635" lon="5.99965">
        <ele>1381.55</ele>
        <time>2012-06-24T09:13:20Z</time>
      </trkpt>
      <trkpt lat="45.67632" lon="5.99966">
        <ele>1382.03</ele>
        <time>2012-06-24T09:13:21Z</time>
      </trkpt>
      <trkpt lat="45.67629" lon="5.99969">
        <ele>1382.03</ele>
        <time>2012-06-24T09:13:22Z</time>
      </trkpt>
      <trkpt lat="45.67628" lon="5.99972">
        <ele>1382.03</ele>
        <time>2012-06-24T09:13:23Z</time>
      </trkpt>
      <trkpt lat="45.67629" lon="5.99977">
        <ele>1382.03</ele>
        <time>2012-06-24T09:13:24Z</time>
      </trkpt>
      <trkpt lat="45.6763" lon="5.99982">
        <ele>1381.55</ele>
        <time>2012-06-24T09:13:25Z</time>
      </trkpt>
      <trkpt lat="45.67631" lon="5.99987">
        <ele>1382.51</ele>
        <time>2012-06-24T09:13:26Z</time>
      </trkpt>
      <trkpt lat="45.67631" lon="5.99993">
        <ele>1382.99</ele>
        <time>2012-06-24T09:13:27Z</time>
      </trkpt>
      <trkpt lat="45.6763" lon="5.99999">
        <ele>1382.99</ele>
        <time>2012-06-24T09:13:28Z</time>
      </trkpt>
      <trkpt lat="45.67629" lon="6.00004">
        <ele>1383.47</ele>
        <time>2012-06-24T09:13:29Z</time>
      </trkpt>
      <trkpt lat="45.67627" lon="6.0001">
        <ele>1382.99</ele>
        <time>2012-06-24T09:13:30Z</time>
      </trkpt>
      <trkpt lat="45.67625" lon="6.00017">
        <ele>1382.51</ele>
        <time>2012-06-24T09:13:31Z</time>
      </trkpt>
      <trkpt lat="45.67623" lon="6.00024">
        <ele>1382.51</ele>
        <time>2012-06-24T09:13:32Z</time>
      </trkpt>
      <trkpt lat="45.67621" lon="6.00031">
        <ele>1382.99</ele>
        <time>2012-06-24T09:13:33Z</time>
      </trkpt>
      <trkpt lat="45.67618" lon="6.00038">
        <ele>1382.99</ele>
        <time>2012-06-24T09:13:34Z</time>
      </trkpt>
      <trkpt lat="45.67609" lon="6.00104">
        <ele>1381.55</ele>
        <time>2012-06-24T09:13:43Z</time>
      </trkpt>
      <trkpt lat="45.67608" lon="6.00124">
        <ele>1381.07</ele>
        <time>2012-06-24T09:13:45Z</time>
      </trkpt>
      <trkpt lat="45.67606" lon="6.00134">
        <ele>1380.11</ele>
        <time>2012-06-24T09:13:46Z</time>
      </trkpt>
      <trkpt lat="45.67588" lon="6.00191">
        <ele>1379.15</ele>
        <time>2012-06-24T09:13:52Z</time>
      </trkpt>
      <trkpt lat="45.67586" lon="6.00199">
        <ele>1379.15</ele>
        <time>2012-06-24T09:13:53Z</time>
      </trkpt>
      <trkpt lat="45.67582" lon="6.00237">
        <ele>1378.19</ele>
        <time>2012-06-24T09:13:57Z</time>
      </trkpt>
      <trkpt lat="45.67577" lon="6.00322">
        <ele>1377.23</ele>
        <time>2012-06-24T09:14:05Z</time>
      </trkpt>
      <trkpt lat="45.67579" lon="6.0033">
        <ele>1376.75</ele>
        <time>2012-06-24T09:14:06Z</time>
      </trkpt>
      <trkpt lat="45.67581" lon="6.00337">
        <ele>1377.23</ele>
        <time>2012-06-24T09:14:07Z</time>
      </trkpt>
      <trkpt lat="45.67584" lon="6.00341">
        <ele>1376.75</ele>
        <time>2012-06-24T09:14:08Z</time>
      </trkpt>
      <trkpt lat="45.67588" lon="6.00345">
        <ele>1376.75</ele>
        <time>2012-06-24T09:14:09Z</time>
      </trkpt>
      <trkpt lat="45.67593" lon="6.00348">
        <ele>1376.26</ele>
        <time>2012-06-24T09:14:10Z</time>
      </trkpt>
      <trkpt lat="45.67598" lon="6.00352">
        <ele>1376.26</ele>
        <time>2012-06-24T09:14:11Z</time>
      </trkpt>
      <trkpt lat="45.6762" lon="6.00368">
        <ele>1374.82</ele>
        <time>2012-06-24T09:14:15Z</time>
      </trkpt>
      <trkpt lat="45.67626" lon="6.00371">
        <ele>1374.82</ele>
        <time>2012-06-24T09:14:16Z</time>
      </trkpt>
      <trkpt lat="45.67633" lon="6.00373">
        <ele>1373.86</ele>
        <time>2012-06-24T09:14:17Z</time>
      </trkpt>
      <trkpt lat="45.6764" lon="6.00378">
        <ele>1373.38</ele>
        <time>2012-06-24T09:14:18Z</time>
      </trkpt>
      <trkpt lat="45.67646" lon="6.00384">
        <ele>1372.9</ele>
        <time>2012-06-24T09:14:19Z</time>
      </trkpt>
      <trkpt lat="45.6765" lon="6.0039">
        <ele>1371.46</ele>
        <time>2012-06-24T09:14:20Z</time>
      </trkpt>
      <trkpt lat="45.67652" lon="6.00398">
        <ele>1370.98</ele>
        <time>2012-06-24T09:14:21Z</time>
      </trkpt>
      <trkpt lat="45.67654" lon="6.00405">
        <ele>1371.46</ele>
        <time>2012-06-24T09:14:22Z</time>
      </trkpt>
      <trkpt lat="45.67654" lon="6.00412">
        <ele>1371.94</ele>
        <time>2012-06-24T09:14:23Z</time>
      </trkpt>
      <trkpt lat="45.67654" lon="6.0042">
        <ele>1371.94</ele>
        <time>2012-06-24T09:14:24Z</time>
      </trkpt>
      <trkpt lat="45.67653" lon="6.00427">
        <ele>1371.94</ele>
        <time>2012-06-24T09:14:25Z</time>
      </trkpt>
      <trkpt lat="45.67654" lon="6.00436">
        <ele>1370.98</ele>
        <time>2012-06-24T09:14:26Z</time>
      </trkpt>
      <trkpt lat="45.67654" lon="6.00444">
        <ele>1370.5</ele>
        <time>2012-06-24T09:14:27Z</time>
      </trkpt>
      <trkpt lat="45.67656" lon="6.00452">
        <ele>1370.98</ele>
        <time>2012-06-24T09:14:28Z</time>
      </trkpt>
      <trkpt lat="45.67668" lon="6.00492">
        <ele>1369.54</ele>
        <time>2012-06-24T09:14:33Z</time>
      </trkpt>
      <trkpt lat="45.6767" lon="6.00501">
        <ele>1368.57</ele>
        <time>2012-06-24T09:14:34Z</time>
      </trkpt>
      <trkpt lat="45.67673" lon="6.0051">
        <ele>1369.05</ele>
        <time>2012-06-24T09:14:35Z</time>
      </trkpt>
      <trkpt lat="45.67677" lon="6.00518">
        <ele>1368.57</ele>
        <time>2012-06-24T09:14:36Z</time>
      </trkpt>
      <trkpt lat="45.67682" lon="6.00524">
        <ele>1368.09</ele>
        <time>2012-06-24T09:14:37Z</time>
      </trkpt>
      <trkpt lat="45.67698" lon="6.00536">
        <ele>1366.65</ele>
        <time>2012-06-24T09:14:40Z</time>
      </trkpt>
      <trkpt lat="45.67701" lon="6.00543">
        <ele>1365.69</ele>
        <time>2012-06-24T09:14:41Z</time>
      </trkpt>
      <trkpt lat="45.67702" lon="6.00549">
        <ele>1365.69</ele>
        <time>2012-06-24T09:14:42Z</time>
      </trkpt>
      <trkpt lat="45.677" lon="6.00562">
        <ele>1365.21</ele>
        <time>2012-06-24T09:14:44Z</time>
      </trkpt>
      <trkpt lat="45.67699" lon="6.00569">
        <ele>1364.73</ele>
        <time>2012-06-24T09:14:45Z</time>
      </trkpt>
      <trkpt lat="45.67698" lon="6.00576">
        <ele>1364.25</ele>
        <time>2012-06-24T09:14:46Z</time>
      </trkpt>
      <trkpt lat="45.677" lon="6.00581">
        <ele>1364.25</ele>
        <time>2012-06-24T09:14:47Z</time>
      </trkpt>
      <trkpt lat="45.67703" lon="6.00585">
        <ele>1364.25</ele>
        <time>2012-06-24T09:14:48Z</time>
      </trkpt>
      <trkpt lat="45.67707" lon="6.00588">
        <ele>1364.73</ele>
        <time>2012-06-24T09:14:49Z</time>
      </trkpt>
      <trkpt lat="45.67721" lon="6.006">
        <ele>1363.77</ele>
        <time>2012-06-24T09:14:52Z</time>
      </trkpt>
      <trkpt lat="45.67749" lon="6.00634">
        <ele>1361.84</ele>
        <time>2012-06-24T09:14:58Z</time>
      </trkpt>
      <trkpt lat="45.67752" lon="6.00641">
        <ele>1362.33</ele>
        <time>2012-06-24T09:14:59Z</time>
      </trkpt>
      <trkpt lat="45.67759" lon="6.00652">
        <ele>1362.81</ele>
        <time>2012-06-24T09:15:01Z</time>
      </trkpt>
      <trkpt lat="45.67769" lon="6.00664">
        <ele>1362.81</ele>
        <time>2012-06-24T09:15:04Z</time>
      </trkpt>
      <trkpt lat="45.67776" lon="6.00671">
        <ele>1362.81</ele>
        <time>2012-06-24T09:15:06Z</time>
      </trkpt>
      <trkpt lat="45.67778" lon="6.00676">
        <ele>1362.81</ele>
        <time>2012-06-24T09:15:07Z</time>
      </trkpt>
      <trkpt lat="45.67781" lon="6.00683">
        <ele>1362.33</ele>
        <time>2012-06-24T09:15:08Z</time>
      </trkpt>
      <trkpt lat="45.67782" lon="6.00691">
        <ele>1362.33</ele>
        <time>2012-06-24T09:15:09Z</time>
      </trkpt>
      <trkpt lat="45.67783" lon="6.00699">
        <ele>1361.36</ele>
        <time>2012-06-24T09:15:10Z</time>
      </trkpt>
      <trkpt lat="45.67782" lon="6.00707">
        <ele>1361.36</ele>
        <time>2012-06-24T09:15:11Z</time>
      </trkpt>
      <trkpt lat="45.67781" lon="6.00715">
        <ele>1360.88</ele>
        <time>2012-06-24T09:15:12Z</time>
      </trkpt>
      <trkpt lat="45.6778" lon="6.00722">
        <ele>1361.36</ele>
        <time>2012-06-24T09:15:13Z</time>
      </trkpt>
      <trkpt lat="45.67779" lon="6.00729">
        <ele>1360.88</ele>
        <time>2012-06-24T09:15:14Z</time>
      </trkpt>
      <trkpt lat="45.67775" lon="6.00749">
        <ele>1360.88</ele>
        <time>2012-06-24T09:15:17Z</time>
      </trkpt>
      <trkpt lat="45.67772" lon="6.00763">
        <ele>1361.36</ele>
        <time>2012-06-24T09:15:19Z</time>
      </trkpt>
      <trkpt lat="45.67769" lon="6.00769">
        <ele>1361.36</ele>
        <time>2012-06-24T09:15:20Z</time>
      </trkpt>
      <trkpt lat="45.67767" lon="6.00775">
        <ele>1361.36</ele>
        <time>2012-06-24T09:15:21Z</time>
      </trkpt>
      <trkpt lat="45.67762" lon="6.00784">
        <ele>1362.33</ele>
        <time>2012-06-24T09:15:23Z</time>
      </trkpt>
      <trkpt lat="45.67759" lon="6.00789">
        <ele>1362.81</ele>
        <time>2012-06-24T09:15:24Z</time>
      </trkpt>
      <trkpt lat="45.67755" lon="6.00793">
        <ele>1362.81</ele>
        <time>2012-06-24T09:15:25Z</time>
      </trkpt>
      <trkpt lat="45.67747" lon="6.00802">
        <ele>1362.81</ele>
        <time>2012-06-24T09:15:27Z</time>
      </trkpt>
      <trkpt lat="45.67744" lon="6.00809">
        <ele>1363.29</ele>
        <time>2012-06-24T09:15:28Z</time>
      </trkpt>
      <trkpt lat="45.67745" lon="6.00815">
        <ele>1363.29</ele>
        <time>2012-06-24T09:15:29Z</time>
      </trkpt>
      <trkpt lat="45.67747" lon="6.00821">
        <ele>1363.29</ele>
        <time>2012-06-24T09:15:30Z</time>
      </trkpt>
      <trkpt lat="45.67749" lon="6.00827">
        <ele>1363.77</ele>
        <time>2012-06-24T09:15:31Z</time>
      </trkpt>
      <trkpt lat="45.67751" lon="6.00834">
        <ele>1363.77</ele>
        <time>2012-06-24T09:15:32Z</time>
      </trkpt>
      <trkpt lat="45.67754" lon="6.00848">
        <ele>1365.21</ele>
        <time>2012-06-24T09:15:34Z</time>
      </trkpt>
      <trkpt lat="45.67753" lon="6.00855">
        <ele>1364.73</ele>
        <time>2012-06-24T09:15:35Z</time>
      </trkpt>
      <trkpt lat="45.67752" lon="6.00861">
        <ele>1365.21</ele>
        <time>2012-06-24T09:15:36Z</time>
      </trkpt>
      <trkpt lat="45.67749" lon="6.00868">
        <ele>1365.21</ele>
        <time>2012-06-24T09:15:37Z</time>
      </trkpt>
      <trkpt lat="45.67747" lon="6.00872">
        <ele>1366.17</ele>
        <time>2012-06-24T09:15:38Z</time>
      </trkpt>
      <trkpt lat="45.67744" lon="6.00876">
        <ele>1366.17</ele>
        <time>2012-06-24T09:15:39Z</time>
      </trkpt>
      <trkpt lat="45.67741" lon="6.00878">
        <ele>1366.65</ele>
        <time>2012-06-24T09:15:40Z</time>
      </trkpt>
      <trkpt lat="45.67737" lon="6.0088">
        <ele>1366.65</ele>
        <time>2012-06-24T09:15:41Z</time>
      </trkpt>
      <trkpt lat="45.67734" lon="6.00882">
        <ele>1367.13</ele>
        <time>2012-06-24T09:15:42Z</time>
      </trkpt>
      <trkpt lat="45.67727" lon="6.00886">
        <ele>1366.65</ele>
        <time>2012-06-24T09:15:44Z</time>
      </trkpt>
      <trkpt lat="45.67665" lon="6.00917">
        <ele>1364.25</ele>
        <time>2012-06-24T09:15:54Z</time>
      </trkpt>
      <trkpt lat="45.67652" lon="6.00927">
        <ele>1364.25</ele>
        <time>2012-06-24T09:15:56Z</time>
      </trkpt>
      <trkpt lat="45.67646" lon="6.00934">
        <ele>1363.77</ele>
        <time>2012-06-24T09:15:57Z</time>
      </trkpt>
      <trkpt lat="45.67642" lon="6.00942">
        <ele>1364.25</ele>
        <time>2012-06-24T09:15:58Z</time>
      </trkpt>
      <trkpt lat="45.67638" lon="6.0095">
        <ele>1363.77</ele>
        <time>2012-06-24T09:15:59Z</time>
      </trkpt>
      <trkpt lat="45.67634" lon="6.00959">
        <ele>1363.29</ele>
        <time>2012-06-24T09:16:00Z</time>
      </trkpt>
      <trkpt lat="45.67632" lon="6.0097">
        <ele>1363.29</ele>
        <time>2012-06-24T09:16:01Z</time>
      </trkpt>
      <trkpt lat="45.67625" lon="6.00987">
        <ele>1363.77</ele>
        <time>2012-06-24T09:16:03Z</time>
      </trkpt>
      <trkpt lat="45.67618" lon="6.01">
        <ele>1364.25</ele>
        <time>2012-06-24T09:16:05Z</time>
      </trkpt>
      <trkpt lat="45.67615" lon="6.01005">
        <ele>1364.25</ele>
        <time>2012-06-24T09:16:06Z</time>
      </trkpt>
      <trkpt lat="45.67584" lon="6.0104">
        <ele>1366.17</ele>
        <time>2012-06-24T09:16:18Z</time>
      </trkpt>
      <trkpt lat="45.67566" lon="6.01062">
        <ele>1369.54</ele>
        <time>2012-06-24T09:16:28Z</time>
      </trkpt>
      <trkpt lat="45.67557" lon="6.01074">
        <ele>1370.98</ele>
        <time>2012-06-24T09:16:33Z</time>
      </trkpt>
      <trkpt lat="45.6755" lon="6.01093">
        <ele>1371.94</ele>
        <time>2012-06-24T09:16:40Z</time>
      </trkpt>
      <trkpt lat="45.67548" lon="6.01096">
        <ele>1371.94</ele>
        <time>2012-06-24T09:16:41Z</time>
      </trkpt>
      <trkpt lat="45.67547" lon="6.01099">
        <ele>1372.42</ele>
        <time>2012-06-24T09:16:42Z</time>
      </trkpt>
      <trkpt lat="45.67546" lon="6.01103">
        <ele>1371.94</ele>
        <time>2012-06-24T09:16:43Z</time>
      </trkpt>
      <trkpt lat="45.67545" lon="6.01106">
        <ele>1372.42</ele>
        <time>2012-06-24T09:16:44Z</time>
      </trkpt>
      <trkpt lat="45.67544" lon="6.01109">
        <ele>1371.94</ele>
        <time>2012-06-24T09:16:45Z</time>
      </trkpt>
      <trkpt lat="45.67542" lon="6.01113">
        <ele>1372.42</ele>
        <time>2012-06-24T09:16:46Z</time>
      </trkpt>
      <trkpt lat="45.67541" lon="6.01117">
        <ele>1372.9</ele>
        <time>2012-06-24T09:16:47Z</time>
      </trkpt>
      <trkpt lat="45.6754" lon="6.01121">
        <ele>1372.42</ele>
        <time>2012-06-24T09:16:48Z</time>
      </trkpt>
      <trkpt lat="45.67538" lon="6.01125">
        <ele>1372.9</ele>
        <time>2012-06-24T09:16:49Z</time>
      </trkpt>
      <trkpt lat="45.67537" lon="6.0113">
        <ele>1372.42</ele>
        <time>2012-06-24T09:16:50Z</time>
      </trkpt>
      <trkpt lat="45.67535" lon="6.01136">
        <ele>1371.94</ele>
        <time>2012-06-24T09:16:51Z</time>
      </trkpt>
      <trkpt lat="45.67535" lon="6.01142">
        <ele>1372.42</ele>
        <time>2012-06-24T09:16:52Z</time>
      </trkpt>
      <trkpt lat="45.67535" lon="6.0115">
        <ele>1371.46</ele>
        <time>2012-06-24T09:16:53Z</time>
      </trkpt>
      <trkpt lat="45.67532" lon="6.01178">
        <ele>1370.5</ele>
        <time>2012-06-24T09:16:56Z</time>
      </trkpt>
      <trkpt lat="45.67529" lon="6.01187">
        <ele>1369.54</ele>
        <time>2012-06-24T09:16:57Z</time>
      </trkpt>
      <trkpt lat="45.67525" lon="6.01195">
        <ele>1370.02</ele>
        <time>2012-06-24T09:16:58Z</time>
      </trkpt>
      <trkpt lat="45.67502" lon="6.01241">
        <ele>1370.02</ele>
        <time>2012-06-24T09:17:05Z</time>
      </trkpt>
      <trkpt lat="45.675" lon="6.01247">
        <ele>1370.5</ele>
        <time>2012-06-24T09:17:06Z</time>
      </trkpt>
      <trkpt lat="45.67498" lon="6.01254">
        <ele>1370.5</ele>
        <time>2012-06-24T09:17:07Z</time>
      </trkpt>
      <trkpt lat="45.67493" lon="6.01265">
        <ele>1370.02</ele>
        <time>2012-06-24T09:17:09Z</time>
      </trkpt>
      <trkpt lat="45.67491" lon="6.0127">
        <ele>1370.02</ele>
        <time>2012-06-24T09:17:10Z</time>
      </trkpt>
      <trkpt lat="45.67488" lon="6.01275">
        <ele>1370.02</ele>
        <time>2012-06-24T09:17:11Z</time>
      </trkpt>
      <trkpt lat="45.6746" lon="6.01317">
        <ele>1368.57</ele>
        <time>2012-06-24T09:17:19Z</time>
      </trkpt>
      <trkpt lat="45.67455" lon="6.01321">
        <ele>1369.54</ele>
        <time>2012-06-24T09:17:20Z</time>
      </trkpt>
      <trkpt lat="45.6745" lon="6.01324">
        <ele>1370.02</ele>
        <time>2012-06-24T09:17:21Z</time>
      </trkpt>
      <trkpt lat="45.67445" lon="6.01325">
        <ele>1369.54</ele>
        <time>2012-06-24T09:17:22Z</time>
      </trkpt>
      <trkpt lat="45.6744" lon="6.01326">
        <ele>1370.02</ele>
        <time>2012-06-24T09:17:23Z</time>
      </trkpt>
      <trkpt lat="45.67436" lon="6.01327">
        <ele>1370.02</ele>
        <time>2012-06-24T09:17:24Z</time>
      </trkpt>
      <trkpt lat="45.67431" lon="6.01327">
        <ele>1370.5</ele>
        <time>2012-06-24T09:17:25Z</time>
      </trkpt>
      <trkpt lat="45.67427" lon="6.01326">
        <ele>1370.5</ele>
        <time>2012-06-24T09:17:26Z</time>
      </trkpt>
      <trkpt lat="45.67423" lon="6.01325">
        <ele>1370.5</ele>
        <time>2012-06-24T09:17:27Z</time>
      </trkpt>
      <trkpt lat="45.67399" lon="6.01313">
        <ele>1370.98</ele>
        <time>2012-06-24T09:17:33Z</time>
      </trkpt>
      <trkpt lat="45.67395" lon="6.01309">
        <ele>1370.98</ele>
        <time>2012-06-24T09:17:34Z</time>
      </trkpt>
      <trkpt lat="45.67391" lon="6.01305">
        <ele>1370.02</ele>
        <time>2012-06-24T09:17:35Z</time>
      </trkpt>
      <trkpt lat="45.67387" lon="6.013">
        <ele>1369.54</ele>
        <time>2012-06-24T09:17:36Z</time>
      </trkpt>
      <trkpt lat="45.67382" lon="6.01293">
        <ele>1368.57</ele>
        <time>2012-06-24T09:17:37Z</time>
      </trkpt>
      <trkpt lat="45.67364" lon="6.01269">
        <ele>1366.17</ele>
        <time>2012-06-24T09:17:40Z</time>
      </trkpt>
      <trkpt lat="45.67357" lon="6.01261">
        <ele>1365.69</ele>
        <time>2012-06-24T09:17:41Z</time>
      </trkpt>
      <trkpt lat="45.67334" lon="6.01236">
        <ele>1363.29</ele>
        <time>2012-06-24T09:17:44Z</time>
      </trkpt>
      <trkpt lat="45.67328" lon="6.01226">
        <ele>1363.29</ele>
        <time>2012-06-24T09:17:45Z</time>
      </trkpt>
      <trkpt lat="45.67324" lon="6.01216">
        <ele>1363.77</ele>
        <time>2012-06-24T09:17:46Z</time>
      </trkpt>
      <trkpt lat="45.67321" lon="6.01208">
        <ele>1364.73</ele>
        <time>2012-06-24T09:17:47Z</time>
      </trkpt>
      <trkpt lat="45.67318" lon="6.01201">
        <ele>1364.25</ele>
        <time>2012-06-24T09:17:48Z</time>
      </trkpt>
      <trkpt lat="45.67313" lon="6.01197">
        <ele>1364.25</ele>
        <time>2012-06-24T09:17:49Z</time>
      </trkpt>
      <trkpt lat="45.67308" lon="6.01195">
        <ele>1363.77</ele>
        <time>2012-06-24T09:17:50Z</time>
      </trkpt>
      <trkpt lat="45.67302" lon="6.01197">
        <ele>1363.77</ele>
        <time>2012-06-24T09:17:51Z</time>
      </trkpt>
      <trkpt lat="45.67297" lon="6.012">
        <ele>1362.81</ele>
        <time>2012-06-24T09:17:52Z</time>
      </trkpt>
      <trkpt lat="45.67254" lon="6.01233">
        <ele>1359.44</ele>
        <time>2012-06-24T09:17:59Z</time>
      </trkpt>
      <trkpt lat="45.67247" lon="6.01239">
        <ele>1359.92</ele>
        <time>2012-06-24T09:18:00Z</time>
      </trkpt>
      <trkpt lat="45.67238" lon="6.01247">
        <ele>1360.88</ele>
        <time>2012-06-24T09:18:02Z</time>
      </trkpt>
      <trkpt lat="45.67228" lon="6.01259">
        <ele>1360.88</ele>
        <time>2012-06-24T09:18:06Z</time>
      </trkpt>
      <trkpt lat="45.67226" lon="6.01261">
        <ele>1361.36</ele>
        <time>2012-06-24T09:18:07Z</time>
      </trkpt>
      <trkpt lat="45.67225" lon="6.01265">
        <ele>1361.36</ele>
        <time>2012-06-24T09:18:08Z</time>
      </trkpt>
      <trkpt lat="45.67225" lon="6.01285">
        <ele>1361.36</ele>
        <time>2012-06-24T09:18:13Z</time>
      </trkpt>
      <trkpt lat="45.67224" lon="6.01289">
        <ele>1361.84</ele>
        <time>2012-06-24T09:18:14Z</time>
      </trkpt>
      <trkpt lat="45.67212" lon="6.01321">
        <ele>1362.33</ele>
        <time>2012-06-24T09:18:23Z</time>
      </trkpt>
      <trkpt lat="45.67199" lon="6.01351">
        <ele>1361.36</ele>
        <time>2012-06-24T09:18:33Z</time>
      </trkpt>
      <trkpt lat="45.67195" lon="6.01355">
        <ele>1361.36</ele>
        <time>2012-06-24T09:18:34Z</time>
      </trkpt>
      <trkpt lat="45.67191" lon="6.0136">
        <ele>1360.4</ele>
        <time>2012-06-24T09:18:35Z</time>
      </trkpt>
      <trkpt lat="45.67185" lon="6.01372">
        <ele>1359.92</ele>
        <time>2012-06-24T09:18:37Z</time>
      </trkpt>
      <trkpt lat="45.67183" lon="6.01378">
        <ele>1360.88</ele>
        <time>2012-06-24T09:18:38Z</time>
      </trkpt>
      <trkpt lat="45.67181" lon="6.01383">
        <ele>1360.88</ele>
        <time>2012-06-24T09:18:39Z</time>
      </trkpt>
      <trkpt lat="45.67181" lon="6.01388">
        <ele>1361.36</ele>
        <time>2012-06-24T09:18:40Z</time>
      </trkpt>
      <trkpt lat="45.6718" lon="6.01394">
        <ele>1361.36</ele>
        <time>2012-06-24T09:18:41Z</time>
      </trkpt>
      <trkpt lat="45.67178" lon="6.01399">
        <ele>1361.36</ele>
        <time>2012-06-24T09:18:42Z</time>
      </trkpt>
      <trkpt lat="45.67176" lon="6.01404">
        <ele>1361.36</ele>
        <time>2012-06-24T09:18:43Z</time>
      </trkpt>
      <trkpt lat="45.67164" lon="6.01455">
        <ele>1362.81</ele>
        <time>2012-06-24T09:18:52Z</time>
      </trkpt>
      <trkpt lat="45.67156" lon="6.01475">
        <ele>1363.77</ele>
        <time>2012-06-24T09:18:57Z</time>
      </trkpt>
      <trkpt lat="45.67153" lon="6.01475">
        <ele>1363.29</ele>
        <time>2012-06-24T09:18:58Z</time>
      </trkpt>
      <trkpt lat="45.67149" lon="6.01473">
        <ele>1363.77</ele>
        <time>2012-06-24T09:18:59Z</time>
      </trkpt>
      <trkpt lat="45.67146" lon="6.01472">
        <ele>1363.29</ele>
        <time>2012-06-24T09:19:00Z</time>
      </trkpt>
      <trkpt lat="45.67142" lon="6.01472">
        <ele>1363.29</ele>
        <time>2012-06-24T09:19:01Z</time>
      </trkpt>
      <trkpt lat="45.67131" lon="6.01468">
        <ele>1362.33</ele>
        <time>2012-06-24T09:19:04Z</time>
      </trkpt>
      <trkpt lat="45.67127" lon="6.01467">
        <ele>1362.81</ele>
        <time>2012-06-24T09:19:05Z</time>
      </trkpt>
      <trkpt lat="45.67123" lon="6.01466">
        <ele>1361.84</ele>
        <time>2012-06-24T09:19:06Z</time>
      </trkpt>
      <trkpt lat="45.67119" lon="6.01464">
        <ele>1361.84</ele>
        <time>2012-06-24T09:19:07Z</time>
      </trkpt>
      <trkpt lat="45.67116" lon="6.01463">
        <ele>1361.84</ele>
        <time>2012-06-24T09:19:08Z</time>
      </trkpt>
      <trkpt lat="45.67109" lon="6.01457">
        <ele>1362.81</ele>
        <time>2012-06-24T09:19:11Z</time>
      </trkpt>
      <trkpt lat="45.67108" lon="6.01445">
        <ele>1363.77</ele>
        <time>2012-06-24T09:19:15Z</time>
      </trkpt>
      <trkpt lat="45.67107" lon="6.01443">
        <ele>1363.29</ele>
        <time>2012-06-24T09:19:16Z</time>
      </trkpt>
      <trkpt lat="45.67084" lon="6.01405">
        <ele>1364.73</ele>
        <time>2012-06-24T09:19:30Z</time>
      </trkpt>
      <trkpt lat="45.67072" lon="6.01378">
        <ele>1364.73</ele>
        <time>2012-06-24T09:19:35Z</time>
      </trkpt>
      <trkpt lat="45.6707" lon="6.01372">
        <ele>1364.25</ele>
        <time>2012-06-24T09:19:36Z</time>
      </trkpt>
      <trkpt lat="45.67067" lon="6.01359">
        <ele>1364.25</ele>
        <time>2012-06-24T09:19:38Z</time>
      </trkpt>
      <trkpt lat="45.67065" lon="6.01346">
        <ele>1364.73</ele>
        <time>2012-06-24T09:19:40Z</time>
      </trkpt>
      <trkpt lat="45.67063" lon="6.01341">
        <ele>1364.25</ele>
        <time>2012-06-24T09:19:41Z</time>
      </trkpt>
      <trkpt lat="45.67062" lon="6.01336">
        <ele>1364.73</ele>
        <time>2012-06-24T09:19:42Z</time>
      </trkpt>
      <trkpt lat="45.67035" lon="6.01293">
        <ele>1366.17</ele>
        <time>2012-06-24T09:19:55Z</time>
      </trkpt>
      <trkpt lat="45.66996" lon="6.01244">
        <ele>1365.69</ele>
        <time>2012-06-24T09:20:09Z</time>
      </trkpt>
      <trkpt lat="45.66967" lon="6.01228">
        <ele>1368.09</ele>
        <time>2012-06-24T09:20:22Z</time>
      </trkpt>
      <trkpt lat="45.66947" lon="6.01207">
        <ele>1369.54</ele>
        <time>2012-06-24T09:20:35Z</time>
      </trkpt>
      <trkpt lat="45.66935" lon="6.0116">
        <ele>1369.05</ele>
        <time>2012-06-24T09:20:48Z</time>
      </trkpt>
      <trkpt lat="45.66921" lon="6.01117">
        <ele>1369.05</ele>
        <time>2012-06-24T09:21:00Z</time>
      </trkpt>
      <trkpt lat="45.6689" lon="6.01083">
        <ele>1369.54</ele>
        <time>2012-06-24T09:21:13Z</time>
      </trkpt>
      <trkpt lat="45.66876" lon="6.01069">
        <ele>1372.42</ele>
        <time>2012-06-24T09:21:24Z</time>
      </trkpt>
      <trkpt lat="45.66849" lon="6.01065">
        <ele>1374.34</ele>
        <time>2012-06-24T09:21:40Z</time>
      </trkpt>
      <trkpt lat="45.66832" lon="6.01083">
        <ele>1376.26</ele>
        <time>2012-06-24T09:21:53Z</time>
      </trkpt>
      <trkpt lat="45.66816" lon="6.01096">
        <ele>1378.19</ele>
        <time>2012-06-24T09:22:05Z</time>
      </trkpt>
      <trkpt lat="45.66784" lon="6.01073">
        <ele>1377.71</ele>
        <time>2012-06-24T09:22:20Z</time>
      </trkpt>
      <trkpt lat="45.66775" lon="6.01057">
        <ele>1376.75</ele>
        <time>2012-06-24T09:22:23Z</time>
      </trkpt>
      <trkpt lat="45.66772" lon="6.01052">
        <ele>1376.75</ele>
        <time>2012-06-24T09:22:24Z</time>
      </trkpt>
      <trkpt lat="45.66766" lon="6.01042">
        <ele>1376.26</ele>
        <time>2012-06-24T09:22:26Z</time>
      </trkpt>
      <trkpt lat="45.66752" lon="6.01017">
        <ele>1376.26</ele>
        <time>2012-06-24T09:22:31Z</time>
      </trkpt>
      <trkpt lat="45.66698" lon="6.00991">
        <ele>1376.26</ele>
        <time>2012-06-24T09:22:45Z</time>
      </trkpt>
      <trkpt lat="45.66647" lon="6.00972">
        <ele>1374.82</ele>
        <time>2012-06-24T09:22:59Z</time>
      </trkpt>
      <trkpt lat="45.66623" lon="6.00953">
        <ele>1377.71</ele>
        <time>2012-06-24T09:23:08Z</time>
      </trkpt>
      <trkpt lat="45.66584" lon="6.00946">
        <ele>1379.15</ele>
        <time>2012-06-24T09:23:20Z</time>
      </trkpt>
      <trkpt lat="45.66542" lon="6.00972">
        <ele>1380.59</ele>
        <time>2012-06-24T09:23:33Z</time>
      </trkpt>
      <trkpt lat="45.66507" lon="6.0092">
        <ele>1378.67</ele>
        <time>2012-06-24T09:23:44Z</time>
      </trkpt>
      <trkpt lat="45.66504" lon="6.00914">
        <ele>1379.15</ele>
        <time>2012-06-24T09:23:45Z</time>
      </trkpt>
      <trkpt lat="45.665" lon="6.00908">
        <ele>1379.15</ele>
        <time>2012-06-24T09:23:46Z</time>
      </trkpt>
      <trkpt lat="45.66493" lon="6.00897">
        <ele>1378.67</ele>
        <time>2012-06-24T09:23:48Z</time>
      </trkpt>
      <trkpt lat="45.66486" lon="6.00881">
        <ele>1378.19</ele>
        <time>2012-06-24T09:23:50Z</time>
      </trkpt>
      <trkpt lat="45.66478" lon="6.00863">
        <ele>1376.75</ele>
        <time>2012-06-24T09:23:52Z</time>
      </trkpt>
      <trkpt lat="45.66474" lon="6.00856">
        <ele>1376.75</ele>
        <time>2012-06-24T09:23:53Z</time>
      </trkpt>
      <trkpt lat="45.6647" lon="6.0085">
        <ele>1376.26</ele>
        <time>2012-06-24T09:23:54Z</time>
      </trkpt>
      <trkpt lat="45.66457" lon="6.00837">
        <ele>1375.78</ele>
        <time>2012-06-24T09:23:57Z</time>
      </trkpt>
      <trkpt lat="45.66454" lon="6.00837">
        <ele>1376.75</ele>
        <time>2012-06-24T09:23:58Z</time>
      </trkpt>
      <trkpt lat="45.6645" lon="6.00838">
        <ele>1376.26</ele>
        <time>2012-06-24T09:23:59Z</time>
      </trkpt>
      <trkpt lat="45.66447" lon="6.00839">
        <ele>1376.75</ele>
        <time>2012-06-24T09:24:00Z</time>
      </trkpt>
      <trkpt lat="45.66444" lon="6.00841">
        <ele>1376.75</ele>
        <time>2012-06-24T09:24:01Z</time>
      </trkpt>
      <trkpt lat="45.66441" lon="6.00843">
        <ele>1377.71</ele>
        <time>2012-06-24T09:24:02Z</time>
      </trkpt>
      <trkpt lat="45.66417" lon="6.00858">
        <ele>1379.63</ele>
        <time>2012-06-24T09:24:11Z</time>
      </trkpt>
      <trkpt lat="45.66414" lon="6.00857">
        <ele>1379.63</ele>
        <time>2012-06-24T09:24:12Z</time>
      </trkpt>
      <trkpt lat="45.66397" lon="6.00839">
        <ele>1379.15</ele>
        <time>2012-06-24T09:24:18Z</time>
      </trkpt>
      <trkpt lat="45.66395" lon="6.00833">
        <ele>1378.19</ele>
        <time>2012-06-24T09:24:19Z</time>
      </trkpt>
      <trkpt lat="45.6638" lon="6.0078">
        <ele>1378.19</ele>
        <time>2012-06-24T09:24:29Z</time>
      </trkpt>
      <trkpt lat="45.66378" lon="6.00774">
        <ele>1377.71</ele>
        <time>2012-06-24T09:24:30Z</time>
      </trkpt>
      <trkpt lat="45.66335" lon="6.00711">
        <ele>1374.82</ele>
        <time>2012-06-24T09:24:40Z</time>
      </trkpt>
      <trkpt lat="45.66324" lon="6.00698">
        <ele>1373.86</ele>
        <time>2012-06-24T09:24:42Z</time>
      </trkpt>
      <trkpt lat="45.6632" lon="6.0069">
        <ele>1374.34</ele>
        <time>2012-06-24T09:24:43Z</time>
      </trkpt>
      <trkpt lat="45.66318" lon="6.00682">
        <ele>1374.34</ele>
        <time>2012-06-24T09:24:44Z</time>
      </trkpt>
      <trkpt lat="45.66316" lon="6.00673">
        <ele>1373.86</ele>
        <time>2012-06-24T09:24:45Z</time>
      </trkpt>
      <trkpt lat="45.66312" lon="6.00653">
        <ele>1372.42</ele>
        <time>2012-06-24T09:24:47Z</time>
      </trkpt>
      <trkpt lat="45.66304" lon="6.00613">
        <ele>1373.86</ele>
        <time>2012-06-24T09:24:52Z</time>
      </trkpt>
      <trkpt lat="45.66301" lon="6.00608">
        <ele>1373.86</ele>
        <time>2012-06-24T09:24:53Z</time>
      </trkpt>
      <trkpt lat="45.66294" lon="6.00588">
        <ele>1372.9</ele>
        <time>2012-06-24T09:24:56Z</time>
      </trkpt>
      <trkpt lat="45.66293" lon="6.00581">
        <ele>1372.9</ele>
        <time>2012-06-24T09:24:57Z</time>
      </trkpt>
      <trkpt lat="45.66293" lon="6.00574">
        <ele>1372.9</ele>
        <time>2012-06-24T09:24:58Z</time>
      </trkpt>
      <trkpt lat="45.66293" lon="6.00567">
        <ele>1372.42</ele>
        <time>2012-06-24T09:24:59Z</time>
      </trkpt>
      <trkpt lat="45.66293" lon="6.00559">
        <ele>1372.42</ele>
        <time>2012-06-24T09:25:00Z</time>
      </trkpt>
      <trkpt lat="45.66293" lon="6.0055">
        <ele>1372.42</ele>
        <time>2012-06-24T09:25:01Z</time>
      </trkpt>
      <trkpt lat="45.66291" lon="6.00542">
        <ele>1371.46</ele>
        <time>2012-06-24T09:25:02Z</time>
      </trkpt>
      <trkpt lat="45.66288" lon="6.00534">
        <ele>1371.46</ele>
        <time>2012-06-24T09:25:03Z</time>
      </trkpt>
      <trkpt lat="45.66286" lon="6.00525">
        <ele>1370.5</ele>
        <time>2012-06-24T09:25:04Z</time>
      </trkpt>
      <trkpt lat="45.66283" lon="6.00516">
        <ele>1370.02</ele>
        <time>2012-06-24T09:25:05Z</time>
      </trkpt>
      <trkpt lat="45.66278" lon="6.00487">
        <ele>1370.02</ele>
        <time>2012-06-24T09:25:08Z</time>
      </trkpt>
      <trkpt lat="45.66274" lon="6.00481">
        <ele>1370.02</ele>
        <time>2012-06-24T09:25:09Z</time>
      </trkpt>
      <trkpt lat="45.6627" lon="6.00476">
        <ele>1370.02</ele>
        <time>2012-06-24T09:25:10Z</time>
      </trkpt>
      <trkpt lat="45.66267" lon="6.00473">
        <ele>1370.02</ele>
        <time>2012-06-24T09:25:11Z</time>
      </trkpt>
      <trkpt lat="45.66263" lon="6.00471">
        <ele>1370.5</ele>
        <time>2012-06-24T09:25:12Z</time>
      </trkpt>
      <trkpt lat="45.66259" lon="6.00471">
        <ele>1370.98</ele>
        <time>2012-06-24T09:25:13Z</time>
      </trkpt>
      <trkpt lat="45.66256" lon="6.00471">
        <ele>1370.5</ele>
        <time>2012-06-24T09:25:14Z</time>
      </trkpt>
      <trkpt lat="45.66253" lon="6.0047">
        <ele>1370.5</ele>
        <time>2012-06-24T09:25:15Z</time>
      </trkpt>
      <trkpt lat="45.66249" lon="6.00469">
        <ele>1370.5</ele>
        <time>2012-06-24T09:25:16Z</time>
      </trkpt>
      <trkpt lat="45.66245" lon="6.00465">
        <ele>1370.02</ele>
        <time>2012-06-24T09:25:17Z</time>
      </trkpt>
      <trkpt lat="45.66242" lon="6.0046">
        <ele>1369.54</ele>
        <time>2012-06-24T09:25:18Z</time>
      </trkpt>
      <trkpt lat="45.66238" lon="6.00454">
        <ele>1369.54</ele>
        <time>2012-06-24T09:25:19Z</time>
      </trkpt>
      <trkpt lat="45.66235" lon="6.00446">
        <ele>1368.57</ele>
        <time>2012-06-24T09:25:20Z</time>
      </trkpt>
      <trkpt lat="45.66232" lon="6.00438">
        <ele>1368.57</ele>
        <time>2012-06-24T09:25:21Z</time>
      </trkpt>
      <trkpt lat="45.66227" lon="6.0043">
        <ele>1368.09</ele>
        <time>2012-06-24T09:25:22Z</time>
      </trkpt>
      <trkpt lat="45.66222" lon="6.00423">
        <ele>1367.61</ele>
        <time>2012-06-24T09:25:23Z</time>
      </trkpt>
      <trkpt lat="45.66215" lon="6.00417">
        <ele>1367.13</ele>
        <time>2012-06-24T09:25:24Z</time>
      </trkpt>
      <trkpt lat="45.66209" lon="6.00412">
        <ele>1367.13</ele>
        <time>2012-06-24T09:25:25Z</time>
      </trkpt>
      <trkpt lat="45.66203" lon="6.00408">
        <ele>1367.61</ele>
        <time>2012-06-24T09:25:26Z</time>
      </trkpt>
      <trkpt lat="45.66198" lon="6.00403">
        <ele>1367.13</ele>
        <time>2012-06-24T09:25:27Z</time>
      </trkpt>
      <trkpt lat="45.66193" lon="6.00398">
        <ele>1367.13</ele>
        <time>2012-06-24T09:25:28Z</time>
      </trkpt>
      <trkpt lat="45.66181" lon="6.00389">
        <ele>1366.65</ele>
        <time>2012-06-24T09:25:30Z</time>
      </trkpt>
      <trkpt lat="45.66174" lon="6.00386">
        <ele>1365.69</ele>
        <time>2012-06-24T09:25:31Z</time>
      </trkpt>
      <trkpt lat="45.66166" lon="6.00385">
        <ele>1364.73</ele>
        <time>2012-06-24T09:25:32Z</time>
      </trkpt>
      <trkpt lat="45.66159" lon="6.00387">
        <ele>1364.73</ele>
        <time>2012-06-24T09:25:33Z</time>
      </trkpt>
      <trkpt lat="45.66153" lon="6.00389">
        <ele>1365.21</ele>
        <time>2012-06-24T09:25:34Z</time>
      </trkpt>
      <trkpt lat="45.66147" lon="6.00393">
        <ele>1365.21</ele>
        <time>2012-06-24T09:25:35Z</time>
      </trkpt>
      <trkpt lat="45.66142" lon="6.00398">
        <ele>1365.21</ele>
        <time>2012-06-24T09:25:36Z</time>
      </trkpt>
      <trkpt lat="45.66137" lon="6.00401">
        <ele>1365.21</ele>
        <time>2012-06-24T09:25:37Z</time>
      </trkpt>
      <trkpt lat="45.66133" lon="6.00404">
        <ele>1365.69</ele>
        <time>2012-06-24T09:25:38Z</time>
      </trkpt>
      <trkpt lat="45.66121" lon="6.00407">
        <ele>1366.17</ele>
        <time>2012-06-24T09:25:41Z</time>
      </trkpt>
      <trkpt lat="45.66109" lon="6.0041">
        <ele>1367.13</ele>
        <time>2012-06-24T09:25:44Z</time>
      </trkpt>
      <trkpt lat="45.66093" lon="6.00416">
        <ele>1369.05</ele>
        <time>2012-06-24T09:25:50Z</time>
      </trkpt>
      <trkpt lat="45.6609" lon="6.00417">
        <ele>1369.05</ele>
        <time>2012-06-24T09:25:51Z</time>
      </trkpt>
      <trkpt lat="45.66087" lon="6.00419">
        <ele>1369.05</ele>
        <time>2012-06-24T09:25:52Z</time>
      </trkpt>
      <trkpt lat="45.66052" lon="6.00458">
        <ele>1369.54</ele>
        <time>2012-06-24T09:26:03Z</time>
      </trkpt>
      <trkpt lat="45.66037" lon="6.00471">
        <ele>1370.02</ele>
        <time>2012-06-24T09:26:07Z</time>
      </trkpt>
      <trkpt lat="45.66033" lon="6.00472">
        <ele>1369.54</ele>
        <time>2012-06-24T09:26:08Z</time>
      </trkpt>
      <trkpt lat="45.66028" lon="6.00472">
        <ele>1370.02</ele>
        <time>2012-06-24T09:26:09Z</time>
      </trkpt>
      <trkpt lat="45.66024" lon="6.00471">
        <ele>1369.54</ele>
        <time>2012-06-24T09:26:10Z</time>
      </trkpt>
      <trkpt lat="45.66019" lon="6.00468">
        <ele>1369.54</ele>
        <time>2012-06-24T09:26:11Z</time>
      </trkpt>
      <trkpt lat="45.66015" lon="6.00465">
        <ele>1370.02</ele>
        <time>2012-06-24T09:26:12Z</time>
      </trkpt>
      <trkpt lat="45.66011" lon="6.0046">
        <ele>1369.54</ele>
        <time>2012-06-24T09:26:13Z</time>
      </trkpt>
      <trkpt lat="45.66007" lon="6.00456">
        <ele>1369.05</ele>
        <time>2012-06-24T09:26:14Z</time>
      </trkpt>
      <trkpt lat="45.66004" lon="6.0045">
        <ele>1369.54</ele>
        <time>2012-06-24T09:26:15Z</time>
      </trkpt>
      <trkpt lat="45.66001" lon="6.00445">
        <ele>1370.02</ele>
        <time>2012-06-24T09:26:16Z</time>
      </trkpt>
      <trkpt lat="45.65984" lon="6.00421">
        <ele>1370.02</ele>
        <time>2012-06-24T09:26:21Z</time>
      </trkpt>
      <trkpt lat="45.65981" lon="6.00417">
        <ele>1370.02</ele>
        <time>2012-06-24T09:26:22Z</time>
      </trkpt>
      <trkpt lat="45.65974" lon="6.00408">
        <ele>1370.5</ele>
        <time>2012-06-24T09:26:24Z</time>
      </trkpt>
      <trkpt lat="45.65961" lon="6.00395">
        <ele>1370.98</ele>
        <time>2012-06-24T09:26:28Z</time>
      </trkpt>
      <trkpt lat="45.65957" lon="6.00389">
        <ele>1370.98</ele>
        <time>2012-06-24T09:26:29Z</time>
      </trkpt>
      <trkpt lat="45.65937" lon="6.0036">
        <ele>1369.05</ele>
        <time>2012-06-24T09:26:34Z</time>
      </trkpt>
      <trkpt lat="45.65934" lon="6.00351">
        <ele>1368.57</ele>
        <time>2012-06-24T09:26:35Z</time>
      </trkpt>
      <trkpt lat="45.65921" lon="6.00319">
        <ele>1368.09</ele>
        <time>2012-06-24T09:26:39Z</time>
      </trkpt>
      <trkpt lat="45.65917" lon="6.00312">
        <ele>1368.57</ele>
        <time>2012-06-24T09:26:40Z</time>
      </trkpt>
      <trkpt lat="45.65908" lon="6.00299">
        <ele>1367.61</ele>
        <time>2012-06-24T09:26:42Z</time>
      </trkpt>
      <trkpt lat="45.65896" lon="6.00286">
        <ele>1364.25</ele>
        <time>2012-06-24T09:26:44Z</time>
      </trkpt>
      <trkpt lat="45.6589" lon="6.00278">
        <ele>1364.73</ele>
        <time>2012-06-24T09:26:45Z</time>
      </trkpt>
      <trkpt lat="45.65885" lon="6.00269">
        <ele>1364.73</ele>
        <time>2012-06-24T09:26:46Z</time>
      </trkpt>
      <trkpt lat="45.65881" lon="6.00262">
        <ele>1365.21</ele>
        <time>2012-06-24T09:26:47Z</time>
      </trkpt>
      <trkpt lat="45.65876" lon="6.00256">
        <ele>1365.69</ele>
        <time>2012-06-24T09:26:48Z</time>
      </trkpt>
      <trkpt lat="45.6587" lon="6.0025">
        <ele>1365.21</ele>
        <time>2012-06-24T09:26:49Z</time>
      </trkpt>
      <trkpt lat="45.65864" lon="6.00247">
        <ele>1365.21</ele>
        <time>2012-06-24T09:26:50Z</time>
      </trkpt>
      <trkpt lat="45.65858" lon="6.00245">
        <ele>1363.77</ele>
        <time>2012-06-24T09:26:51Z</time>
      </trkpt>
      <trkpt lat="45.65851" lon="6.00242">
        <ele>1363.77</ele>
        <time>2012-06-24T09:26:52Z</time>
      </trkpt>
      <trkpt lat="45.65845" lon="6.00239">
        <ele>1363.29</ele>
        <time>2012-06-24T09:26:53Z</time>
      </trkpt>
      <trkpt lat="45.65832" lon="6.0023">
        <ele>1362.81</ele>
        <time>2012-06-24T09:26:55Z</time>
      </trkpt>
      <trkpt lat="45.65826" lon="6.00224">
        <ele>1362.81</ele>
        <time>2012-06-24T09:26:56Z</time>
      </trkpt>
      <trkpt lat="45.65821" lon="6.00218">
        <ele>1362.81</ele>
        <time>2012-06-24T09:26:57Z</time>
      </trkpt>
      <trkpt lat="45.65817" lon="6.00212">
        <ele>1362.81</ele>
        <time>2012-06-24T09:26:58Z</time>
      </trkpt>
      <trkpt lat="45.65813" lon="6.00206">
        <ele>1362.81</ele>
        <time>2012-06-24T09:26:59Z</time>
      </trkpt>
      <trkpt lat="45.6581" lon="6.002">
        <ele>1362.81</ele>
        <time>2012-06-24T09:27:00Z</time>
      </trkpt>
      <trkpt lat="45.65806" lon="6.00194">
        <ele>1362.81</ele>
        <time>2012-06-24T09:27:01Z</time>
      </trkpt>
      <trkpt lat="45.65783" lon="6.00161">
        <ele>1362.33</ele>
        <time>2012-06-24T09:27:07Z</time>
      </trkpt>
      <trkpt lat="45.65762" lon="6.00138">
        <ele>1361.36</ele>
        <time>2012-06-24T09:27:12Z</time>
      </trkpt>
      <trkpt lat="45.65758" lon="6.0013">
        <ele>1360.4</ele>
        <time>2012-06-24T09:27:13Z</time>
      </trkpt>
      <trkpt lat="45.65753" lon="6.00121">
        <ele>1359.44</ele>
        <time>2012-06-24T09:27:14Z</time>
      </trkpt>
      <trkpt lat="45.65749" lon="6.0011">
        <ele>1358.48</ele>
        <time>2012-06-24T09:27:15Z</time>
      </trkpt>
      <trkpt lat="45.65746" lon="6.00099">
        <ele>1358</ele>
        <time>2012-06-24T09:27:16Z</time>
      </trkpt>
      <trkpt lat="45.65743" lon="6.00088">
        <ele>1358</ele>
        <time>2012-06-24T09:27:17Z</time>
      </trkpt>
      <trkpt lat="45.65725" lon="6.00033">
        <ele>1354.63</ele>
        <time>2012-06-24T09:27:22Z</time>
      </trkpt>
      <trkpt lat="45.65719" lon="6.00013">
        <ele>1354.15</ele>
        <time>2012-06-24T09:27:24Z</time>
      </trkpt>
      <trkpt lat="45.65715" lon="6.00005">
        <ele>1353.67</ele>
        <time>2012-06-24T09:27:25Z</time>
      </trkpt>
      <trkpt lat="45.65713" lon="5.99999">
        <ele>1353.19</ele>
        <time>2012-06-24T09:27:26Z</time>
      </trkpt>
      <trkpt lat="45.65712" lon="5.99994">
        <ele>1352.71</ele>
        <time>2012-06-24T09:27:27Z</time>
      </trkpt>
      <trkpt lat="45.65716" lon="5.9999">
        <ele>1352.23</ele>
        <time>2012-06-24T09:27:30Z</time>
      </trkpt>
      <trkpt lat="45.65749" lon="6.00032">
        <ele>1352.23</ele>
        <time>2012-06-24T09:27:41Z</time>
      </trkpt>
      <trkpt lat="45.6579" lon="6.00094">
        <ele>1353.67</ele>
        <time>2012-06-24T09:27:55Z</time>
      </trkpt>
      <trkpt lat="45.65822" lon="6.00121">
        <ele>1354.63</ele>
        <time>2012-06-24T09:28:06Z</time>
      </trkpt>
      <trkpt lat="45.65828" lon="6.00123">
        <ele>1355.12</ele>
        <time>2012-06-24T09:28:08Z</time>
      </trkpt>
      <trkpt lat="45.6583" lon="6.00123">
        <ele>1355.12</ele>
        <time>2012-06-24T09:28:09Z</time>
      </trkpt>
      <trkpt lat="45.65833" lon="6.00122">
        <ele>1355.12</ele>
        <time>2012-06-24T09:28:10Z</time>
      </trkpt>
      <trkpt lat="45.65836" lon="6.00119">
        <ele>1355.6</ele>
        <time>2012-06-24T09:28:11Z</time>
      </trkpt>
      <trkpt lat="45.65839" lon="6.00116">
        <ele>1355.6</ele>
        <time>2012-06-24T09:28:12Z</time>
      </trkpt>
      <trkpt lat="45.65841" lon="6.00113">
        <ele>1355.6</ele>
        <time>2012-06-24T09:28:13Z</time>
      </trkpt>
      <trkpt lat="45.65843" lon="6.00109">
        <ele>1355.6</ele>
        <time>2012-06-24T09:28:14Z</time>
      </trkpt>
      <trkpt lat="45.65846" lon="6.00105">
        <ele>1355.6</ele>
        <time>2012-06-24T09:28:15Z</time>
      </trkpt>
      <trkpt lat="45.65873" lon="6.00069">
        <ele>1357.52</ele>
        <time>2012-06-24T09:28:28Z</time>
      </trkpt>
      <trkpt lat="45.6589" lon="6.00083">
        <ele>1357.52</ele>
        <time>2012-06-24T09:28:37Z</time>
      </trkpt>
      <trkpt lat="45.65892" lon="6.00087">
        <ele>1358.48</ele>
        <time>2012-06-24T09:28:38Z</time>
      </trkpt>
      <trkpt lat="45.6591" lon="6.00102">
        <ele>1360.88</ele>
        <time>2012-06-24T09:28:48Z</time>
      </trkpt>
      <trkpt lat="45.65912" lon="6.00102">
        <ele>1360.88</ele>
        <time>2012-06-24T09:28:49Z</time>
      </trkpt>
      <trkpt lat="45.65945" lon="6.00112">
        <ele>1361.84</ele>
        <time>2012-06-24T09:29:01Z</time>
      </trkpt>
      <trkpt lat="45.65982" lon="6.0012">
        <ele>1364.73</ele>
        <time>2012-06-24T09:29:13Z</time>
      </trkpt>
      <trkpt lat="45.65992" lon="6.00124">
        <ele>1366.65</ele>
        <time>2012-06-24T09:29:17Z</time>
      </trkpt>
      <trkpt lat="45.66029" lon="6.00138">
        <ele>1366.17</ele>
        <time>2012-06-24T09:29:29Z</time>
      </trkpt>
      <trkpt lat="45.66065" lon="6.00168">
        <ele>1369.54</ele>
        <time>2012-06-24T09:29:43Z</time>
      </trkpt>
      <trkpt lat="45.6608" lon="6.00229">
        <ele>1366.65</ele>
        <time>2012-06-24T09:29:55Z</time>
      </trkpt>
      <trkpt lat="45.66107" lon="6.0022">
        <ele>1369.54</ele>
        <time>2012-06-24T09:30:06Z</time>
      </trkpt>
      <trkpt lat="45.66109" lon="6.00216">
        <ele>1370.5</ele>
        <time>2012-06-24T09:30:08Z</time>
      </trkpt>
      <trkpt lat="45.66111" lon="6.00213">
        <ele>1371.46</ele>
        <time>2012-06-24T09:30:09Z</time>
      </trkpt>
      <trkpt lat="45.66113" lon="6.00211">
        <ele>1371.46</ele>
        <time>2012-06-24T09:30:10Z</time>
      </trkpt>
      <trkpt lat="45.66114" lon="6.00208">
        <ele>1370.98</ele>
        <time>2012-06-24T09:30:11Z</time>
      </trkpt>
      <trkpt lat="45.66114" lon="6.00204">
        <ele>1371.94</ele>
        <time>2012-06-24T09:30:12Z</time>
      </trkpt>
      <trkpt lat="45.66115" lon="6.00201">
        <ele>1371.94</ele>
        <time>2012-06-24T09:30:13Z</time>
      </trkpt>
      <trkpt lat="45.66115" lon="6.00198">
        <ele>1371.46</ele>
        <time>2012-06-24T09:30:14Z</time>
      </trkpt>
      <trkpt lat="45.66115" lon="6.00195">
        <ele>1371.94</ele>
        <time>2012-06-24T09:30:15Z</time>
      </trkpt>
      <trkpt lat="45.66116" lon="6.00139">
        <ele>1370.5</ele>
        <time>2012-06-24T09:30:26Z</time>
      </trkpt>
      <trkpt lat="45.66129" lon="6.00082">
        <ele>1370.98</ele>
        <time>2012-06-24T09:30:38Z</time>
      </trkpt>
      <trkpt lat="45.66132" lon="6.00003">
        <ele>1370.5</ele>
        <time>2012-06-24T09:30:51Z</time>
      </trkpt>
      <trkpt lat="45.66132" lon="5.99979">
        <ele>1370.5</ele>
        <time>2012-06-24T09:30:54Z</time>
      </trkpt>
      <trkpt lat="45.6613" lon="5.9997">
        <ele>1370.02</ele>
        <time>2012-06-24T09:30:55Z</time>
      </trkpt>
      <trkpt lat="45.66127" lon="5.9996">
        <ele>1370.02</ele>
        <time>2012-06-24T09:30:56Z</time>
      </trkpt>
      <trkpt lat="45.66123" lon="5.9995">
        <ele>1369.05</ele>
        <time>2012-06-24T09:30:57Z</time>
      </trkpt>
      <trkpt lat="45.66118" lon="5.9994">
        <ele>1368.09</ele>
        <time>2012-06-24T09:30:58Z</time>
      </trkpt>
      <trkpt lat="45.66113" lon="5.99931">
        <ele>1367.61</ele>
        <time>2012-06-24T09:30:59Z</time>
      </trkpt>
      <trkpt lat="45.66108" lon="5.99921">
        <ele>1366.65</ele>
        <time>2012-06-24T09:31:00Z</time>
      </trkpt>
      <trkpt lat="45.66103" lon="5.99911">
        <ele>1365.69</ele>
        <time>2012-06-24T09:31:01Z</time>
      </trkpt>
      <trkpt lat="45.661" lon="5.99903">
        <ele>1367.13</ele>
        <time>2012-06-24T09:31:02Z</time>
      </trkpt>
      <trkpt lat="45.66098" lon="5.99896">
        <ele>1367.61</ele>
        <time>2012-06-24T09:31:03Z</time>
      </trkpt>
      <trkpt lat="45.66098" lon="5.99889">
        <ele>1368.09</ele>
        <time>2012-06-24T09:31:04Z</time>
      </trkpt>
      <trkpt lat="45.66098" lon="5.99882">
        <ele>1368.57</ele>
        <time>2012-06-24T09:31:05Z</time>
      </trkpt>
      <trkpt lat="45.66097" lon="5.99875">
        <ele>1368.57</ele>
        <time>2012-06-24T09:31:06Z</time>
      </trkpt>
      <trkpt lat="45.66096" lon="5.99868">
        <ele>1368.57</ele>
        <time>2012-06-24T09:31:07Z</time>
      </trkpt>
      <trkpt lat="45.66093" lon="5.99862">
        <ele>1368.09</ele>
        <time>2012-06-24T09:31:08Z</time>
      </trkpt>
      <trkpt lat="45.66089" lon="5.99855">
        <ele>1368.57</ele>
        <time>2012-06-24T09:31:09Z</time>
      </trkpt>
      <trkpt lat="45.66084" lon="5.99844">
        <ele>1369.05</ele>
        <time>2012-06-24T09:31:11Z</time>
      </trkpt>
      <trkpt lat="45.66082" lon="5.99837">
        <ele>1369.05</ele>
        <time>2012-06-24T09:31:12Z</time>
      </trkpt>
      <trkpt lat="45.6608" lon="5.99809">
        <ele>1369.54</ele>
        <time>2012-06-24T09:31:16Z</time>
      </trkpt>
      <trkpt lat="45.66078" lon="5.99801">
        <ele>1369.05</ele>
        <time>2012-06-24T09:31:17Z</time>
      </trkpt>
      <trkpt lat="45.66077" lon="5.99792">
        <ele>1368.57</ele>
        <time>2012-06-24T09:31:18Z</time>
      </trkpt>
      <trkpt lat="45.66074" lon="5.99774">
        <ele>1367.61</ele>
        <time>2012-06-24T09:31:20Z</time>
      </trkpt>
      <trkpt lat="45.66062" lon="5.99714">
        <ele>1364.73</ele>
        <time>2012-06-24T09:31:26Z</time>
      </trkpt>
      <trkpt lat="45.6605" lon="5.99659">
        <ele>1362.81</ele>
        <time>2012-06-24T09:31:32Z</time>
      </trkpt>
      <trkpt lat="45.66051" lon="5.99652">
        <ele>1362.33</ele>
        <time>2012-06-24T09:31:33Z</time>
      </trkpt>
      <trkpt lat="45.66054" lon="5.99647">
        <ele>1362.33</ele>
        <time>2012-06-24T09:31:34Z</time>
      </trkpt>
      <trkpt lat="45.66058" lon="5.99646">
        <ele>1361.84</ele>
        <time>2012-06-24T09:31:35Z</time>
      </trkpt>
      <trkpt lat="45.66063" lon="5.99648">
        <ele>1361.36</ele>
        <time>2012-06-24T09:31:36Z</time>
      </trkpt>
      <trkpt lat="45.66067" lon="5.99652">
        <ele>1361.84</ele>
        <time>2012-06-24T09:31:37Z</time>
      </trkpt>
      <trkpt lat="45.66071" lon="5.99655">
        <ele>1361.84</ele>
        <time>2012-06-24T09:31:38Z</time>
      </trkpt>
      <trkpt lat="45.66074" lon="5.99659">
        <ele>1361.84</ele>
        <time>2012-06-24T09:31:39Z</time>
      </trkpt>
      <trkpt lat="45.661" lon="5.99672">
        <ele>1363.77</ele>
        <time>2012-06-24T09:31:48Z</time>
      </trkpt>
      <trkpt lat="45.66135" lon="5.99665">
        <ele>1364.25</ele>
        <time>2012-06-24T09:31:58Z</time>
      </trkpt>
      <trkpt lat="45.66147" lon="5.99665">
        <ele>1365.21</ele>
        <time>2012-06-24T09:32:03Z</time>
      </trkpt>
      <trkpt lat="45.66163" lon="5.9966">
        <ele>1367.13</ele>
        <time>2012-06-24T09:32:12Z</time>
      </trkpt>
      <trkpt lat="45.66165" lon="5.9966">
        <ele>1368.09</ele>
        <time>2012-06-24T09:32:13Z</time>
      </trkpt>
      <trkpt lat="45.66167" lon="5.99659">
        <ele>1368.57</ele>
        <time>2012-06-24T09:32:14Z</time>
      </trkpt>
      <trkpt lat="45.66169" lon="5.99658">
        <ele>1369.05</ele>
        <time>2012-06-24T09:32:15Z</time>
      </trkpt>
      <trkpt lat="45.6617" lon="5.99658">
        <ele>1368.57</ele>
        <time>2012-06-24T09:32:16Z</time>
      </trkpt>
      <trkpt lat="45.66172" lon="5.99658">
        <ele>1369.05</ele>
        <time>2012-06-24T09:32:17Z</time>
      </trkpt>
      <trkpt lat="45.66174" lon="5.99658">
        <ele>1369.05</ele>
        <time>2012-06-24T09:32:18Z</time>
      </trkpt>
      <trkpt lat="45.66176" lon="5.99658">
        <ele>1369.54</ele>
        <time>2012-06-24T09:32:19Z</time>
      </trkpt>
      <trkpt lat="45.66177" lon="5.9966">
        <ele>1370.02</ele>
        <time>2012-06-24T09:32:20Z</time>
      </trkpt>
      <trkpt lat="45.66182" lon="5.99664">
        <ele>1370.02</ele>
        <time>2012-06-24T09:32:24Z</time>
      </trkpt>
      <trkpt lat="45.66182" lon="5.99667">
        <ele>1370.02</ele>
        <time>2012-06-24T09:32:25Z</time>
      </trkpt>
      <trkpt lat="45.66183" lon="5.99669">
        <ele>1370.02</ele>
        <time>2012-06-24T09:32:26Z</time>
      </trkpt>
      <trkpt lat="45.66184" lon="5.99672">
        <ele>1370.02</ele>
        <time>2012-06-24T09:32:27Z</time>
      </trkpt>
      <trkpt lat="45.66185" lon="5.99675">
        <ele>1370.02</ele>
        <time>2012-06-24T09:32:28Z</time>
      </trkpt>
      <trkpt lat="45.66203" lon="5.99709">
        <ele>1370.5</ele>
        <time>2012-06-24T09:32:41Z</time>
      </trkpt>
      <trkpt lat="45.66224" lon="5.99719">
        <ele>1372.9</ele>
        <time>2012-06-24T09:32:54Z</time>
      </trkpt>
      <trkpt lat="45.66253" lon="5.99741">
        <ele>1373.38</ele>
        <time>2012-06-24T09:33:07Z</time>
      </trkpt>
      <trkpt lat="45.66288" lon="5.99763">
        <ele>1372.9</ele>
        <time>2012-06-24T09:33:19Z</time>
      </trkpt>
      <trkpt lat="45.66322" lon="5.99738">
        <ele>1372.9</ele>
        <time>2012-06-24T09:33:32Z</time>
      </trkpt>
      <trkpt lat="45.66338" lon="5.99706">
        <ele>1373.38</ele>
        <time>2012-06-24T09:33:45Z</time>
      </trkpt>
      <trkpt lat="45.66348" lon="5.99661">
        <ele>1371.94</ele>
        <time>2012-06-24T09:33:57Z</time>
      </trkpt>
      <trkpt lat="45.66336" lon="5.99636">
        <ele>1373.86</ele>
        <time>2012-06-24T09:34:10Z</time>
      </trkpt>
      <trkpt lat="45.6633" lon="5.99636">
        <ele>1373.86</ele>
        <time>2012-06-24T09:34:12Z</time>
      </trkpt>
      <trkpt lat="45.66324" lon="5.99634">
        <ele>1373.86</ele>
        <time>2012-06-24T09:34:14Z</time>
      </trkpt>
      <trkpt lat="45.66291" lon="5.99622">
        <ele>1373.38</ele>
        <time>2012-06-24T09:34:22Z</time>
      </trkpt>
      <trkpt lat="45.66275" lon="5.99594">
        <ele>1374.34</ele>
        <time>2012-06-24T09:34:34Z</time>
      </trkpt>
      <trkpt lat="45.66259" lon="5.99555">
        <ele>1373.86</ele>
        <time>2012-06-24T09:34:45Z</time>
      </trkpt>
      <trkpt lat="45.66259" lon="5.99528">
        <ele>1372.9</ele>
        <time>2012-06-24T09:34:49Z</time>
      </trkpt>
      <trkpt lat="45.66265" lon="5.99508">
        <ele>1371.94</ele>
        <time>2012-06-24T09:34:52Z</time>
      </trkpt>
      <trkpt lat="45.66267" lon="5.99501">
        <ele>1371.94</ele>
        <time>2012-06-24T09:34:53Z</time>
      </trkpt>
      <trkpt lat="45.66266" lon="5.99475">
        <ele>1369.05</ele>
        <time>2012-06-24T09:34:58Z</time>
      </trkpt>
      <trkpt lat="45.66259" lon="5.99465">
        <ele>1370.02</ele>
        <time>2012-06-24T09:35:02Z</time>
      </trkpt>
      <trkpt lat="45.66226" lon="5.9944">
        <ele>1370.98</ele>
        <time>2012-06-24T09:35:15Z</time>
      </trkpt>
      <trkpt lat="45.66221" lon="5.99401">
        <ele>1368.09</ele>
        <time>2012-06-24T09:35:22Z</time>
      </trkpt>
      <trkpt lat="45.66199" lon="5.99373">
        <ele>1369.05</ele>
        <time>2012-06-24T09:35:31Z</time>
      </trkpt>
      <trkpt lat="45.66193" lon="5.99371">
        <ele>1370.02</ele>
        <time>2012-06-24T09:35:34Z</time>
      </trkpt>
      <trkpt lat="45.66158" lon="5.9936">
        <ele>1370.5</ele>
        <time>2012-06-24T09:35:49Z</time>
      </trkpt>
      <trkpt lat="45.6614" lon="5.99327">
        <ele>1370.5</ele>
        <time>2012-06-24T09:36:00Z</time>
      </trkpt>
      <trkpt lat="45.66118" lon="5.99293">
        <ele>1369.54</ele>
        <time>2012-06-24T09:36:11Z</time>
      </trkpt>
      <trkpt lat="45.66114" lon="5.99292">
        <ele>1369.05</ele>
        <time>2012-06-24T09:36:12Z</time>
      </trkpt>
      <trkpt lat="45.66057" lon="5.99277">
        <ele>1369.05</ele>
        <time>2012-06-24T09:36:28Z</time>
      </trkpt>
      <trkpt lat="45.66021" lon="5.99283">
        <ele>1366.17</ele>
        <time>2012-06-24T09:36:39Z</time>
      </trkpt>
      <trkpt lat="45.6601" lon="5.99276">
        <ele>1364.73</ele>
        <time>2012-06-24T09:36:42Z</time>
      </trkpt>
      <trkpt lat="45.65992" lon="5.99261">
        <ele>1363.77</ele>
        <time>2012-06-24T09:36:46Z</time>
      </trkpt>
      <trkpt lat="45.65971" lon="5.99257">
        <ele>1362.33</ele>
        <time>2012-06-24T09:36:51Z</time>
      </trkpt>
      <trkpt lat="45.65953" lon="5.99258">
        <ele>1360.88</ele>
        <time>2012-06-24T09:36:56Z</time>
      </trkpt>
      <trkpt lat="45.65913" lon="5.99232">
        <ele>1360.4</ele>
        <time>2012-06-24T09:37:08Z</time>
      </trkpt>
      <trkpt lat="45.65898" lon="5.99219">
        <ele>1360.88</ele>
        <time>2012-06-24T09:37:12Z</time>
      </trkpt>
      <trkpt lat="45.65881" lon="5.99195">
        <ele>1361.36</ele>
        <time>2012-06-24T09:37:17Z</time>
      </trkpt>
      <trkpt lat="45.65872" lon="5.9918">
        <ele>1362.33</ele>
        <time>2012-06-24T09:37:20Z</time>
      </trkpt>
      <trkpt lat="45.65858" lon="5.99148">
        <ele>1363.77</ele>
        <time>2012-06-24T09:37:26Z</time>
      </trkpt>
      <trkpt lat="45.65852" lon="5.99127">
        <ele>1364.25</ele>
        <time>2012-06-24T09:37:30Z</time>
      </trkpt>
      <trkpt lat="45.65842" lon="5.99097">
        <ele>1363.77</ele>
        <time>2012-06-24T09:37:35Z</time>
      </trkpt>
      <trkpt lat="45.6584" lon="5.9909">
        <ele>1363.77</ele>
        <time>2012-06-24T09:37:36Z</time>
      </trkpt>
      <trkpt lat="45.65839" lon="5.99082">
        <ele>1363.77</ele>
        <time>2012-06-24T09:37:37Z</time>
      </trkpt>
      <trkpt lat="45.65838" lon="5.99074">
        <ele>1363.77</ele>
        <time>2012-06-24T09:37:38Z</time>
      </trkpt>
      <trkpt lat="45.65837" lon="5.99067">
        <ele>1363.77</ele>
        <time>2012-06-24T09:37:39Z</time>
      </trkpt>
      <trkpt lat="45.65835" lon="5.99061">
        <ele>1364.25</ele>
        <time>2012-06-24T09:37:40Z</time>
      </trkpt>
      <trkpt lat="45.65833" lon="5.99056">
        <ele>1364.25</ele>
        <time>2012-06-24T09:37:41Z</time>
      </trkpt>
      <trkpt lat="45.65814" lon="5.99">
        <ele>1365.69</ele>
        <time>2012-06-24T09:37:53Z</time>
      </trkpt>
      <trkpt lat="45.65801" lon="5.98928">
        <ele>1366.65</ele>
        <time>2012-06-24T09:38:06Z</time>
      </trkpt>
      <trkpt lat="45.65789" lon="5.98871">
        <ele>1366.65</ele>
        <time>2012-06-24T09:38:17Z</time>
      </trkpt>
      <trkpt lat="45.65784" lon="5.98834">
        <ele>1364.73</ele>
        <time>2012-06-24T09:38:21Z</time>
      </trkpt>
      <trkpt lat="45.65776" lon="5.98756">
        <ele>1365.69</ele>
        <time>2012-06-24T09:38:32Z</time>
      </trkpt>
      <trkpt lat="45.65775" lon="5.98744">
        <ele>1366.17</ele>
        <time>2012-06-24T09:38:34Z</time>
      </trkpt>
      <trkpt lat="45.65774" lon="5.98738">
        <ele>1365.69</ele>
        <time>2012-06-24T09:38:35Z</time>
      </trkpt>
      <trkpt lat="45.6577" lon="5.98689">
        <ele>1365.69</ele>
        <time>2012-06-24T09:38:43Z</time>
      </trkpt>
      <trkpt lat="45.65767" lon="5.98673">
        <ele>1365.21</ele>
        <time>2012-06-24T09:38:45Z</time>
      </trkpt>
      <trkpt lat="45.65766" lon="5.98665">
        <ele>1365.21</ele>
        <time>2012-06-24T09:38:46Z</time>
      </trkpt>
      <trkpt lat="45.65764" lon="5.98634">
        <ele>1365.21</ele>
        <time>2012-06-24T09:38:50Z</time>
      </trkpt>
      <trkpt lat="45.65764" lon="5.9862">
        <ele>1365.21</ele>
        <time>2012-06-24T09:38:52Z</time>
      </trkpt>
      <trkpt lat="45.65768" lon="5.98596">
        <ele>1365.69</ele>
        <time>2012-06-24T09:38:56Z</time>
      </trkpt>
      <trkpt lat="45.65768" lon="5.98589">
        <ele>1366.17</ele>
        <time>2012-06-24T09:38:57Z</time>
      </trkpt>
      <trkpt lat="45.65768" lon="5.98583">
        <ele>1365.69</ele>
        <time>2012-06-24T09:38:58Z</time>
      </trkpt>
      <trkpt lat="45.65766" lon="5.98576">
        <ele>1366.17</ele>
        <time>2012-06-24T09:38:59Z</time>
      </trkpt>
      <trkpt lat="45.65764" lon="5.9857">
        <ele>1366.17</ele>
        <time>2012-06-24T09:39:00Z</time>
      </trkpt>
      <trkpt lat="45.65741" lon="5.98528">
        <ele>1369.05</ele>
        <time>2012-06-24T09:39:10Z</time>
      </trkpt>
      <trkpt lat="45.65734" lon="5.98512">
        <ele>1369.54</ele>
        <time>2012-06-24T09:39:13Z</time>
      </trkpt>
      <trkpt lat="45.65731" lon="5.98501">
        <ele>1368.57</ele>
        <time>2012-06-24T09:39:15Z</time>
      </trkpt>
      <trkpt lat="45.6573" lon="5.98495">
        <ele>1369.54</ele>
        <time>2012-06-24T09:39:16Z</time>
      </trkpt>
      <trkpt lat="45.65723" lon="5.98393">
        <ele>1370.02</ele>
        <time>2012-06-24T09:39:32Z</time>
      </trkpt>
      <trkpt lat="45.65719" lon="5.98328">
        <ele>1370.98</ele>
        <time>2012-06-24T09:39:44Z</time>
      </trkpt>
      <trkpt lat="45.65716" lon="5.98245">
        <ele>1372.9</ele>
        <time>2012-06-24T09:39:59Z</time>
      </trkpt>
      <trkpt lat="45.65717" lon="5.98188">
        <ele>1376.26</ele>
        <time>2012-06-24T09:40:12Z</time>
      </trkpt>
      <trkpt lat="45.65681" lon="5.98163">
        <ele>1377.23</ele>
        <time>2012-06-24T09:40:25Z</time>
      </trkpt>
      <trkpt lat="45.65674" lon="5.98143">
        <ele>1378.19</ele>
        <time>2012-06-24T09:40:36Z</time>
      </trkpt>
      <trkpt lat="45.65686" lon="5.98137">
        <ele>1378.67</ele>
        <time>2012-06-24T09:40:41Z</time>
      </trkpt>
      <trkpt lat="45.65691" lon="5.98134">
        <ele>1378.67</ele>
        <time>2012-06-24T09:40:42Z</time>
      </trkpt>
      <trkpt lat="45.65694" lon="5.98132">
        <ele>1379.15</ele>
        <time>2012-06-24T09:40:43Z</time>
      </trkpt>
      <trkpt lat="45.65698" lon="5.9813">
        <ele>1379.15</ele>
        <time>2012-06-24T09:40:44Z</time>
      </trkpt>
      <trkpt lat="45.65701" lon="5.98128">
        <ele>1379.63</ele>
        <time>2012-06-24T09:40:45Z</time>
      </trkpt>
      <trkpt lat="45.65702" lon="5.98125">
        <ele>1380.11</ele>
        <time>2012-06-24T09:40:46Z</time>
      </trkpt>
      <trkpt lat="45.65704" lon="5.98122">
        <ele>1380.11</ele>
        <time>2012-06-24T09:40:47Z</time>
      </trkpt>
      <trkpt lat="45.65707" lon="5.98121">
        <ele>1379.63</ele>
        <time>2012-06-24T09:40:48Z</time>
      </trkpt>
      <trkpt lat="45.65743" lon="5.98091">
        <ele>1381.07</ele>
        <time>2012-06-24T09:41:01Z</time>
      </trkpt>
      <trkpt lat="45.65781" lon="5.98076">
        <ele>1380.11</ele>
        <time>2012-06-24T09:41:12Z</time>
      </trkpt>
      <trkpt lat="45.65803" lon="5.98052">
        <ele>1382.51</ele>
        <time>2012-06-24T09:41:24Z</time>
      </trkpt>
      <trkpt lat="45.6582" lon="5.98031">
        <ele>1384.44</ele>
        <time>2012-06-24T09:41:37Z</time>
      </trkpt>
      <trkpt lat="45.6584" lon="5.9803">
        <ele>1386.36</ele>
        <time>2012-06-24T09:41:49Z</time>
      </trkpt>
      <trkpt lat="45.65882" lon="5.98042">
        <ele>1384.92</ele>
        <time>2012-06-24T09:42:03Z</time>
      </trkpt>
      <trkpt lat="45.65906" lon="5.98065">
        <ele>1382.51</ele>
        <time>2012-06-24T09:42:09Z</time>
      </trkpt>
      <trkpt lat="45.65912" lon="5.98068">
        <ele>1382.51</ele>
        <time>2012-06-24T09:42:10Z</time>
      </trkpt>
      <trkpt lat="45.65924" lon="5.98073">
        <ele>1382.51</ele>
        <time>2012-06-24T09:42:12Z</time>
      </trkpt>
      <trkpt lat="45.65935" lon="5.98075">
        <ele>1382.51</ele>
        <time>2012-06-24T09:42:14Z</time>
      </trkpt>
      <trkpt lat="45.65957" lon="5.98063">
        <ele>1384.92</ele>
        <time>2012-06-24T09:42:23Z</time>
      </trkpt>
      <trkpt lat="45.65978" lon="5.98021">
        <ele>1387.32</ele>
        <time>2012-06-24T09:42:40Z</time>
      </trkpt>
      <trkpt lat="45.65994" lon="5.97993">
        <ele>1390.2</ele>
        <time>2012-06-24T09:42:52Z</time>
      </trkpt>
      <trkpt lat="45.66005" lon="5.97962">
        <ele>1391.65</ele>
        <time>2012-06-24T09:43:06Z</time>
      </trkpt>
      <trkpt lat="45.66039" lon="5.97932">
        <ele>1391.17</ele>
        <time>2012-06-24T09:43:18Z</time>
      </trkpt>
      <trkpt lat="45.66074" lon="5.97921">
        <ele>1391.17</ele>
        <time>2012-06-24T09:43:32Z</time>
      </trkpt>
      <trkpt lat="45.661" lon="5.9792">
        <ele>1393.09</ele>
        <time>2012-06-24T09:43:44Z</time>
      </trkpt>
      <trkpt lat="45.66126" lon="5.97893">
        <ele>1392.13</ele>
        <time>2012-06-24T09:43:54Z</time>
      </trkpt>
      <trkpt lat="45.66134" lon="5.97876">
        <ele>1390.68</ele>
        <time>2012-06-24T09:43:58Z</time>
      </trkpt>
      <trkpt lat="45.66135" lon="5.97862">
        <ele>1392.13</ele>
        <time>2012-06-24T09:44:10Z</time>
      </trkpt>
      <trkpt lat="45.66116" lon="5.97861">
        <ele>1395.49</ele>
        <time>2012-06-24T09:44:26Z</time>
      </trkpt>
      <trkpt lat="45.66114" lon="5.97862">
        <ele>1395.49</ele>
        <time>2012-06-24T09:44:28Z</time>
      </trkpt>
      <trkpt lat="45.66098" lon="5.97863">
        <ele>1396.93</ele>
        <time>2012-06-24T09:44:42Z</time>
      </trkpt>
      <trkpt lat="45.66094" lon="5.97863">
        <ele>1396.93</ele>
        <time>2012-06-24T09:44:45Z</time>
      </trkpt>
      <trkpt lat="45.66093" lon="5.97862">
        <ele>1397.41</ele>
        <time>2012-06-24T09:44:46Z</time>
      </trkpt>
      <trkpt lat="45.66091" lon="5.97861">
        <ele>1397.41</ele>
        <time>2012-06-24T09:44:47Z</time>
      </trkpt>
      <trkpt lat="45.6609" lon="5.9786">
        <ele>1397.41</ele>
        <time>2012-06-24T09:44:48Z</time>
      </trkpt>
      <trkpt lat="45.66088" lon="5.97859">
        <ele>1398.37</ele>
        <time>2012-06-24T09:44:49Z</time>
      </trkpt>
      <trkpt lat="45.66086" lon="5.97858">
        <ele>1397.89</ele>
        <time>2012-06-24T09:44:50Z</time>
      </trkpt>
      <trkpt lat="45.66076" lon="5.97855">
        <ele>1399.82</ele>
        <time>2012-06-24T09:44:57Z</time>
      </trkpt>
      <trkpt lat="45.66074" lon="5.97854">
        <ele>1399.82</ele>
        <time>2012-06-24T09:44:58Z</time>
      </trkpt>
      <trkpt lat="45.66073" lon="5.97854">
        <ele>1400.3</ele>
        <time>2012-06-24T09:44:59Z</time>
      </trkpt>
      <trkpt lat="45.6607" lon="5.97853">
        <ele>1399.82</ele>
        <time>2012-06-24T09:45:00Z</time>
      </trkpt>
      <trkpt lat="45.66068" lon="5.97852">
        <ele>1399.82</ele>
        <time>2012-06-24T09:45:01Z</time>
      </trkpt>
      <trkpt lat="45.66039" lon="5.97845">
        <ele>1400.3</ele>
        <time>2012-06-24T09:45:14Z</time>
      </trkpt>
      <trkpt lat="45.66006" lon="5.97861">
        <ele>1399.34</ele>
        <time>2012-06-24T09:45:26Z</time>
      </trkpt>
      <trkpt lat="45.65995" lon="5.97858">
        <ele>1400.78</ele>
        <time>2012-06-24T09:45:32Z</time>
      </trkpt>
      <trkpt lat="45.65994" lon="5.97857">
        <ele>1400.78</ele>
        <time>2012-06-24T09:45:33Z</time>
      </trkpt>
      <trkpt lat="45.65993" lon="5.97856">
        <ele>1400.78</ele>
        <time>2012-06-24T09:45:34Z</time>
      </trkpt>
      <trkpt lat="45.65991" lon="5.97856">
        <ele>1401.26</ele>
        <time>2012-06-24T09:45:35Z</time>
      </trkpt>
      <trkpt lat="45.65989" lon="5.97855">
        <ele>1401.26</ele>
        <time>2012-06-24T09:45:36Z</time>
      </trkpt>
      <trkpt lat="45.65988" lon="5.97853">
        <ele>1401.74</ele>
        <time>2012-06-24T09:45:37Z</time>
      </trkpt>
      <trkpt lat="45.65987" lon="5.97852">
        <ele>1401.74</ele>
        <time>2012-06-24T09:45:38Z</time>
      </trkpt>
      <trkpt lat="45.65986" lon="5.97851">
        <ele>1401.74</ele>
        <time>2012-06-24T09:45:39Z</time>
      </trkpt>
      <trkpt lat="45.65967" lon="5.97836">
        <ele>1404.62</ele>
        <time>2012-06-24T09:45:54Z</time>
      </trkpt>
      <trkpt lat="45.65962" lon="5.97837">
        <ele>1405.1</ele>
        <time>2012-06-24T09:45:58Z</time>
      </trkpt>
      <trkpt lat="45.65944" lon="5.97855">
        <ele>1405.1</ele>
        <time>2012-06-24T09:46:13Z</time>
      </trkpt>
      <trkpt lat="45.65919" lon="5.97889">
        <ele>1402.22</ele>
        <time>2012-06-24T09:46:24Z</time>
      </trkpt>
      <trkpt lat="45.65888" lon="5.97893">
        <ele>1398.86</ele>
        <time>2012-06-24T09:46:32Z</time>
      </trkpt>
      <trkpt lat="45.65862" lon="5.97898">
        <ele>1397.41</ele>
        <time>2012-06-24T09:46:36Z</time>
      </trkpt>
      <trkpt lat="45.65856" lon="5.97897">
        <ele>1397.41</ele>
        <time>2012-06-24T09:46:37Z</time>
      </trkpt>
      <trkpt lat="45.65851" lon="5.97896">
        <ele>1396.45</ele>
        <time>2012-06-24T09:46:38Z</time>
      </trkpt>
      <trkpt lat="45.65836" lon="5.97893">
        <ele>1396.45</ele>
        <time>2012-06-24T09:46:40Z</time>
      </trkpt>
      <trkpt lat="45.65818" lon="5.97895">
        <ele>1396.93</ele>
        <time>2012-06-24T09:46:42Z</time>
      </trkpt>
      <trkpt lat="45.65762" lon="5.97899">
        <ele>1397.41</ele>
        <time>2012-06-24T09:46:52Z</time>
      </trkpt>
      <trkpt lat="45.65728" lon="5.97913">
        <ele>1398.86</ele>
        <time>2012-06-24T09:47:01Z</time>
      </trkpt>
      <trkpt lat="45.6568" lon="5.97932">
        <ele>1397.41</ele>
        <time>2012-06-24T09:47:12Z</time>
      </trkpt>
      <trkpt lat="45.65659" lon="5.9794">
        <ele>1397.41</ele>
        <time>2012-06-24T09:47:16Z</time>
      </trkpt>
      <trkpt lat="45.65635" lon="5.97943">
        <ele>1396.45</ele>
        <time>2012-06-24T09:47:20Z</time>
      </trkpt>
      <trkpt lat="45.65616" lon="5.97948">
        <ele>1395.01</ele>
        <time>2012-06-24T09:47:23Z</time>
      </trkpt>
      <trkpt lat="45.65591" lon="5.97958">
        <ele>1393.09</ele>
        <time>2012-06-24T09:47:27Z</time>
      </trkpt>
      <trkpt lat="45.65586" lon="5.97961">
        <ele>1392.61</ele>
        <time>2012-06-24T09:47:28Z</time>
      </trkpt>
      <trkpt lat="45.6557" lon="5.97973">
        <ele>1392.13</ele>
        <time>2012-06-24T09:47:31Z</time>
      </trkpt>
      <trkpt lat="45.65557" lon="5.97975">
        <ele>1392.13</ele>
        <time>2012-06-24T09:47:34Z</time>
      </trkpt>
      <trkpt lat="45.65552" lon="5.97975">
        <ele>1391.65</ele>
        <time>2012-06-24T09:47:35Z</time>
      </trkpt>
      <trkpt lat="45.65486" lon="5.97995">
        <ele>1389.24</ele>
        <time>2012-06-24T09:47:47Z</time>
      </trkpt>
      <trkpt lat="45.65479" lon="5.97996">
        <ele>1388.76</ele>
        <time>2012-06-24T09:47:48Z</time>
      </trkpt>
      <trkpt lat="45.65471" lon="5.97996">
        <ele>1388.28</ele>
        <time>2012-06-24T09:47:49Z</time>
      </trkpt>
      <trkpt lat="45.65465" lon="5.97993">
        <ele>1387.8</ele>
        <time>2012-06-24T09:47:50Z</time>
      </trkpt>
      <trkpt lat="45.65461" lon="5.97989">
        <ele>1388.28</ele>
        <time>2012-06-24T09:47:51Z</time>
      </trkpt>
      <trkpt lat="45.65457" lon="5.97985">
        <ele>1388.76</ele>
        <time>2012-06-24T09:47:52Z</time>
      </trkpt>
      <trkpt lat="45.65453" lon="5.97982">
        <ele>1388.28</ele>
        <time>2012-06-24T09:47:53Z</time>
      </trkpt>
      <trkpt lat="45.65448" lon="5.9798">
        <ele>1387.8</ele>
        <time>2012-06-24T09:47:54Z</time>
      </trkpt>
      <trkpt lat="45.65435" lon="5.9797">
        <ele>1389.24</ele>
        <time>2012-06-24T09:47:57Z</time>
      </trkpt>
      <trkpt lat="45.65432" lon="5.97965">
        <ele>1388.76</ele>
        <time>2012-06-24T09:47:58Z</time>
      </trkpt>
      <trkpt lat="45.6543" lon="5.97959">
        <ele>1389.24</ele>
        <time>2012-06-24T09:47:59Z</time>
      </trkpt>
      <trkpt lat="45.65429" lon="5.97952">
        <ele>1389.72</ele>
        <time>2012-06-24T09:48:00Z</time>
      </trkpt>
      <trkpt lat="45.65428" lon="5.97946">
        <ele>1389.72</ele>
        <time>2012-06-24T09:48:01Z</time>
      </trkpt>
      <trkpt lat="45.65428" lon="5.97941">
        <ele>1390.2</ele>
        <time>2012-06-24T09:48:02Z</time>
      </trkpt>
      <trkpt lat="45.65427" lon="5.97892">
        <ele>1391.65</ele>
        <time>2012-06-24T09:48:11Z</time>
      </trkpt>
      <trkpt lat="45.65423" lon="5.97837">
        <ele>1394.05</ele>
        <time>2012-06-24T09:48:24Z</time>
      </trkpt>
      <trkpt lat="45.65411" lon="5.97802">
        <ele>1395.97</ele>
        <time>2012-06-24T09:48:38Z</time>
      </trkpt>
      <trkpt lat="45.65406" lon="5.97765">
        <ele>1397.89</ele>
        <time>2012-06-24T09:48:52Z</time>
      </trkpt>
      <trkpt lat="45.65395" lon="5.97756">
        <ele>1399.34</ele>
        <time>2012-06-24T09:49:04Z</time>
      </trkpt>
      <trkpt lat="45.65387" lon="5.97752">
        <ele>1401.74</ele>
        <time>2012-06-24T09:49:20Z</time>
      </trkpt>
      <trkpt lat="45.65372" lon="5.97734">
        <ele>1402.22</ele>
        <time>2012-06-24T09:49:35Z</time>
      </trkpt>
      <trkpt lat="45.6537" lon="5.97733">
        <ele>1401.74</ele>
        <time>2012-06-24T09:49:36Z</time>
      </trkpt>
      <trkpt lat="45.65369" lon="5.97732">
        <ele>1402.7</ele>
        <time>2012-06-24T09:49:37Z</time>
      </trkpt>
      <trkpt lat="45.65345" lon="5.97724">
        <ele>1405.1</ele>
        <time>2012-06-24T09:49:50Z</time>
      </trkpt>
      <trkpt lat="45.65325" lon="5.9772">
        <ele>1407.03</ele>
        <time>2012-06-24T09:50:06Z</time>
      </trkpt>
      <trkpt lat="45.65303" lon="5.97715">
        <ele>1408.47</ele>
        <time>2012-06-24T09:50:20Z</time>
      </trkpt>
      <trkpt lat="45.65278" lon="5.97703">
        <ele>1409.43</ele>
        <time>2012-06-24T09:50:34Z</time>
      </trkpt>
      <trkpt lat="45.65277" lon="5.97703">
        <ele>1409.43</ele>
        <time>2012-06-24T09:50:35Z</time>
      </trkpt>
      <trkpt lat="45.65275" lon="5.97702">
        <ele>1409.91</ele>
        <time>2012-06-24T09:50:36Z</time>
      </trkpt>
      <trkpt lat="45.65256" lon="5.97709">
        <ele>1410.39</ele>
        <time>2012-06-24T09:50:48Z</time>
      </trkpt>
      <trkpt lat="45.65234" lon="5.97718">
        <ele>1408.95</ele>
        <time>2012-06-24T09:50:58Z</time>
      </trkpt>
      <trkpt lat="45.65228" lon="5.97726">
        <ele>1408.95</ele>
        <time>2012-06-24T09:51:04Z</time>
      </trkpt>
      <trkpt lat="45.65218" lon="5.97778">
        <ele>1407.99</ele>
        <time>2012-06-24T09:51:15Z</time>
      </trkpt>
      <trkpt lat="45.65204" lon="5.97829">
        <ele>1404.62</ele>
        <time>2012-06-24T09:51:20Z</time>
      </trkpt>
      <trkpt lat="45.65202" lon="5.97843">
        <ele>1403.66</ele>
        <time>2012-06-24T09:51:22Z</time>
      </trkpt>
      <trkpt lat="45.65202" lon="5.97856">
        <ele>1401.26</ele>
        <time>2012-06-24T09:51:24Z</time>
      </trkpt>
      <trkpt lat="45.652" lon="5.97865">
        <ele>1400.78</ele>
        <time>2012-06-24T09:51:25Z</time>
      </trkpt>
      <trkpt lat="45.6519" lon="5.97895">
        <ele>1396.93</ele>
        <time>2012-06-24T09:51:29Z</time>
      </trkpt>
      <trkpt lat="45.65187" lon="5.97901">
        <ele>1396.93</ele>
        <time>2012-06-24T09:51:30Z</time>
      </trkpt>
      <trkpt lat="45.6517" lon="5.97921">
        <ele>1393.09</ele>
        <time>2012-06-24T09:51:34Z</time>
      </trkpt>
      <trkpt lat="45.65165" lon="5.97925">
        <ele>1393.09</ele>
        <time>2012-06-24T09:51:35Z</time>
      </trkpt>
      <trkpt lat="45.65146" lon="5.97937">
        <ele>1389.72</ele>
        <time>2012-06-24T09:51:39Z</time>
      </trkpt>
      <trkpt lat="45.65137" lon="5.97943">
        <ele>1388.28</ele>
        <time>2012-06-24T09:51:41Z</time>
      </trkpt>
      <trkpt lat="45.65125" lon="5.97949">
        <ele>1384.44</ele>
        <time>2012-06-24T09:51:44Z</time>
      </trkpt>
      <trkpt lat="45.65102" lon="5.9796">
        <ele>1382.99</ele>
        <time>2012-06-24T09:51:47Z</time>
      </trkpt>
      <trkpt lat="45.65095" lon="5.97968">
        <ele>1382.03</ele>
        <time>2012-06-24T09:51:48Z</time>
      </trkpt>
      <trkpt lat="45.65088" lon="5.97975">
        <ele>1382.99</ele>
        <time>2012-06-24T09:51:49Z</time>
      </trkpt>
      <trkpt lat="45.65081" lon="5.97983">
        <ele>1381.55</ele>
        <time>2012-06-24T09:51:50Z</time>
      </trkpt>
      <trkpt lat="45.65076" lon="5.9799">
        <ele>1380.59</ele>
        <time>2012-06-24T09:51:51Z</time>
      </trkpt>
      <trkpt lat="45.65071" lon="5.97997">
        <ele>1379.63</ele>
        <time>2012-06-24T09:51:52Z</time>
      </trkpt>
      <trkpt lat="45.65067" lon="5.98005">
        <ele>1377.23</ele>
        <time>2012-06-24T09:51:53Z</time>
      </trkpt>
      <trkpt lat="45.65061" lon="5.98012">
        <ele>1375.3</ele>
        <time>2012-06-24T09:51:54Z</time>
      </trkpt>
      <trkpt lat="45.65056" lon="5.98018">
        <ele>1374.34</ele>
        <time>2012-06-24T09:51:55Z</time>
      </trkpt>
      <trkpt lat="45.6505" lon="5.98022">
        <ele>1373.38</ele>
        <time>2012-06-24T09:51:56Z</time>
      </trkpt>
      <trkpt lat="45.65044" lon="5.98025">
        <ele>1371.46</ele>
        <time>2012-06-24T09:51:57Z</time>
      </trkpt>
      <trkpt lat="45.65038" lon="5.98029">
        <ele>1370.5</ele>
        <time>2012-06-24T09:51:58Z</time>
      </trkpt>
      <trkpt lat="45.65031" lon="5.98033">
        <ele>1369.05</ele>
        <time>2012-06-24T09:51:59Z</time>
      </trkpt>
      <trkpt lat="45.6501" lon="5.98043">
        <ele>1366.65</ele>
        <time>2012-06-24T09:52:02Z</time>
      </trkpt>
      <trkpt lat="45.64984" lon="5.98051">
        <ele>1363.29</ele>
        <time>2012-06-24T09:52:06Z</time>
      </trkpt>
      <trkpt lat="45.64875" lon="5.98073">
        <ele>1359.44</ele>
        <time>2012-06-24T09:52:16Z</time>
      </trkpt>
      <trkpt lat="45.64862" lon="5.98074">
        <ele>1358</ele>
        <time>2012-06-24T09:52:18Z</time>
      </trkpt>
      <trkpt lat="45.64838" lon="5.98074">
        <ele>1356.08</ele>
        <time>2012-06-24T09:52:20Z</time>
      </trkpt>
      <trkpt lat="45.64829" lon="5.98074">
        <ele>1356.08</ele>
        <time>2012-06-24T09:52:21Z</time>
      </trkpt>
      <trkpt lat="45.64794" lon="5.98074">
        <ele>1353.67</ele>
        <time>2012-06-24T09:52:25Z</time>
      </trkpt>
      <trkpt lat="45.64775" lon="5.9807">
        <ele>1355.6</ele>
        <time>2012-06-24T09:52:29Z</time>
      </trkpt>
      <trkpt lat="45.64773" lon="5.98068">
        <ele>1356.56</ele>
        <time>2012-06-24T09:52:30Z</time>
      </trkpt>
      <trkpt lat="45.64771" lon="5.98067">
        <ele>1356.56</ele>
        <time>2012-06-24T09:52:31Z</time>
      </trkpt>
      <trkpt lat="45.64769" lon="5.98065">
        <ele>1357.04</ele>
        <time>2012-06-24T09:52:32Z</time>
      </trkpt>
      <trkpt lat="45.64767" lon="5.98064">
        <ele>1357.04</ele>
        <time>2012-06-24T09:52:33Z</time>
      </trkpt>
      <trkpt lat="45.64741" lon="5.98041">
        <ele>1359.44</ele>
        <time>2012-06-24T09:52:47Z</time>
      </trkpt>
      <trkpt lat="45.64731" lon="5.98033">
        <ele>1358.48</ele>
        <time>2012-06-24T09:52:51Z</time>
      </trkpt>
      <trkpt lat="45.64714" lon="5.98029">
        <ele>1357.04</ele>
        <time>2012-06-24T09:52:54Z</time>
      </trkpt>
      <trkpt lat="45.64709" lon="5.98029">
        <ele>1356.56</ele>
        <time>2012-06-24T09:52:55Z</time>
      </trkpt>
      <trkpt lat="45.64653" lon="5.98028">
        <ele>1353.67</ele>
        <time>2012-06-24T09:53:04Z</time>
      </trkpt>
      <trkpt lat="45.64625" lon="5.98028">
        <ele>1350.31</ele>
        <time>2012-06-24T09:53:08Z</time>
      </trkpt>
      <trkpt lat="45.64617" lon="5.98028">
        <ele>1349.83</ele>
        <time>2012-06-24T09:53:09Z</time>
      </trkpt>
      <trkpt lat="45.64592" lon="5.98025">
        <ele>1346.94</ele>
        <time>2012-06-24T09:53:12Z</time>
      </trkpt>
      <trkpt lat="45.64575" lon="5.98024">
        <ele>1344.54</ele>
        <time>2012-06-24T09:53:14Z</time>
      </trkpt>
      <trkpt lat="45.64567" lon="5.98026">
        <ele>1343.58</ele>
        <time>2012-06-24T09:53:15Z</time>
      </trkpt>
      <trkpt lat="45.6456" lon="5.9803">
        <ele>1342.62</ele>
        <time>2012-06-24T09:53:16Z</time>
      </trkpt>
      <trkpt lat="45.64555" lon="5.98035">
        <ele>1342.14</ele>
        <time>2012-06-24T09:53:17Z</time>
      </trkpt>
      <trkpt lat="45.64548" lon="5.98041">
        <ele>1342.14</ele>
        <time>2012-06-24T09:53:18Z</time>
      </trkpt>
      <trkpt lat="45.64515" lon="5.98066">
        <ele>1340.22</ele>
        <time>2012-06-24T09:53:23Z</time>
      </trkpt>
      <trkpt lat="45.64508" lon="5.98069">
        <ele>1339.73</ele>
        <time>2012-06-24T09:53:24Z</time>
      </trkpt>
      <trkpt lat="45.64501" lon="5.98069">
        <ele>1340.22</ele>
        <time>2012-06-24T09:53:25Z</time>
      </trkpt>
      <trkpt lat="45.64494" lon="5.98069">
        <ele>1339.25</ele>
        <time>2012-06-24T09:53:26Z</time>
      </trkpt>
      <trkpt lat="45.64476" lon="5.98065">
        <ele>1337.33</ele>
        <time>2012-06-24T09:53:29Z</time>
      </trkpt>
      <trkpt lat="45.64471" lon="5.98063">
        <ele>1339.25</ele>
        <time>2012-06-24T09:53:30Z</time>
      </trkpt>
      <trkpt lat="45.64436" lon="5.98049">
        <ele>1340.22</ele>
        <time>2012-06-24T09:53:40Z</time>
      </trkpt>
      <trkpt lat="45.64372" lon="5.98027">
        <ele>1339.73</ele>
        <time>2012-06-24T09:53:56Z</time>
      </trkpt>
      <trkpt lat="45.64356" lon="5.98021">
        <ele>1341.18</ele>
        <time>2012-06-24T09:54:00Z</time>
      </trkpt>
      <trkpt lat="45.64295" lon="5.98006">
        <ele>1340.7</ele>
        <time>2012-06-24T09:54:14Z</time>
      </trkpt>
      <trkpt lat="45.64287" lon="5.98004">
        <ele>1341.18</ele>
        <time>2012-06-24T09:54:16Z</time>
      </trkpt>
      <trkpt lat="45.64228" lon="5.97997">
        <ele>1340.7</ele>
        <time>2012-06-24T09:54:30Z</time>
      </trkpt>
      <trkpt lat="45.64192" lon="5.97993">
        <ele>1337.33</ele>
        <time>2012-06-24T09:54:36Z</time>
      </trkpt>
      <trkpt lat="45.64152" lon="5.97988">
        <ele>1338.29</ele>
        <time>2012-06-24T09:54:43Z</time>
      </trkpt>
      <trkpt lat="45.64148" lon="5.97989">
        <ele>1337.81</ele>
        <time>2012-06-24T09:54:44Z</time>
      </trkpt>
      <trkpt lat="45.64143" lon="5.97992">
        <ele>1336.85</ele>
        <time>2012-06-24T09:54:45Z</time>
      </trkpt>
      <trkpt lat="45.64124" lon="5.98004">
        <ele>1335.89</ele>
        <time>2012-06-24T09:54:49Z</time>
      </trkpt>
      <trkpt lat="45.6412" lon="5.98008">
        <ele>1335.41</ele>
        <time>2012-06-24T09:54:50Z</time>
      </trkpt>
      <trkpt lat="45.64116" lon="5.98011">
        <ele>1334.93</ele>
        <time>2012-06-24T09:54:51Z</time>
      </trkpt>
      <trkpt lat="45.64107" lon="5.9802">
        <ele>1334.93</ele>
        <time>2012-06-24T09:54:54Z</time>
      </trkpt>
      <trkpt lat="45.64103" lon="5.98035">
        <ele>1331.56</ele>
        <time>2012-06-24T09:54:57Z</time>
      </trkpt>
      <trkpt lat="45.64101" lon="5.98055">
        <ele>1327.24</ele>
        <time>2012-06-24T09:55:02Z</time>
      </trkpt>
      <trkpt lat="45.64104" lon="5.98073">
        <ele>1323.39</ele>
        <time>2012-06-24T09:55:06Z</time>
      </trkpt>
      <trkpt lat="45.64108" lon="5.98085">
        <ele>1322.91</ele>
        <time>2012-06-24T09:55:08Z</time>
      </trkpt>
      <trkpt lat="45.6411" lon="5.981">
        <ele>1318.1</ele>
        <time>2012-06-24T09:55:10Z</time>
      </trkpt>
      <trkpt lat="45.64108" lon="5.98109">
        <ele>1318.59</ele>
        <time>2012-06-24T09:55:11Z</time>
      </trkpt>
      <trkpt lat="45.64106" lon="5.98117">
        <ele>1317.14</ele>
        <time>2012-06-24T09:55:12Z</time>
      </trkpt>
      <trkpt lat="45.64103" lon="5.98146">
        <ele>1313.78</ele>
        <time>2012-06-24T09:55:15Z</time>
      </trkpt>
      <trkpt lat="45.64104" lon="5.98158">
        <ele>1311.38</ele>
        <time>2012-06-24T09:55:16Z</time>
      </trkpt>
      <trkpt lat="45.64107" lon="5.98227">
        <ele>1306.57</ele>
        <time>2012-06-24T09:55:21Z</time>
      </trkpt>
      <trkpt lat="45.64108" lon="5.98265">
        <ele>1303.2</ele>
        <time>2012-06-24T09:55:24Z</time>
      </trkpt>
      <trkpt lat="45.6411" lon="5.98283">
        <ele>1302.24</ele>
        <time>2012-06-24T09:55:26Z</time>
      </trkpt>
      <trkpt lat="45.64111" lon="5.98289">
        <ele>1300.8</ele>
        <time>2012-06-24T09:55:27Z</time>
      </trkpt>
      <trkpt lat="45.64114" lon="5.98294">
        <ele>1300.32</ele>
        <time>2012-06-24T09:55:28Z</time>
      </trkpt>
      <trkpt lat="45.64117" lon="5.98297">
        <ele>1300.32</ele>
        <time>2012-06-24T09:55:29Z</time>
      </trkpt>
      <trkpt lat="45.6412" lon="5.98298">
        <ele>1300.8</ele>
        <time>2012-06-24T09:55:30Z</time>
      </trkpt>
      <trkpt lat="45.64124" lon="5.98299">
        <ele>1300.8</ele>
        <time>2012-06-24T09:55:31Z</time>
      </trkpt>
      <trkpt lat="45.64127" lon="5.983">
        <ele>1301.28</ele>
        <time>2012-06-24T09:55:32Z</time>
      </trkpt>
      <trkpt lat="45.6413" lon="5.98302">
        <ele>1301.76</ele>
        <time>2012-06-24T09:55:33Z</time>
      </trkpt>
      <trkpt lat="45.64135" lon="5.98308">
        <ele>1302.24</ele>
        <time>2012-06-24T09:55:35Z</time>
      </trkpt>
      <trkpt lat="45.64138" lon="5.98318">
        <ele>1302.72</ele>
        <time>2012-06-24T09:55:37Z</time>
      </trkpt>
      <trkpt lat="45.64141" lon="5.98344">
        <ele>1302.24</ele>
        <time>2012-06-24T09:55:41Z</time>
      </trkpt>
      <trkpt lat="45.6414" lon="5.98351">
        <ele>1302.24</ele>
        <time>2012-06-24T09:55:42Z</time>
      </trkpt>
      <trkpt lat="45.64138" lon="5.98358">
        <ele>1301.76</ele>
        <time>2012-06-24T09:55:43Z</time>
      </trkpt>
      <trkpt lat="45.64136" lon="5.98364">
        <ele>1301.76</ele>
        <time>2012-06-24T09:55:44Z</time>
      </trkpt>
      <trkpt lat="45.64133" lon="5.98371">
        <ele>1301.76</ele>
        <time>2012-06-24T09:55:45Z</time>
      </trkpt>
      <trkpt lat="45.64129" lon="5.98377">
        <ele>1301.28</ele>
        <time>2012-06-24T09:55:46Z</time>
      </trkpt>
      <trkpt lat="45.64114" lon="5.98402">
        <ele>1300.8</ele>
        <time>2012-06-24T09:55:50Z</time>
      </trkpt>
      <trkpt lat="45.64111" lon="5.98409">
        <ele>1301.28</ele>
        <time>2012-06-24T09:55:51Z</time>
      </trkpt>
      <trkpt lat="45.64109" lon="5.98417">
        <ele>1301.28</ele>
        <time>2012-06-24T09:55:52Z</time>
      </trkpt>
      <trkpt lat="45.64107" lon="5.98424">
        <ele>1301.28</ele>
        <time>2012-06-24T09:55:53Z</time>
      </trkpt>
      <trkpt lat="45.64106" lon="5.98431">
        <ele>1301.28</ele>
        <time>2012-06-24T09:55:54Z</time>
      </trkpt>
      <trkpt lat="45.64105" lon="5.98439">
        <ele>1301.76</ele>
        <time>2012-06-24T09:55:55Z</time>
      </trkpt>
      <trkpt lat="45.64105" lon="5.98448">
        <ele>1301.76</ele>
        <time>2012-06-24T09:55:56Z</time>
      </trkpt>
      <trkpt lat="45.64105" lon="5.98457">
        <ele>1301.28</ele>
        <time>2012-06-24T09:55:57Z</time>
      </trkpt>
      <trkpt lat="45.64105" lon="5.98465">
        <ele>1301.76</ele>
        <time>2012-06-24T09:55:58Z</time>
      </trkpt>
      <trkpt lat="45.64106" lon="5.98474">
        <ele>1301.76</ele>
        <time>2012-06-24T09:55:59Z</time>
      </trkpt>
      <trkpt lat="45.64108" lon="5.98482">
        <ele>1301.76</ele>
        <time>2012-06-24T09:56:00Z</time>
      </trkpt>
      <trkpt lat="45.64111" lon="5.9849">
        <ele>1301.76</ele>
        <time>2012-06-24T09:56:01Z</time>
      </trkpt>
      <trkpt lat="45.64159" lon="5.98616">
        <ele>1301.28</ele>
        <time>2012-06-24T09:56:18Z</time>
      </trkpt>
      <trkpt lat="45.64172" lon="5.9865">
        <ele>1300.8</ele>
        <time>2012-06-24T09:56:23Z</time>
      </trkpt>
      <trkpt lat="45.64178" lon="5.98662">
        <ele>1300.8</ele>
        <time>2012-06-24T09:56:25Z</time>
      </trkpt>
      <trkpt lat="45.6418" lon="5.98668">
        <ele>1300.8</ele>
        <time>2012-06-24T09:56:26Z</time>
      </trkpt>
      <trkpt lat="45.64183" lon="5.98673">
        <ele>1300.8</ele>
        <time>2012-06-24T09:56:27Z</time>
      </trkpt>
      <trkpt lat="45.64188" lon="5.98677">
        <ele>1300.32</ele>
        <time>2012-06-24T09:56:28Z</time>
      </trkpt>
      <trkpt lat="45.64193" lon="5.98679">
        <ele>1300.32</ele>
        <time>2012-06-24T09:56:29Z</time>
      </trkpt>
      <trkpt lat="45.64197" lon="5.9868">
        <ele>1300.8</ele>
        <time>2012-06-24T09:56:30Z</time>
      </trkpt>
      <trkpt lat="45.64202" lon="5.9868">
        <ele>1301.28</ele>
        <time>2012-06-24T09:56:31Z</time>
      </trkpt>
      <trkpt lat="45.64206" lon="5.98679">
        <ele>1301.28</ele>
        <time>2012-06-24T09:56:32Z</time>
      </trkpt>
      <trkpt lat="45.64246" lon="5.98671">
        <ele>1303.69</ele>
        <time>2012-06-24T09:56:42Z</time>
      </trkpt>
      <trkpt lat="45.64249" lon="5.9867">
        <ele>1303.69</ele>
        <time>2012-06-24T09:56:43Z</time>
      </trkpt>
      <trkpt lat="45.64261" lon="5.98661">
        <ele>1305.13</ele>
        <time>2012-06-24T09:56:46Z</time>
      </trkpt>
      <trkpt lat="45.64265" lon="5.9866">
        <ele>1305.13</ele>
        <time>2012-06-24T09:56:47Z</time>
      </trkpt>
      <trkpt lat="45.64269" lon="5.98659">
        <ele>1305.61</ele>
        <time>2012-06-24T09:56:48Z</time>
      </trkpt>
      <trkpt lat="45.64274" lon="5.98659">
        <ele>1305.61</ele>
        <time>2012-06-24T09:56:49Z</time>
      </trkpt>
      <trkpt lat="45.64278" lon="5.98661">
        <ele>1306.09</ele>
        <time>2012-06-24T09:56:50Z</time>
      </trkpt>
      <trkpt lat="45.64282" lon="5.98662">
        <ele>1306.57</ele>
        <time>2012-06-24T09:56:51Z</time>
      </trkpt>
      <trkpt lat="45.64287" lon="5.98662">
        <ele>1306.57</ele>
        <time>2012-06-24T09:56:52Z</time>
      </trkpt>
      <trkpt lat="45.64291" lon="5.9866">
        <ele>1306.57</ele>
        <time>2012-06-24T09:56:53Z</time>
      </trkpt>
      <trkpt lat="45.64294" lon="5.98658">
        <ele>1307.05</ele>
        <time>2012-06-24T09:56:54Z</time>
      </trkpt>
      <trkpt lat="45.64298" lon="5.98654">
        <ele>1307.53</ele>
        <time>2012-06-24T09:56:55Z</time>
      </trkpt>
      <trkpt lat="45.64343" lon="5.98604">
        <ele>1309.93</ele>
        <time>2012-06-24T09:57:10Z</time>
      </trkpt>
      <trkpt lat="45.6438" lon="5.98565">
        <ele>1312.34</ele>
        <time>2012-06-24T09:57:24Z</time>
      </trkpt>
      <trkpt lat="45.64418" lon="5.98519">
        <ele>1313.78</ele>
        <time>2012-06-24T09:57:39Z</time>
      </trkpt>
      <trkpt lat="45.64453" lon="5.9844">
        <ele>1316.18</ele>
        <time>2012-06-24T09:57:57Z</time>
      </trkpt>
      <trkpt lat="45.64484" lon="5.98372">
        <ele>1319.07</ele>
        <time>2012-06-24T09:58:13Z</time>
      </trkpt>
      <trkpt lat="45.64507" lon="5.98312">
        <ele>1320.99</ele>
        <time>2012-06-24T09:58:30Z</time>
      </trkpt>
      <trkpt lat="45.6451" lon="5.98307">
        <ele>1320.51</ele>
        <time>2012-06-24T09:58:43Z</time>
      </trkpt>
      <trkpt lat="45.6451" lon="5.98307">
        <ele>1320.99</ele>
        <time>2012-06-24T09:58:48Z</time>
      </trkpt>
    </trkseg>
  </trk>
</gpx>